[[{"header":{"parameterUnit":"m.s-1","parameterCategory":1,"la1":30.6,"la2":28.766,"lo1":-90.7593,"lo2":-88.6598,"dy":0.0162,"dx":0.0183,"nx":116,"ny":114,"refTime":"2023-07-26T12:00:00:Z","depth":0,"parameterNumber":2,"parameterNumberName":"U-component_of_WINDS"},"data":[0.0,0.0,0.0,0.0,0.0,0.0,0.0,0.0,0.0,0.0,0.0,0.0,0.0,0.0,0.0,0.0,0.0,0.0,0.0,0.0,0.0,0.0,0.0,0.0,0.0,0.0,0.0,0.0,0.0,0.0,0.0,0.0,0.0,0.0,0.0,0.0,0.0,0.0,0.0,0.0,0.0,0.0,0.0,0.0,0.0,0.0,0.0,0.0,0.0,0.0,0.0,0.0,0.0,0.0,0.0,0.0,0.0,0.0,0.0,0.0,0.0,0.0,0.0,0.0,0.0,0.0,0.0,0.0,0.0,0.0,0.0,0.0,0.0,0.0,0.0,0.0,0.0,0.0,0.0,0.0,0.0,0.0,0.0,0.0,0.0,0.0,0.0,0.0,0.0,0.0,0.0,0.0,0.0,0.0,0.0,0.0,0.0,0.0,0.0,0.0,0.0,0.0,0.0,0.0,0.0,0.0,0.0,0.0,0.0,0.0,0.0,0.0,0.0,0.0,0.0,0.0,0.0,0.0,0.0,0.0,0.0,0.0,0.0,0.0,0.0,0.0,0.0,0.0,0.0,0.0,0.0,0.0,0.0,0.0,0.0,0.0,0.0,0.0,0.0,0.0,0.0,0.0,0.0,0.0,0.0,0.0,0.0,0.0,0.0,0.0,0.0,0.0,0.0,0.0,0.0,0.0,0.0,0.0,0.0,0.0,0.0,0.0,0.0,0.0,0.0,0.0,0.0,0.0,0.0,0.0,0.0,0.0,0.0,0.0,0.0,0.0,0.0,0.0,0.0,0.0,0.0,0.0,0.0,0.0,0.0,0.0,0.0,0.0,0.0,0.0,0.0,0.0,0.0,0.0,0.0,0.0,0.0,0.0,0.0,0.0,0.0,0.0,0.0,0.0,0.0,0.0,0.0,0.0,0.0,0.0,0.0,0.0,0.0,0.0,0.0,0.0,0.0,0.0,0.0,0.0,0.0,0.0,0.0,0.0,0.0,0.0,0.0,0.0,0.0,0.0,0.0,0.0,0.0,0.0,0.0,0.0,0.0,0.0,0.0,0.0,0.0,0.0,0.0,0.0,0.0,0.0,0.0,0.0,0.0,0.0,0.0,0.0,0.0,0.0,0.0,0.0,0.0,0.0,0.0,0.0,0.0,0.0,0.0,0.0,0.0,0.0,0.0,0.0,0.0,0.0,0.0,0.0,0.0,0.0,0.0,0.0,0.0,0.0,0.0,0.0,0.0,0.0,0.0,0.0,0.0,0.0,0.0,0.0,0.0,0.0,0.0,0.0,0.0,0.0,0.0,0.0,0.0,0.0,0.0,0.0,0.0,0.0,0.0,0.0,0.0,0.0,0.0,0.0,0.0,0.0,0.0,0.0,0.0,0.0,0.0,0.0,0.0,0.0,0.0,0.0,0.0,0.0,0.0,0.0,0.0,0.0,0.0,0.0,0.0,0.0,0.0,0.0,0.0,0.0,0.0,0.0,0.0,0.0,0.0,0.0,0.0,0.0,0.0,0.0,0.0,0.0,0.0,0.0,0.0,0.0,0.0,0.0,0.0,0.0,0.0,0.0,0.0,0.0,0.0,0.0,0.0,0.0,0.0,0.0,0.0,0.0,0.0,0.0,0.0,0.0,0.0,0.0,0.0,0.0,0.0,0.0,0.0,0.0,0.0,0.0,0.0,0.0,0.0,0.0,0.0,0.0,0.0,0.0,0.0,0.0,0.0,0.0,0.0,0.0,0.0,0.0,0.0,0.0,0.0,0.0,0.0,0.0,0.0,0.0,0.0,0.0,0.0,0.0,0.0,0.0,0.0,0.0,0.0,0.0,0.0,0.0,0.0,0.0,0.0,0.0,0.0,0.0,0.0,0.0,0.0,0.0,0.0,0.0,0.0,0.0,0.0,0.0,0.0,0.0,0.0,0.0,0.0,0.0,0.0,0.0,0.0,0.0,0.0,0.0,0.0,0.0,0.0,0.0,0.0,0.0,0.0,0.0,0.0,0.0,0.0,0.0,0.0,0.0,0.0,0.0,0.0,0.0,0.0,0.0,0.0,0.0,0.0,0.0,0.0,0.0,0.0,0.0,0.0,0.0,0.0,0.0,0.0,0.0,0.0,0.0,0.0,0.0,0.0,0.0,0.0,0.0,0.0,0.0,0.0,0.0,0.0,0.0,0.0,0.0,0.0,0.0,0.0,0.0,0.0,0.0,0.0,0.0,0.0,0.0,0.0,0.0,0.0,0.0,0.0,0.0,0.0,0.0,0.0,0.0,0.0,0.0,0.0,0.0,0.0,0.0,0.0,0.0,0.0,0.0,0.0,0.0,0.0,0.0,0.0,0.0,0.0,0.0,0.0,0.0,0.0,0.0,0.0,0.0,0.0,0.0,0.0,0.0,0.0,0.0,0.0,0.0,0.0,0.0,0.0,0.0,0.0,0.0,0.0,0.0,0.0,0.0,0.0,0.0,0.0,0.0,0.0,0.0,0.0,0.0,0.0,0.0,0.0,0.0,0.0,0.0,0.0,0.0,0.0,0.0,0.0,0.0,0.0,0.0,0.0,0.0,0.0,0.0,0.0,0.0,0.0,0.0,0.0,0.0,0.0,0.0,0.0,0.0,0.0,0.0,0.0,0.0,0.0,0.0,0.0,0.0,0.0,0.0,0.0,0.0,0.0,0.0,0.0,0.0,0.0,0.0,0.0,0.0,0.0,0.0,0.0,0.0,0.0,0.0,0.0,0.0,0.0,0.0,0.0,0.0,0.0,0.0,0.0,0.0,0.0,0.0,0.0,0.0,0.0,0.0,0.0,0.0,0.0,0.0,0.0,0.0,0.0,0.0,0.0,0.0,0.0,0.0,0.0,0.0,0.0,0.0,0.0,0.0,0.0,0.0,0.0,0.0,0.0,0.0,0.0,0.0,0.0,0.0,0.0,0.0,0.0,0.0,0.0,0.0,0.0,0.0,0.0,0.0,0.0,0.0,0.0,0.0,0.0,0.0,0.0,0.0,0.0,0.0,0.0,0.0,0.0,0.0,0.0,0.0,0.0,0.0,0.0,0.0,0.0,0.0,0.0,0.0,0.0,0.0,0.0,0.0,0.0,0.0,0.0,0.0,0.0,0.0,0.0,0.0,0.0,0.0,0.0,0.0,0.0,0.0,0.0,0.0,0.0,0.0,0.0,0.0,0.0,0.0,0.0,0.0,0.0,0.0,0.0,0.0,0.0,0.0,0.0,0.0,0.0,0.0,0.0,0.0,0.0,0.0,0.0,0.0,0.0,0.0,0.0,0.0,0.0,0.0,0.0,0.0,0.0,0.0,0.0,0.0,0.0,0.0,0.0,0.0,0.0,0.0,0.0,0.0,0.0,0.0,0.0,0.0,0.0,0.0,0.0,0.0,0.0,0.0,0.0,0.0,0.0,0.0,0.0,0.0,0.0,0.0,0.0,0.0,0.0,0.0,0.0,0.0,0.0,0.0,0.0,0.0,0.0,0.0,0.0,0.0,0.0,0.0,0.0,0.0,0.0,0.0,0.0,0.0,0.0,0.0,0.0,0.0,0.0,0.0,0.0,0.0,0.0,0.0,0.0,0.0,0.0,0.0,0.0,0.0,0.0,0.0,0.0,0.0,0.0,0.0,0.0,0.0,0.0,0.0,0.0,0.0,0.0,0.0,0.0,0.0,0.0,0.0,0.0,0.0,0.0,0.0,0.0,0.0,0.0,0.0,0.0,0.0,0.0,0.0,0.0,0.0,0.0,0.0,0.0,0.0,0.0,0.0,0.0,0.0,0.0,0.0,0.0,0.0,0.0,0.0,0.0,0.0,0.0,0.0,0.0,0.0,0.0,0.0,0.0,0.0,0.0,0.0,0.0,0.0,0.0,0.0,0.0,0.0,0.0,0.0,0.0,0.0,0.0,0.0,0.0,0.0,0.0,0.0,0.0,0.0,0.0,0.0,0.0,0.0,0.0,0.0,0.0,0.0,0.0,0.0,0.0,0.0,0.0,0.0,0.0,0.0,0.0,0.0,0.0,0.0,0.0,0.0,0.0,0.0,0.0,0.0,0.0,0.0,0.0,0.0,0.0,0.0,0.0,0.0,0.0,0.0,0.0,0.0,0.0,0.0,0.0,0.0,0.0,0.0,0.0,0.0,0.0,0.0,0.0,0.0,0.0,0.0,0.0,0.0,0.0,0.0,0.0,0.0,0.0,0.0,0.0,0.0,0.0,0.0,0.0,0.0,0.0,0.0,0.0,0.0,0.0,0.0,0.0,0.0,0.0,0.0,0.0,0.0,0.0,0.0,0.0,0.0,0.0,0.0,0.0,0.0,0.0,0.0,0.0,0.0,0.0,0.0,0.0,0.0,0.0,0.0,0.0,0.0,0.0,0.0,0.0,0.0,0.0,0.0,0.0,0.0,0.0,0.0,0.0,0.0,0.0,0.0,0.0,0.0,0.0,0.0,0.0,0.0,0.0,0.0,0.0,0.0,0.0,0.0,0.0,0.0,0.0,0.0,0.0,0.0,0.0,0.0,0.0,0.0,0.0,0.0,0.0,0.0,0.0,0.0,0.0,0.0,0.0,0.0,0.0,0.0,0.0,0.0,0.0,0.0,0.0,0.0,0.0,0.0,0.0,0.0,0.0,0.0,0.0,0.0,0.0,0.0,0.0,0.0,0.0,0.0,0.0,0.0,0.0,0.0,0.0,0.0,0.0,0.0,0.0,0.0,0.0,0.0,0.0,0.0,0.0,0.0,0.0,0.0,0.0,0.0,0.0,0.0,0.0,0.0,0.0,0.0,0.0,0.0,0.0,0.0,0.0,0.0,0.0,0.0,0.0,0.0,0.0,0.0,0.0,0.0,0.0,0.0,0.0,0.0,0.0,0.0,0.0,0.0,0.0,0.0,0.0,0.0,0.0,0.0,0.0,0.0,0.0,0.0,0.0,0.0,0.0,0.0,0.0,0.0,0.0,0.0,0.0,0.0,0.0,0.0,0.0,0.0,0.0,0.0,0.0,0.0,0.0,0.0,0.0,0.0,0.0,0.0,0.0,0.0,0.0,0.0,0.0,0.0,0.0,0.0,0.0,0.0,0.0,0.0,0.0,0.0,0.0,0.0,0.0,0.0,0.0,0.0,0.0,0.0,0.0,0.0,0.0,0.0,0.0,0.0,0.0,0.0,0.0,0.0,0.0,0.0,0.0,0.0,0.0,0.0,0.0,0.0,0.0,0.0,0.0,0.0,0.0,0.0,0.0,0.0,0.0,0.0,0.0,0.0,0.0,0.0,0.0,0.0,0.0,0.0,0.0,0.0,0.0,0.0,0.0,0.0,0.0,0.0,0.0,0.0,0.0,0.0,0.0,0.0,0.0,0.0,0.0,0.0,0.0,0.0,0.0,0.0,0.0,0.0,0.0,0.0,0.0,0.0,0.0,0.0,0.0,0.0,0.0,0.0,0.0,0.0,0.0,0.0,0.0,0.0,0.0,0.0,0.0,0.0,0.0,0.0,0.0,0.0,0.0,0.0,0.0,0.0,0.0,0.0,0.0,0.0,0.0,0.0,0.0,0.0,0.0,0.0,0.0,0.0,0.0,0.0,0.0,0.0,0.0,0.0,0.0,0.0,0.0,0.0,0.0,0.0,0.0,0.0,0.0,0.0,0.0,0.0,0.0,0.0,0.0,0.0,0.0,0.0,0.0,0.0,0.0,0.0,0.0,0.0,0.0,0.0,0.0,0.0,0.0,0.0,0.0,0.0,0.0,0.0,0.0,0.0,0.0,0.0,0.0,0.0,0.0,0.0,0.0,0.0,0.0,0.0,0.0,0.0,0.0,0.0,0.0,0.0,0.0,0.0,0.0,0.0,0.0,0.0,0.0,0.0,0.0,0.0,0.0,0.0,0.0,0.0,0.0,0.0,0.0,0.0,0.0,0.0,0.0,0.0,0.0,0.0,0.0,0.0,0.0,0.0,0.0,0.0,0.0,0.0,0.0,0.0,0.0,0.0,0.0,0.0,0.0,0.0,0.0,0.0,0.0,0.0,0.0,0.0,0.0,0.0,0.0,0.0,0.0,0.0,0.0,0.0,0.0,0.0,0.0,0.0,0.0,0.0,-0.7645,-0.7353,0.0,0.0,0.0,0.0,0.0,0.0,0.0,0.0,0.0,0.0,0.0,0.0,0.0,0.0,0.0,0.0,0.0,0.0,0.0,0.0,0.0,0.0,0.0,0.0,0.0,0.0,0.0,0.0,0.0,0.0,0.0,0.0,0.0,0.0,0.0,0.0,0.0,0.0,0.0,0.0,0.0,0.0,0.0,0.0,0.0,0.0,0.0,0.0,0.0,0.0,0.0,0.0,0.0,0.0,0.0,0.0,0.0,0.0,0.0,0.0,0.0,0.0,0.0,0.0,0.0,0.0,0.0,0.0,0.0,0.0,0.0,0.0,0.0,0.0,0.0,0.0,0.0,0.0,0.0,0.0,0.0,0.0,0.0,0.0,0.0,0.0,0.0,0.0,0.0,0.0,0.0,0.0,0.0,0.0,0.0,0.0,0.0,0.0,0.0,0.0,0.0,0.0,0.0,0.0,0.0,0.0,0.0,0.0,0.0,0.0,0.0,0.0,0.0,0.0,-0.8132,-0.7849,0.0,0.0,0.0,0.0,0.0,0.0,0.0,0.0,0.0,0.0,0.0,0.0,0.0,0.0,0.0,0.0,0.0,0.0,0.0,0.0,0.0,0.0,0.0,0.0,0.0,0.0,0.0,0.0,0.0,0.0,0.0,0.0,0.0,0.0,0.0,0.0,0.0,0.0,0.0,0.0,0.0,0.0,0.0,0.0,0.0,0.0,0.0,0.0,0.0,0.0,0.0,0.0,0.0,0.0,0.0,0.0,0.0,0.0,0.0,0.0,0.0,0.0,0.0,0.0,0.0,0.0,0.0,0.0,0.0,0.0,0.0,0.0,0.0,0.0,0.0,0.0,0.0,0.0,0.0,0.0,0.0,0.0,0.0,0.0,0.0,0.0,0.0,0.0,0.0,0.0,0.0,0.0,0.0,0.0,0.0,0.0,0.0,0.0,0.0,0.0,0.0,0.0,0.0,0.0,0.0,0.0,0.0,0.0,-0.877,-0.877,-0.8646,-0.8646,-0.8835,-0.9058,-0.8755,-0.8568,-0.8454,-0.8454,0.0,0.0,0.0,0.0,0.0,0.0,0.0,0.0,0.0,0.0,0.0,0.0,0.0,0.0,0.0,0.0,0.0,0.0,0.0,0.0,0.0,0.0,0.0,0.0,0.0,0.0,0.0,0.0,0.0,0.0,0.0,0.0,0.0,0.0,0.0,0.0,0.0,0.0,-1.7285,-1.6846,-1.6611,-1.6523,-1.5752,0.0,0.0,0.0,0.0,0.0,0.0,0.0,0.0,0.0,0.0,0.0,0.0,0.0,0.0,0.0,0.0,0.0,0.0,0.0,0.0,0.0,0.0,0.0,0.0,0.0,0.0,0.0,0.0,0.0,0.0,0.0,0.0,0.0,0.0,0.0,0.0,0.0,0.0,0.0,0.0,0.0,0.0,0.0,-0.9311,-0.9007,0.0,0.0,0.0,0.0,0.0,0.0,0.0,0.0,0.0,0.0,0.0,0.0,0.0,-0.9279,-0.9775,-1.0059,-1.0015,-0.9652,-0.9919,-0.9798,-0.9356,-0.9356,-0.942,-0.9478,-0.9844,0.0,-0.892,-0.892,0.0,0.0,0.0,0.0,0.0,0.0,0.0,0.0,0.0,0.0,0.0,0.0,0.0,0.0,0.0,0.0,0.0,0.0,0.0,0.0,0.0,0.0,0.0,0.0,0.0,0.0,0.0,0.0,0.0,0.0,0.0,0.0,0.0,0.0,0.0,0.0,-1.7734,-1.7734,-1.7725,-1.7295,-1.71,-1.707,-1.6436,-1.6152,-1.6162,-1.6357,0.0,0.0,0.0,0.0,0.0,0.0,0.0,0.0,0.0,0.0,0.0,0.0,0.0,0.0,0.0,0.0,0.0,0.0,0.0,0.0,0.0,0.0,0.0,0.0,0.0,0.0,0.0,0.0,0.0,0.0,0.0,0.0,0.0,0.0,0.0,0.0,0.0,0.0,0.0,-1.0127,-1.0093,-1.0073,-1.0032,-0.9903,0.0,0.0,0.0,0.0,0.0,0.0,0.0,0.0,0.0,-0.9958,-1.0116,-1.0328,-1.0724,-1.1204,-1.1286,-1.1095,-1.1234,-1.1168,-1.0976,-1.0976,-1.0976,-1.0969,-1.1234,-1.1102,-1.0738,-1.029,-0.9716,-0.9069,0.0,0.0,0.0,0.0,-1.0268,-1.0514,0.0,0.0,0.0,0.0,0.0,0.0,0.0,0.0,0.0,0.0,0.0,0.0,0.0,0.0,0.0,-1.4515,0.0,0.0,0.0,0.0,0.0,0.0,0.0,0.0,0.0,0.0,0.0,0.0,-1.8008,-1.8008,-1.8008,-1.7686,-1.7539,-1.7529,-1.7207,-1.6934,-1.6738,-1.6855,-1.6836,0.0,0.0,0.0,0.0,0.0,0.0,0.0,0.0,0.0,0.0,0.0,0.0,0.0,0.0,0.0,0.0,0.0,0.0,0.0,0.0,0.0,0.0,0.0,0.0,0.0,0.0,0.0,0.0,0.0,0.0,0.0,0.0,0.0,0.0,0.0,0.0,0.0,0.0,-1.0891,-1.0916,-1.1024,-1.0912,-1.078,0.0,0.0,0.0,0.0,0.0,0.0,-1.0578,-1.0258,-1.029,-1.087,-1.11,-1.1361,-1.1838,-1.2193,-1.2344,-1.2294,-1.2287,-1.2261,-1.2262,-1.2262,-1.2338,-1.2331,-1.2391,-1.2355,-1.2176,-1.1565,-1.089,-1.0296,-1.0732,-1.0698,-1.05,-1.0555,-1.0773,-1.1087,0.0,0.0,0.0,0.0,0.0,0.0,0.0,0.0,0.0,0.0,0.0,0.0,0.0,0.0,-1.4515,-1.4515,-1.4515,-1.4671,0.0,0.0,0.0,0.0,0.0,0.0,0.0,0.0,0.0,-1.8008,-1.8008,-1.8008,-1.8008,-1.7988,-1.7978,-1.7978,-1.7959,-1.749,-1.6758,-1.7178,-1.7109,-1.6768,0.0,0.0,0.0,0.0,0.0,0.0,0.0,0.0,0.0,0.0,0.0,0.0,0.0,0.0,0.0,0.0,0.0,0.0,0.0,0.0,0.0,0.0,0.0,0.0,0.0,0.0,0.0,0.0,0.0,0.0,0.0,0.0,0.0,0.0,0.0,0.0,0.0,0.0,0.0,-1.174,-1.1988,0.0,0.0,0.0,0.0,-1.1996,-1.1344,-1.1466,-1.258,-1.1414,-1.1539,-1.338,-1.2617,-1.2571,-1.3176,-1.3057,-1.2885,-1.2776,-1.2699,-1.2707,-1.2764,-1.2764,-1.2844,-1.3048,-1.3245,-1.3035,-1.2515,-1.2183,-1.1845,-1.1546,-1.1868,-1.1877,-1.1754,-1.2102,-1.2305,-1.2498,0.0,0.0,0.0,0.0,0.0,0.0,0.0,0.0,0.0,0.0,0.0,0.0,0.0,-1.413,-1.401,-1.4455,-1.4515,-1.457,-1.4708,0.0,0.0,0.0,0.0,0.0,0.0,0.0,-1.7862,-1.7784,-1.794,-1.8008,-1.8008,-1.8008,-1.8008,-1.8008,-1.8008,-1.7842,-1.7568,-1.7725,-1.7695,-1.7568,-1.7725,-1.7695,0.0,0.0,0.0,0.0,0.0,0.0,0.0,0.0,0.0,0.0,0.0,0.0,0.0,0.0,0.0,0.0,0.0,0.0,0.0,0.0,0.0,0.0,0.0,0.0,0.0,0.0,0.0,0.0,0.0,0.0,0.0,0.0,0.0,0.0,0.0,0.0,0.0,-1.212,-1.2243,0.0,-1.249,-1.2513,-1.2606,-1.2699,-1.2568,-1.2555,-1.2816,-1.2484,-1.2631,-1.3378,-1.3599,-1.3892,-1.433,-1.4605,-1.4704,-1.468,-1.4672,-1.4659,-1.4698,-1.4698,-1.4698,-1.4766,-1.4867,-1.4746,-1.4582,-1.4459,-1.3607,-1.2422,-1.2846,-1.2999,-1.2976,-1.3063,-1.3154,-1.3219,0.0,0.0,0.0,0.0,0.0,0.0,0.0,0.0,0.0,0.0,0.0,-1.401,-1.4446,-1.407,-1.401,-1.4455,-1.4515,-1.4625,-1.4891,0.0,0.0,0.0,0.0,0.0,0.0,-1.7657,-1.7862,-1.7706,-1.7862,-1.793,-1.793,-1.793,-1.793,-1.8008,-1.8008,-1.8008,-1.8008,-1.8008,-1.8008,-1.8008,-1.8008,-1.8008,-1.8008,0.0,0.0,0.0,0.0,0.0,0.0,0.0,0.0,0.0,0.0,0.0,0.0,0.0,0.0,0.0,0.0,0.0,0.0,0.0,0.0,0.0,0.0,0.0,0.0,0.0,0.0,0.0,0.0,0.0,0.0,0.0,0.0,0.0,0.0,0.0,-1.2607,-1.2594,-1.2547,-1.268,-1.2894,-1.299,-1.315,-1.3251,-1.3442,-1.3483,-1.3324,-1.3515,-1.3658,-1.3848,-1.422,-1.4597,-1.482,-1.5111,-1.5358,-1.5389,-1.5389,-1.5607,-1.5803,-1.5803,-1.5874,-1.6023,-1.5904,-1.5856,-1.584,-1.5729,-1.4977,-1.3776,-1.4025,-1.4053,-1.3926,-1.3807,-1.3688,-1.3584,0.0,0.0,0.0,0.0,0.0,0.0,0.0,0.0,0.0,0.0,-1.4446,-1.4446,-1.4446,-1.4446,-1.4455,-1.4515,-1.4515,-1.4845,-1.5615,-1.568,0.0,0.0,0.0,0.0,-1.747,-1.7647,-1.7706,-1.7706,-1.7706,-1.7706,-1.7706,-1.7706,-1.7784,-1.8008,-1.8018,-1.8018,-1.8008,-1.8018,-1.8018,-1.8008,-1.8008,-1.8008,-1.8008,0.0,0.0,0.0,0.0,0.0,0.0,0.0,0.0,0.0,0.0,0.0,0.0,0.0,0.0,0.0,0.0,0.0,0.0,0.0,0.0,0.0,0.0,0.0,0.0,0.0,0.0,0.0,0.0,0.0,0.0,0.0,0.0,0.0,-1.2645,-1.2645,-1.271,-1.3068,-1.3116,-1.3251,-1.3584,-1.3624,-1.3632,-1.3648,-1.3966,-1.4167,-1.4281,-1.4475,-1.4736,-1.4987,-1.4706,-1.4565,-1.4729,-1.465,-1.4655,-1.4955,-1.4955,-1.536,-1.6087,-1.6087,-1.6327,-1.6714,-1.6373,-1.6222,-1.6198,-1.5856,-1.5705,-1.5674,-1.5332,-1.4982,-1.4561,-1.4291,-1.3934,-1.3632,0.0,0.0,0.0,0.0,0.0,0.0,0.0,0.0,0.0,0.0,-1.3761,-1.3761,-1.3761,-1.3761,-1.395,-1.4455,-1.4515,-1.4726,-1.523,0.0,0.0,0.0,0.0,0.0,-1.747,-1.7647,-1.7706,-1.7706,-1.7706,-1.7784,-1.794,-1.794,-1.794,-1.8018,-1.833,-1.8291,-1.8037,-1.833,-1.8291,-1.8008,-1.8008,-1.8008,-1.8008,0.0,0.0,0.0,0.0,0.0,0.0,0.0,0.0,0.0,0.0,0.0,0.0,0.0,0.0,0.0,0.0,0.0,0.0,0.0,0.0,0.0,0.0,0.0,0.0,0.0,0.0,0.0,0.0,0.0,0.0,0.0,0.0,-1.3219,-1.2981,-1.2949,-1.3068,-1.341,-1.3672,-1.3966,-1.4315,-1.4593,-1.4775,-1.4879,-1.4832,-1.4766,-1.4706,-1.4659,-1.4862,-1.5185,-1.528,-1.5481,-1.5959,-1.5878,-1.6006,-1.6188,-1.6188,-1.6316,-1.6574,-1.6574,-1.6574,-1.673,-1.6635,-1.6587,-1.6579,-1.6484,-1.6444,-1.6381,-1.5777,-1.5475,-1.538,-1.5284,-1.503,-1.4704,0.0,0.0,0.0,0.0,0.0,0.0,0.0,0.0,0.0,0.0,-1.3511,-1.3511,-1.3511,-1.3511,-1.3761,-1.4446,-1.4515,-1.4744,-1.5313,0.0,0.0,0.0,0.0,-1.7529,-1.747,-1.7725,-1.7794,-1.7657,-1.7647,-1.788,-1.8153,-1.8153,-1.8309,-1.8555,-1.8799,-1.8769,-1.8564,-1.8809,-1.8662,-1.8271,-1.8271,-1.8164,-1.8008,-1.8008,-1.8008,-1.8008,-1.8008,-1.7852,-1.7617,-1.7441,0.0,0.0,0.0,0.0,0.0,0.0,0.0,0.0,0.0,0.0,0.0,0.0,0.0,0.0,0.0,0.0,0.0,0.0,0.0,0.0,0.0,0.0,0.0,0.0,-1.4629,-1.4246,-1.4205,-1.3808,-1.3648,-1.3982,-1.4347,-1.4697,-1.5038,-1.5268,-1.5399,-1.5381,-1.5444,-1.5286,-1.4956,-1.5098,-1.5262,-1.5449,-1.5619,-1.5881,-1.6237,-1.6237,-1.6319,-1.6409,-1.6409,-1.6492,-1.6566,-1.6566,-1.6648,-1.673,-1.673,-1.673,-1.673,-1.673,-1.673,-1.669,0.0,0.0,0.0,0.0,-1.5554,-1.534,0.0,0.0,0.0,0.0,0.0,0.0,0.0,0.0,0.0,0.0,0.0,-1.3571,-1.3381,-1.3511,-1.3821,-1.4446,-1.4515,-1.4827,0.0,0.0,0.0,-1.6655,-1.7312,-1.7599,-1.7539,-1.7803,-1.7803,-1.7539,-1.7647,-1.7937,-1.8389,-1.8389,-1.8753,-1.9287,-1.9336,-1.9336,-1.9287,-1.9336,-1.9082,-1.8562,-1.8562,-1.8389,-1.8008,-1.8008,-1.8008,-1.8008,-1.8008,-1.8008,-1.7959,-1.7578,0.0,0.0,0.0,0.0,0.0,0.0,0.0,0.0,0.0,0.0,0.0,0.0,0.0,0.0,0.0,0.0,0.0,0.0,0.0,0.0,0.0,0.0,0.0,0.0,-1.5757,-1.5575,-1.6043,-1.5143,-1.4513,-1.472,-1.5078,-1.5419,-1.5705,-1.5777,-1.5723,-1.5506,-1.5794,-1.574,-1.5352,0.0,0.0,0.0,0.0,-1.602,-1.6285,-1.6285,-1.6269,-1.6231,-1.6231,-1.6283,-1.6394,-1.6394,-1.6566,-1.673,-1.673,-1.673,-1.6738,-1.6812,-1.6812,-1.6812,-1.673,-1.654,-1.6222,-1.5864,-1.5737,-1.569,0.0,0.0,0.0,0.0,0.0,0.0,0.0,0.0,0.0,-1.2818,-1.364,-1.3881,-1.2826,-1.364,-1.4387,-1.4506,-1.4515,-1.4708,0.0,0.0,-1.583,-1.6779,-1.7111,-1.7446,-1.7872,-1.7784,-1.7784,-1.7872,-1.7784,-1.8006,-1.8572,-1.8572,-1.8806,-1.9307,-1.9639,-1.9609,-1.9307,-1.9648,-1.9346,-1.8562,-1.8562,-1.8389,-1.8008,-1.8008,-1.8008,-1.8008,-1.8008,-1.8008,-1.7998,-1.792,-1.7891,-1.7871,-1.7793,0.0,0.0,0.0,0.0,0.0,0.0,0.0,0.0,0.0,0.0,0.0,0.0,0.0,0.0,0.0,0.0,0.0,0.0,0.0,0.0,-1.8046,-1.7535,-1.7215,-1.7697,-1.7226,-1.6539,-1.5575,-1.5793,-1.6031,-1.6095,-1.6357,-1.6451,-1.6199,-1.6114,-1.611,-1.63,-1.6199,-1.635,-1.6779,-1.6786,-1.6967,-1.7251,-1.7243,-1.7196,-1.7091,-1.7091,0.0,-1.6648,-1.6648,-1.6648,-1.673,-1.673,-1.673,-1.673,-1.7448,-1.7764,-1.7683,-1.6968,-1.669,-1.6587,-1.623,-1.6103,-1.6055,0.0,0.0,0.0,0.0,0.0,0.0,0.0,0.0,0.0,0.0,-1.3571,-1.3761,-1.307,-1.3571,-1.4139,-1.4446,-1.4689,0.0,0.0,-1.5286,-1.5845,-1.6663,-1.6985,-1.7292,-1.7725,-1.7794,-1.7794,-1.7745,-1.7794,-1.8075,-1.8562,-1.8562,-1.8984,-1.9609,-1.9824,-1.9922,-1.9941,-2.0146,-1.9746,-1.8965,-1.8965,-1.8584,-1.8008,-1.8008,-1.8008,-1.8008,-1.8008,-1.8008,-1.8008,-1.8008,-1.8008,-1.8008,-1.8008,-1.8008,-1.7969,0.0,0.0,0.0,0.0,0.0,0.0,0.0,0.0,0.0,0.0,0.0,0.0,0.0,0.0,-1.9137,0.0,0.0,-1.9061,-1.9515,-1.9039,-1.8813,-1.9022,-1.8715,-1.8117,-1.7363,-1.6801,-1.6782,-1.7635,-1.7493,-1.744,-1.7666,-1.736,-1.7139,-1.7239,-1.6908,-1.6904,-1.7255,-1.7255,-1.743,-1.7612,-1.7612,-1.7613,-1.7525,-1.7358,-1.7183,-1.7,-1.6818,-1.673,-1.673,-1.7123,-1.7367,-1.7448,-1.831,-1.863,-1.863,-1.8158,-1.7448,-1.6714,-1.6532,-1.6468,-1.642,0.0,0.0,0.0,0.0,0.0,0.0,0.0,0.0,0.0,0.0,-1.3511,-1.3511,-1.3511,-1.3631,-1.389,0.0,0.0,0.0,0.0,-1.5287,-1.5886,-1.634,-1.6732,-1.7091,-1.7474,-1.7755,-1.7794,-1.7608,-1.7872,-1.8223,-1.8562,-1.8562,-1.9053,-1.9795,-1.9795,-1.999,-2.0312,-2.0312,-1.9863,-1.916,-1.916,-1.8701,-1.8008,-1.8008,-1.8008,-1.8008,-1.8008,-1.8008,-1.8008,-1.8008,-1.8008,-1.8008,-1.8008,-1.8008,-1.8008,-1.8008,-1.8008,0.0,0.0,0.0,0.0,0.0,0.0,0.0,0.0,0.0,-1.9162,-1.9256,-1.9266,-1.9344,-1.981,-1.9893,-2.0038,-2.0483,-2.028,-2.0167,-2.0256,-1.985,-1.9468,-1.9382,-1.8056,-1.7764,-1.9177,-1.863,-1.8505,-1.8967,-1.8702,-1.8447,-1.8431,-1.8037,-1.7978,-1.8329,-1.8337,-1.8329,-1.8321,-1.8321,-1.8289,-1.8128,-1.769,-1.7568,-1.7836,-1.7292,-1.7114,-1.7204,-1.7917,-1.8318,-1.8559,-1.9265,-1.9502,-1.9502,-1.9502,-1.855,-1.7204,-1.7049,-1.6812,-1.669,0.0,0.0,0.0,0.0,0.0,0.0,0.0,0.0,0.0,0.0,0.0,0.0,0.0,0.0,0.0,0.0,0.0,0.0,-1.4656,-1.4483,-1.4814,-1.5827,-1.6059,-1.6602,-1.7366,-1.7451,-1.7637,-1.794,-1.8008,-1.8223,-1.8562,-1.8562,-1.8896,-1.9355,-1.9355,-1.9385,-1.9434,-1.9434,-1.915,-1.8711,-1.8711,-1.8428,-1.8008,-1.8008,-1.8008,-1.8008,-1.8008,-1.8008,-1.8008,-1.8008,-1.8008,-1.8008,-1.8008,-1.8008,-1.8008,-1.8008,0.0,-1.8269,-1.8269,-1.8539,-1.8808,-1.8808,-1.8942,-1.9075,0.0,0.0,-1.9189,-1.9671,-1.9754,-1.982,-2.0265,-2.0348,-2.0503,-2.0969,-2.1009,-2.111,-2.1511,-2.0904,-2.0682,-2.1344,-2.0032,-1.9107,-1.9256,-1.9186,-1.9252,-1.9525,-1.9507,-1.9758,-2.044,-2.0434,-2.0631,-2.1193,-2.1203,-2.0846,-2.0039,-2.0039,-1.9877,-1.9465,-1.8637,-1.8704,-1.9707,-1.8768,-1.8559,-1.9018,-1.9097,-1.958,-2.0226,-2.0304,-2.0382,-2.0382,-2.0382,-1.9825,-1.8948,-1.8158,-1.7367,-1.673,0.0,0.0,0.0,0.0,0.0,0.0,0.0,0.0,0.0,0.0,0.0,0.0,0.0,0.0,0.0,0.0,0.0,0.0,-1.4843,-1.4715,-1.5081,-1.5923,-1.5943,-1.6234,-1.678,-1.7181,-1.7395,-1.7494,-1.7813,-1.8105,-1.8271,-1.8271,-1.8496,-1.8906,-1.8906,-1.9053,-1.9287,-1.9287,-1.9033,-1.8562,-1.8562,-1.8389,-1.8008,-1.8008,-1.8008,-1.8008,-1.8008,-1.8008,0.0,0.0,-1.8008,-1.8008,-1.8008,-1.8008,-1.8008,-1.8008,-1.8144,0.0,-1.8539,-1.8674,0.0,0.0,-1.9272,-1.9536,-1.9536,-1.9675,-1.9913,-2.011,-2.0151,-2.0286,-2.0741,-2.0824,-2.0979,0.0,-2.1518,-2.159,-2.1776,-2.1492,-2.1405,-2.1731,-2.1165,-2.0769,-2.0769,-2.0294,-2.0399,-2.1232,-2.0991,-2.1125,-2.1712,-2.1466,-2.1414,-2.1686,-2.1695,-2.1248,-2.0348,-2.0339,-2.018,-2.0018,-1.9449,-1.9704,-2.0651,-1.976,-1.9569,-1.9982,-1.9982,-2.0459,-2.1252,-2.1252,-2.1252,-2.1252,-2.1252,-2.0769,-1.9904,-1.9027,-1.855,-1.8158,0.0,0.0,0.0,0.0,0.0,0.0,0.0,0.0,0.0,0.0,0.0,0.0,0.0,0.0,0.0,0.0,0.0,0.0,0.0,-1.5088,-1.533,-1.5869,-1.5768,-1.5911,-1.6326,-1.6782,-1.7006,-1.6983,-1.7434,-1.7656,-1.7656,-1.7783,-1.7998,-1.8291,-1.8418,-1.8633,-1.8936,-1.8936,-1.875,-1.8467,-1.8467,-1.8281,-1.8008,-1.8008,-1.8008,-1.8076,-1.8008,-1.8008,0.0,0.0,-1.8076,-1.8076,-1.8144,-1.8144,-1.8144,-1.8144,-1.8269,-1.8472,-1.8808,0.0,0.0,-1.9261,-1.9603,-1.9944,-1.9944,-2.0193,-2.0462,-2.0586,-2.0617,-2.0762,-2.1217,-2.13,-2.1414,-2.1745,-2.1807,-2.1807,-2.1807,-2.1807,-2.1807,-2.1807,-2.1807,-2.1807,-2.1807,-2.1252,-2.1338,-2.2567,-2.2301,-2.2393,-2.2948,-2.2679,-2.2492,-2.2492,-2.2492,-2.1863,-2.0701,-2.0962,-2.0962,-2.0701,-2.0429,-2.0851,-2.1931,-2.1081,-2.0779,-2.0857,-2.0857,-2.1252,-2.1807,-2.1807,-2.1807,-2.1807,-2.1807,-2.1405,-2.0779,-2.0207,-1.9737,-1.9186,0.0,0.0,0.0,0.0,0.0,0.0,0.0,0.0,0.0,0.0,0.0,0.0,0.0,0.0,0.0,0.0,0.0,0.0,0.0,-1.5313,-1.542,-1.543,-1.543,-1.5635,-1.6074,-1.6154,-1.6318,-1.6685,-1.6704,-1.6714,-1.6777,-1.7207,-1.7412,-1.7441,-1.7842,-1.8037,-1.8047,-1.8047,-1.8037,-1.8027,-1.8027,-1.8018,-1.8008,-1.8008,-1.8144,-1.8269,-1.8076,0.0,0.0,0.0,-1.8269,-1.8337,-1.8414,-1.8482,0.0,-1.8482,-1.8607,0.0,0.0,0.0,-1.9737,-1.9806,-2.0069,-2.04,-2.04,-2.041,-2.0555,-2.1,-2.1093,-2.1238,-2.1694,-2.1787,-2.1787,-2.1807,-2.1807,-2.1807,-2.1807,-2.1807,-2.1807,-2.1807,-2.1807,-2.1807,0.0,-2.1807,-2.218,-2.3101,-2.3174,-2.3495,-2.4382,-2.4444,-2.4454,-2.4454,-2.4454,-2.356,-2.1695,-2.257,-2.257,-2.1695,-2.1686,-2.2438,-2.3763,-2.2835,-2.2164,-2.1731,-2.1731,-2.1807,-2.1807,-2.1807,-2.1807,-2.1807,-2.1807,-2.1807,-2.1731,-2.1721,-2.0692,-1.9335,0.0,0.0,0.0,0.0,0.0,0.0,0.0,0.0,0.0,0.0,0.0,0.0,0.0,0.0,0.0,0.0,0.0,0.0,0.0,-1.5303,-1.541,-1.541,-1.541,-1.5478,-1.5625,-1.5918,-1.6194,-1.6289,-1.6592,-1.6665,-1.6675,-1.6885,-1.6953,-1.6953,-1.71,-1.7158,-1.7158,-1.7158,-1.7158,-1.7158,-1.7158,-1.7158,-1.7187,-1.748,-1.7721,-1.7873,0.0,0.0,0.0,0.0,0.0,0.0,-1.8674,0.0,-1.9187,-1.8808,-1.8751,-1.8946,0.0,0.0,-1.9831,-2.0131,-2.0545,-2.0886,-2.0886,-2.1124,-2.13,-2.1145,-2.1114,-2.1073,-2.0917,-2.1145,-2.1352,-2.1352,-2.1611,-2.1807,-2.1807,-2.1807,-2.1807,-2.1807,-2.1807,0.0,0.0,0.0,0.0,-2.3143,-2.3474,-2.3908,-2.4509,-2.454,-2.454,-2.454,-2.454,-2.3917,-2.2658,-2.2921,-2.2921,-2.2658,-2.329,-2.3533,-2.3412,-2.3101,-2.2532,-2.1807,-2.1807,-2.1807,-2.1807,-2.1807,-2.1807,-2.1807,-2.1807,-2.1807,-2.1807,-2.1807,-2.1405,-2.0847,0.0,0.0,0.0,0.0,0.0,0.0,0.0,0.0,0.0,0.0,0.0,0.0,0.0,0.0,0.0,0.0,0.0,0.0,0.0,0.0,-1.5362,-1.541,-1.541,-1.541,-1.541,-1.5684,-1.583,-1.583,-1.6113,-1.626,-1.626,-1.6426,-1.6494,-1.6494,-1.666,-1.6665,-1.6665,-1.6665,-1.6826,-1.6953,-1.6797,-1.6816,-1.7027,-1.7229,-1.7397,0.0,0.0,0.0,0.0,0.0,0.0,0.0,0.0,-1.9386,-1.9704,-1.9386,-1.9178,-1.925,-1.9675,-1.9996,-2.0317,-2.0596,-2.1021,-2.1362,-2.1362,-2.1466,-2.1476,-2.1176,-2.0979,-2.0772,-2.0483,-2.0669,-2.0866,-2.0866,-2.1259,-2.1559,-2.1559,-2.1694,-2.1807,-2.1807,-2.1807,-2.1983,0.0,0.0,0.0,-2.3401,-2.3712,-2.4074,-2.4519,-2.454,-2.454,-2.454,-2.454,-2.409,-2.3096,-2.3454,-2.3637,-2.3637,-2.4176,-2.4157,-2.3422,-2.3267,-2.277,-2.2045,-2.188,-2.1807,-2.1807,-2.1807,-2.1807,-2.1807,-2.1807,-2.1807,-2.1807,-2.1807,-2.1807,-2.1721,0.0,0.0,0.0,0.0,0.0,0.0,0.0,0.0,0.0,0.0,0.0,0.0,0.0,0.0,0.0,0.0,0.0,0.0,0.0,0.0,0.0,-1.541,-1.541,-1.541,-1.541,-1.541,-1.541,-1.541,-1.541,-1.541,-1.542,-1.584,-1.6086,-1.6105,-1.6475,-1.6597,-1.6597,-1.6597,-1.6904,-1.7246,-1.6836,-1.7032,-1.7466,-1.709,0.0,0.0,0.0,0.0,0.0,0.0,0.0,0.0,0.0,0.0,-2.0042,-2.0042,-1.9924,-1.9768,-1.9858,-2.0441,-2.1124,-2.1145,-2.1476,-2.1797,-2.1776,-2.1424,-2.1104,-2.1052,-2.07,-2.0379,0.0,0.0,-2.0389,-2.0389,-2.0793,-2.1114,-2.1114,-2.1507,-2.1807,0.0,0.0,0.0,0.0,0.0,0.0,-2.3877,0.0,-2.4095,-2.4519,-2.454,-2.454,-2.454,-2.454,-2.409,-2.3183,-2.409,-2.454,-2.454,-2.454,-2.4312,-2.3857,-2.3401,-2.2936,-2.247,-2.2004,-2.1807,-2.1807,-2.1807,-2.1807,-2.1807,-2.1807,-2.1807,-2.1807,-2.1807,-2.1807,-2.1807,0.0,0.0,0.0,0.0,0.0,0.0,0.0,0.0,0.0,0.0,0.0,0.0,0.0,0.0,0.0,0.0,0.0,0.0,0.0,0.0,0.0,0.0,0.0,0.0,0.0,0.0,0.0,0.0,0.0,-1.541,-1.541,-1.5527,-1.5576,-1.5586,-1.5693,-1.5752,-1.5752,-1.5752,-1.588,-1.6108,0.0,-1.6138,-1.6377,0.0,0.0,0.0,0.0,0.0,0.0,0.0,0.0,0.0,0.0,0.0,-1.933,-1.933,-1.9599,-1.99,-2.0162,-2.0679,-2.1197,-2.1538,-2.1714,-2.1714,-2.1373,-2.1197,-2.0928,-2.0245,-2.0017,-1.982,0.0,0.0,0.0,-1.9934,-2.0596,0.0,-2.1114,-2.1507,0.0,-2.1807,0.0,-2.2501,-2.2967,-2.3432,0.0,0.0,-2.4374,-2.4416,-2.4444,-2.454,-2.454,-2.454,-2.454,-2.4368,-2.4186,-2.4368,-2.454,-2.454,-2.454,-2.4312,-2.3857,-2.3401,-2.2936,-2.247,-2.2004,-2.1807,-2.1807,-2.1807,-2.1807,-2.1807,-2.1807,-2.1807,-2.1807,-2.1807,-2.1807,-2.1807,0.0,0.0,0.0,0.0,0.0,0.0,0.0,0.0,0.0,0.0,0.0,0.0,0.0,0.0,0.0,0.0,0.0,0.0,0.0,0.0,0.0,0.0,0.0,0.0,0.0,0.0,0.0,0.0,0.0,0.0,0.0,-1.541,-1.541,-1.541,-1.541,-1.541,-1.541,-1.541,0.0,0.0,0.0,0.0,0.0,0.0,0.0,0.0,0.0,0.0,0.0,0.0,0.0,-1.9275,-1.9651,-1.9673,-1.956,-1.9772,0.0,-2.0151,-2.0607,-2.1062,-2.1476,-2.1745,-2.1652,-2.1435,-2.1176,-2.0803,-2.0379,-1.9862,-1.9671,0.0,0.0,0.0,0.0,0.0,0.0,0.0,-2.0783,-2.1207,-2.158,0.0,-2.2211,0.0,-2.3143,-2.3608,-2.4064,0.0,-2.454,-2.454,-2.454,-2.454,-2.454,-2.454,-2.454,-2.454,-2.454,-2.454,-2.454,-2.454,-2.454,-2.4405,-2.4157,-2.3701,-2.3236,-2.277,-2.2304,-2.1994,-2.1807,-2.1807,-2.1807,-2.1807,-2.1807,-2.1807,-2.1807,-2.1807,-2.1807,-2.1807,0.0,0.0,0.0,0.0,0.0,0.0,0.0,0.0,0.0,0.0,0.0,0.0,0.0,0.0,0.0,0.0,0.0,0.0,0.0,0.0,0.0,0.0,0.0,0.0,0.0,0.0,0.0,0.0,0.0,0.0,0.0,0.0,0.0,0.0,0.0,0.0,0.0,0.0,0.0,0.0,0.0,0.0,0.0,0.0,0.0,0.0,0.0,0.0,0.0,0.0,-1.8247,-1.9174,-1.9228,-1.9532,-1.9987,-2.053,-2.0546,-2.0524,-2.099,-2.1455,-2.1807,-2.1807,-2.1455,-2.1093,-2.1041,-2.0369,-1.9806,-1.9744,0.0,-1.9075,-1.9075,-1.9075,-1.9075,-1.9075,0.0,-1.9913,-2.0358,-2.0824,-2.128,-2.1745,-2.2273,-2.2749,-2.3153,-2.366,-2.4126,-2.4509,-2.454,-2.454,-2.454,-2.454,-2.454,-2.454,-2.454,-2.454,-2.454,-2.454,-2.454,-2.454,-2.454,-2.454,-2.4529,-2.4084,-2.366,-2.3246,-2.2718,-2.2273,-2.189,-2.1828,-2.1849,-2.1901,-2.1901,-2.1932,-2.1994,-2.1994,-2.1952,-2.1901,0.0,0.0,0.0,0.0,0.0,0.0,0.0,0.0,0.0,0.0,0.0,0.0,0.0,0.0,0.0,0.0,0.0,0.0,0.0,0.0,0.0,0.0,0.0,0.0,0.0,0.0,0.0,0.0,0.0,0.0,0.0,0.0,0.0,0.0,0.0,0.0,0.0,0.0,0.0,0.0,0.0,0.0,0.0,0.0,0.0,0.0,0.0,0.0,0.0,0.0,-1.722,-1.8093,-1.8448,-1.8626,-1.8856,-1.9714,-2.0219,-2.0524,-2.099,-2.1455,-2.1807,-2.1807,-2.1455,-2.101,-2.0627,-2.0141,0.0,0.0,0.0,-1.9075,-1.9075,-1.9075,0.0,-1.9075,0.0,0.0,0.0,0.0,-2.128,0.0,0.0,0.0,0.0,0.0,0.0,0.0,-2.454,-2.454,-2.454,-2.454,-2.454,-2.454,-2.454,-2.454,-2.454,-2.454,-2.454,-2.454,-2.454,-2.454,-2.4529,-2.4084,-2.3836,-2.3712,-2.2863,-2.2449,-2.2346,-2.1963,-2.2035,-2.2377,-2.2377,-2.2615,-2.2946,-2.2946,-2.2708,-2.2377,0.0,0.0,0.0,0.0,0.0,0.0,0.0,0.0,0.0,0.0,-1.1261,-1.2089,0.0,0.0,0.0,0.0,0.0,0.0,0.0,0.0,0.0,0.0,0.0,0.0,0.0,0.0,0.0,0.0,0.0,0.0,0.0,0.0,0.0,0.0,0.0,0.0,0.0,0.0,0.0,0.0,0.0,0.0,0.0,0.0,0.0,0.0,0.0,0.0,0.0,0.0,-1.6674,-1.7108,-1.7543,-1.8009,-1.8516,-1.9199,-1.9882,-2.0524,-2.099,-2.128,-2.1445,-2.1445,-2.1209,-2.0903,-2.0669,0.0,0.0,0.0,0.0,-1.9649,-1.9649,0.0,0.0,0.0,0.0,0.0,0.0,0.0,0.0,0.0,0.0,0.0,0.0,0.0,0.0,-2.4519,-2.454,-2.454,-2.454,-2.454,-2.454,-2.454,-2.454,-2.454,-2.454,-2.454,-2.454,-2.454,-2.454,-2.454,-2.4444,-2.4322,-2.4095,-2.3857,-2.3412,-2.308,-2.2842,-2.2615,-2.2656,-2.2853,-2.2853,-2.2987,-2.3184,-2.3184,-2.2894,-2.2501,0.0,0.0,0.0,0.0,0.0,0.0,0.0,-0.9427,-0.9839,-0.9839,-1.0,-1.0591,-1.1743,-1.2375,0.0,0.0,0.0,0.0,0.0,0.0,0.0,0.0,0.0,0.0,0.0,0.0,0.0,0.0,0.0,0.0,0.0,0.0,0.0,0.0,0.0,0.0,0.0,0.0,0.0,0.0,0.0,0.0,0.0,0.0,0.0,0.0,0.0,0.0,0.0,0.0,-1.6384,-1.6493,-1.6894,-1.7612,-1.8396,-1.8944,-1.9708,-2.0396,-2.0814,-2.0969,-2.0969,-2.0969,-2.0773,-2.0625,-2.076,-2.084,0.0,0.0,-2.0677,-2.0291,-2.0291,0.0,0.0,0.0,0.0,0.0,0.0,0.0,0.0,0.0,0.0,0.0,0.0,0.0,0.0,-2.4509,-2.454,-2.454,-2.454,-2.454,-2.454,-2.454,-2.454,-2.454,-2.454,-2.454,-2.454,-2.454,-2.454,-2.454,-2.454,-2.454,-2.4353,-2.4012,-2.3919,-2.367,-2.3329,-2.3225,-2.3246,-2.3339,-2.3339,-2.3391,-2.3474,-2.3474,-2.3122,-2.2646,0.0,0.0,0.0,0.0,0.0,0.0,0.0,-0.9453,-0.9606,-0.9606,-0.9627,-0.9702,-0.9851,-1.0974,0.0,0.0,0.0,0.0,0.0,0.0,0.0,0.0,0.0,0.0,0.0,0.0,0.0,0.0,0.0,0.0,0.0,0.0,0.0,0.0,0.0,0.0,0.0,0.0,0.0,0.0,0.0,0.0,0.0,0.0,0.0,0.0,0.0,0.0,0.0,0.0,0.0,-1.6488,-1.6998,-1.7513,-1.81,-1.8877,0.0,0.0,-2.0396,-2.0483,-2.0483,-2.0483,-2.0191,-2.0023,-2.0625,0.0,0.0,-2.0996,-2.106,-2.0996,-2.0996,-2.0933,0.0,0.0,0.0,0.0,0.0,0.0,0.0,0.0,0.0,0.0,0.0,0.0,0.0,-2.4509,-2.454,-2.454,-2.454,-2.454,-2.454,-2.454,-2.454,-2.454,-2.454,-2.454,-2.454,-2.454,-2.454,-2.454,-2.454,-2.454,-2.4519,-2.4457,-2.4053,-2.3857,-2.3784,-2.336,-2.3432,-2.3815,-2.3815,-2.4064,-2.4416,-2.4416,-2.3867,-2.3192,0.0,0.0,0.0,0.0,0.0,0.0,0.0,-0.9541,-0.9614,-0.9614,-0.9614,-0.9614,-0.9614,-1.006,-1.0562,0.0,0.0,0.0,0.0,0.0,0.0,0.0,0.0,0.0,0.0,0.0,0.0,0.0,0.0,0.0,0.0,0.0,0.0,0.0,0.0,0.0,0.0,0.0,0.0,0.0,0.0,0.0,0.0,0.0,0.0,0.0,0.0,0.0,0.0,0.0,0.0,0.0,-1.7045,-1.7556,0.0,0.0,-1.9419,-1.9944,-1.9767,-1.9876,-1.9955,-1.9686,-1.9807,-2.0126,-2.085,0.0,0.0,-2.2187,-2.2002,-2.1678,-2.1678,-2.1365,-2.0996,0.0,0.0,0.0,0.0,0.0,0.0,0.0,0.0,0.0,0.0,0.0,0.0,-2.4488,-2.454,-2.454,-2.454,-2.454,-2.454,-2.454,-2.454,-2.454,-2.454,-2.454,-2.454,-2.454,-2.454,-2.454,-2.454,-2.454,-2.454,-2.4529,-2.4353,-2.4281,-2.426,-2.4084,-2.4115,-2.4271,-2.4829,-2.5103,-2.5348,-2.5841,-2.5555,-2.4871,0.0,0.0,0.0,0.0,0.0,0.0,-0.9585,-0.9614,-0.9614,-0.9614,-0.9614,-0.9614,-0.9614,-0.9614,-0.9709,-0.9936,0.0,0.0,0.0,0.0,0.0,0.0,0.0,0.0,0.0,0.0,0.0,-1.4231,-1.4951,0.0,0.0,0.0,0.0,0.0,0.0,0.0,0.0,0.0,0.0,0.0,0.0,0.0,0.0,0.0,0.0,0.0,0.0,0.0,0.0,0.0,0.0,0.0,0.0,0.0,0.0,0.0,-1.9426,-1.9983,-1.9266,-1.9394,-1.953,-1.9017,-1.9251,-1.9792,0.0,0.0,-2.199,-2.2689,-2.2433,-2.2175,-2.2359,-2.1877,-2.1376,0.0,0.0,0.0,0.0,0.0,0.0,0.0,0.0,0.0,0.0,0.0,-2.3712,-2.4402,-2.454,-2.454,-2.454,-2.454,-2.454,-2.454,-2.454,-2.454,-2.454,-2.454,-2.454,-2.454,-2.454,-2.454,-2.454,-2.454,-2.454,-2.454,-2.454,-2.4615,-2.4861,-2.4861,-2.5031,-2.5359,-2.5913,-2.6152,-2.6224,-2.6723,-2.6528,-2.593,0.0,0.0,0.0,0.0,0.0,0.0,0.0,-0.9614,-0.9614,-0.9614,-0.9614,-0.9614,-0.9614,-0.9614,-0.9614,-0.9621,0.0,0.0,0.0,0.0,0.0,0.0,0.0,0.0,0.0,0.0,-1.3184,-1.3502,-1.4172,-1.4529,-1.4529,-1.5313,0.0,0.0,0.0,0.0,0.0,0.0,0.0,0.0,0.0,0.0,0.0,0.0,0.0,0.0,0.0,0.0,0.0,0.0,0.0,0.0,0.0,0.0,0.0,0.0,-1.9586,-2.0239,-1.8966,-1.9015,-1.926,-1.8574,-1.8382,-1.8689,0.0,0.0,-2.1313,-2.1978,-2.2101,-2.2298,-2.2944,-2.2555,-2.2113,-2.2113,-2.2113,0.0,0.0,0.0,0.0,0.0,0.0,0.0,0.0,0.0,-2.4053,-2.4509,-2.454,0.0,-2.454,-2.454,-2.454,-2.454,-2.454,-2.454,-2.454,-2.454,-2.454,-2.454,-2.454,-2.454,-2.454,-2.454,-2.454,-2.454,-2.454,-2.502,-2.583,-2.583,-2.6318,-2.7069,-2.7069,-2.7069,-2.7082,-2.6713,-2.6294,-2.5949,0.0,0.0,0.0,0.0,0.0,0.0,0.0,-0.9614,-0.9614,-0.9614,-0.9614,-0.9614,-0.9614,-0.9614,-0.9614,-0.9614,0.0,0.0,0.0,0.0,0.0,0.0,0.0,0.0,0.0,0.0,-1.2626,-1.2476,-1.3217,-1.3943,-1.4529,-1.4932,-1.542,-1.5856,0.0,0.0,0.0,0.0,0.0,0.0,0.0,0.0,0.0,0.0,0.0,0.0,0.0,0.0,0.0,0.0,0.0,0.0,0.0,0.0,0.0,0.0,0.0,0.0,-1.9608,-1.9723,-1.9918,-1.9326,-1.9443,-1.9907,-2.0734,-2.1357,-2.199,-2.2628,-2.2433,-2.2163,-2.2372,-2.1865,-2.1553,-2.2051,-2.1741,0.0,0.0,0.0,0.0,0.0,0.0,0.0,0.0,0.0,-2.4064,-2.4509,-2.454,-2.454,-2.454,-2.454,-2.454,-2.454,-2.454,-2.454,-2.454,-2.454,-2.454,-2.454,-2.4229,-2.4084,-2.4074,-2.3764,-2.4094,-2.4949,-2.4949,-2.5617,-2.6648,-2.6648,-2.6812,-2.7116,-2.7478,-2.7663,-2.7669,-2.7889,-2.774,-2.7398,0.0,0.0,0.0,0.0,0.0,0.0,0.0,-0.9614,-0.9614,-0.9614,-0.9614,-0.9614,-0.9614,-0.9614,-0.9614,-0.9614,0.0,0.0,0.0,0.0,0.0,0.0,0.0,0.0,0.0,-1.1225,-1.1632,-1.1596,-1.2514,-1.3293,-1.3923,-1.4442,-1.4864,-1.5303,-1.5652,0.0,0.0,0.0,0.0,0.0,0.0,0.0,-1.4997,0.0,0.0,0.0,0.0,0.0,0.0,0.0,0.0,0.0,0.0,0.0,0.0,0.0,-1.96,0.0,0.0,-2.0108,-2.0297,-1.9748,-1.979,0.0,0.0,-2.1391,-2.1995,-2.2579,-2.2372,-2.2175,-2.2433,-2.1753,-2.1313,-2.199,-2.1553,0.0,0.0,0.0,0.0,0.0,0.0,0.0,0.0,-2.3265,-2.3546,-2.3991,-2.4033,-2.4033,-2.4033,-2.4033,-2.4033,-2.4033,-2.4198,-2.4209,-2.4033,-2.4033,-2.4033,-2.4022,-2.3753,-2.3773,-2.4069,-2.3773,-2.4266,-2.5327,-2.5327,-2.5973,0.0,-2.7132,-2.7278,-2.7723,-2.801,-2.8188,-2.8201,-2.832,-2.8267,-2.8097,0.0,0.0,0.0,0.0,0.0,0.0,0.0,0.0,0.0,0.0,-0.9614,-0.9614,-0.9614,-0.9614,-0.9614,0.0,0.0,0.0,0.0,0.0,0.0,0.0,0.0,0.0,0.0,-1.0067,-1.0481,-1.0902,-1.1888,-1.2537,-1.2934,-1.3768,-1.4154,-1.4204,-1.4991,-1.5352,-1.541,-1.6077,-1.6374,-1.6384,-1.6384,-1.5825,0.0,0.0,0.0,0.0,0.0,0.0,0.0,0.0,0.0,0.0,0.0,0.0,0.0,0.0,0.0,0.0,0.0,0.0,0.0,0.0,0.0,0.0,0.0,-2.0877,0.0,-2.2018,-2.2077,-2.2298,-2.2944,-2.1939,-2.125,-2.1916,0.0,0.0,0.0,0.0,0.0,0.0,0.0,0.0,0.0,-2.2647,-2.2766,-2.3234,-2.3265,-2.3265,-2.3265,-2.3265,-2.3254,-2.3213,-2.3639,-2.367,-2.3194,-2.3184,-2.3184,-2.3184,-2.3234,-2.3583,-2.4255,-2.4301,-2.477,-2.5512,-2.5589,-2.6212,-2.7162,-2.7162,-2.7754,-2.8567,-2.8541,-2.8587,-2.8523,-2.8195,-2.8058,-2.798,0.0,0.0,0.0,0.0,0.0,0.0,0.0,0.0,0.0,0.0,0.0,-0.9614,-0.9614,-0.9614,0.0,0.0,0.0,0.0,0.0,0.0,0.0,0.0,0.0,0.0,0.0,-0.9645,-0.9721,-0.9855,-1.0609,-1.1408,-1.2265,-1.3118,-1.3743,-1.4204,-1.4579,-1.4942,-1.541,-1.5594,-1.5951,-1.6384,-1.6384,-1.5825,0.0,0.0,0.0,0.0,-1.3621,-1.3683,0.0,0.0,0.0,0.0,0.0,0.0,0.0,0.0,-1.9482,-1.989,-2.0378,0.0,-2.0722,-2.0976,0.0,0.0,0.0,0.0,0.0,0.0,0.0,0.0,0.0,0.0,0.0,0.0,0.0,0.0,0.0,0.0,0.0,0.0,0.0,0.0,-2.2762,-2.2882,-2.315,-2.3625,-2.3668,-2.3668,-2.3668,-2.3668,-2.3499,-2.3139,-2.3234,-2.3255,-2.3184,-2.3184,-2.3184,-2.3184,-2.3434,-2.3632,-2.3864,-2.4063,-2.483,-2.5979,-2.6103,-2.6944,-2.8109,-2.8217,-2.835,-2.8541,-2.8331,-2.8247,-2.8169,-2.7806,-2.7665,-2.7639,0.0,0.0,0.0,0.0,0.0,0.0,0.0,0.0,0.0,0.0,0.0,0.0,0.0,0.0,0.0,0.0,0.0,0.0,0.0,0.0,0.0,0.0,0.0,0.0,-0.9366,-0.9512,-0.956,-0.9446,-1.0399,-1.1083,-1.1556,-1.2613,-1.3127,-1.3245,-1.3784,-1.4401,-1.5001,-1.5294,-1.5594,-1.5941,-1.6023,0.0,0.0,0.0,0.0,0.0,-1.3621,-1.3621,0.0,-1.4286,-1.4934,-1.5731,0.0,0.0,0.0,0.0,-1.9444,-1.9758,-2.0305,-2.0636,-2.086,-2.1096,-2.0945,-2.0923,0.0,0.0,0.0,0.0,0.0,0.0,0.0,0.0,0.0,0.0,0.0,0.0,0.0,0.0,0.0,0.0,0.0,0.0,0.0,-2.2785,-2.2892,-2.3158,-2.3168,-2.3168,-2.3168,-2.3168,-2.3195,-2.3286,-2.2928,-2.2836,-2.2856,-2.3147,-2.3369,-2.3358,-2.3913,-2.43,-2.468,-2.4813,-2.5503,-2.6528,-2.6669,-2.7125,-2.7921,-2.7978,-2.8022,-2.8066,-2.7906,-2.779,-2.7832,-2.7574,-2.7523,-2.7523,0.0,0.0,0.0,0.0,0.0,0.0,0.0,0.0,0.0,0.0,0.0,0.0,0.0,0.0,0.0,0.0,0.0,0.0,0.0,0.0,0.0,0.0,0.0,-0.963,-0.9229,-0.9501,-0.9502,-0.9239,-1.0479,-1.104,-1.0852,-1.2033,-1.2373,-1.2035,-1.292,-1.3752,-1.435,-1.4874,-1.5235,-1.5429,-1.5523,0.0,0.0,0.0,0.0,0.0,0.0,0.0,0.0,-1.3621,-1.4254,-1.5178,-1.5903,0.0,0.0,0.0,0.0,0.0,-2.0042,-2.0501,-2.0856,-2.0759,-2.0775,-2.0917,0.0,0.0,0.0,0.0,0.0,0.0,0.0,0.0,0.0,0.0,0.0,0.0,0.0,0.0,0.0,0.0,0.0,0.0,-2.2841,-2.2628,-2.2553,-2.2617,-2.2553,-2.2553,-2.2617,-2.2692,-2.2968,-2.3745,-2.3191,-2.2841,-2.2841,-2.3316,-2.3588,-2.3661,-2.4517,-2.5169,-2.5824,-2.5906,-2.6346,-2.7024,-2.7024,-2.7146,-2.7268,-2.7335,-2.7403,-2.7523,-2.7523,-2.7523,-2.7523,-2.7523,-2.7523,-2.7523,0.0,0.0,0.0,0.0,0.0,0.0,0.0,0.0,0.0,0.0,0.0,0.0,0.0,0.0,0.0,0.0,0.0,0.0,0.0,0.0,0.0,0.0,-0.9947,-0.978,-0.9368,-0.9407,-0.9167,-0.8574,-0.9726,-1.0214,-1.0105,-1.1262,-1.1878,-1.2035,-1.2522,-1.3103,-1.3692,-1.3743,-1.4401,-1.5371,-1.4998,0.0,0.0,0.0,0.0,0.0,0.0,0.0,0.0,-1.3621,-1.3994,-1.4735,-1.5881,0.0,0.0,0.0,0.0,0.0,-2.0041,-2.0361,-2.0669,-2.0936,-2.068,-2.0476,0.0,0.0,0.0,0.0,0.0,0.0,0.0,0.0,0.0,0.0,0.0,0.0,0.0,0.0,0.0,0.0,0.0,-2.3756,-2.361,-2.3202,-2.3202,-2.3756,-2.3276,-2.3202,-2.3829,-2.3829,-2.4192,-2.5004,-2.4933,-2.4874,-2.4874,-2.3975,-2.3879,-2.4517,-2.524,-2.5673,-2.5812,-2.6496,-2.6875,-2.7024,-2.7214,-2.7268,-2.7335,-2.7403,-2.7469,-2.7523,-2.7523,-2.7523,-2.7523,-2.7523,-2.7523,-2.7523,0.0,0.0,0.0,0.0,0.0,0.0,0.0,0.0,0.0,0.0,0.0,0.0,0.0,0.0,0.0,0.0,0.0,0.0,0.0,0.0,0.0,-0.9999,-0.9824,-0.9637,-0.9406,-0.9398,-0.9189,-0.8741,-0.9726,-1.0277,-1.0403,-1.1464,-1.1969,-1.2035,-1.2401,-1.2736,-1.3042,-1.3329,-1.3918,-1.4506,0.0,0.0,0.0,0.0,0.0,0.0,0.0,0.0,0.0,0.0,-1.3858,-1.4266,-1.5395,0.0,0.0,0.0,0.0,0.0,-2.0293,-2.0549,-2.0677,-2.0836,-2.0604,-2.0501,0.0,0.0,0.0,0.0,0.0,0.0,0.0,0.0,0.0,0.0,0.0,0.0,0.0,0.0,0.0,0.0,0.0,-2.4237,-2.4612,-2.436,-2.4371,-2.4707,-2.4432,-2.436,-2.4707,-2.4719,-2.5075,-2.5861,-2.5523,-2.5652,-2.6483,-2.5545,-2.5252,-2.5615,-2.6389,-2.6744,-2.6744,-2.7121,-2.7268,-2.7268,-2.7403,-2.7403,-2.7403,-2.7469,-2.7523,-2.7523,-2.7523,-2.7523,-2.7523,-2.7523,-2.7523,-2.7523,0.0,0.0,0.0,0.0,0.0,0.0,0.0,0.0,0.0,0.0,0.0,0.0,0.0,0.0,0.0,0.0,0.0,0.0,0.0,0.0,-0.9784,-1.0051,-0.9722,-0.9523,-0.9406,-0.9318,-0.916,-0.8854,-0.9709,-1.0308,-1.0786,-1.1722,-1.2058,-1.1908,-1.2274,-1.2594,-1.2903,-1.3236,-1.3673,-1.4092,0.0,0.0,0.0,0.0,0.0,0.0,0.0,0.0,0.0,0.0,0.0,0.0,0.0,0.0,0.0,-1.8104,-1.9053,-1.9721,-2.0345,-2.0607,-2.0699,-2.0699,0.0,-2.0628,-2.1069,0.0,0.0,0.0,0.0,0.0,0.0,0.0,0.0,0.0,0.0,0.0,0.0,0.0,-2.3283,-2.4122,-2.4353,-2.4707,-2.5281,-2.5298,-2.5382,-2.5511,-2.5382,-2.5382,-2.5523,-2.5594,-2.5931,-2.662,-2.6139,-2.6346,-2.7456,-2.6905,-2.6633,-2.6688,-2.7255,-2.7523,-2.7523,-2.7523,-2.7523,-2.7523,-2.7523,-2.7523,-2.7523,-2.7523,-2.7523,-2.7523,-2.7523,-2.7523,-2.7523,-2.7523,-2.7523,-2.7523,0.0,0.0,0.0,0.0,0.0,0.0,0.0,0.0,0.0,0.0,0.0,0.0,0.0,0.0,0.0,0.0,0.0,0.0,0.0,0.0,-1.0051,-1.0265,-0.9872,-0.962,-0.9406,-0.9096,-0.8754,-0.8455,-0.9207,-0.9932,-1.0629,-1.1447,-1.1747,-1.1543,-1.19,-1.2636,-1.3571,-1.3175,-1.3807,-1.4934,-1.4056,0.0,0.0,0.0,0.0,0.0,0.0,0.0,0.0,0.0,0.0,0.0,0.0,0.0,-1.5811,-1.7448,-1.8429,-1.9107,-1.9695,-2.0244,-2.0699,-2.0699,0.0,0.0,-2.0714,0.0,0.0,0.0,0.0,0.0,0.0,0.0,0.0,0.0,0.0,0.0,0.0,0.0,-2.4584,-2.3917,-2.4778,-2.5428,-2.5478,-2.5347,-2.5581,-2.6277,-2.5721,-2.5594,-2.6277,-2.6346,-2.6633,-2.739,-2.739,-2.739,-2.7523,-2.7456,-2.739,-2.739,-2.7456,-2.7523,-2.7523,-2.7523,-2.7523,-2.7523,-2.7523,-2.7523,-2.7523,-2.7523,-2.7523,-2.7523,-2.7523,-2.7523,-2.7523,-2.7523,-2.7523,-2.7523,0.0,0.0,0.0,0.0,0.0,0.0,0.0,0.0,0.0,0.0,0.0,0.0,0.0,0.0,0.0,0.0,0.0,0.0,0.0,0.0,-1.0102,-1.0265,-0.9719,-0.9393,-0.9398,-0.9072,-0.897,-0.9151,-1.0531,-1.1382,-1.1603,-1.2076,-1.2173,-1.2,-1.2208,-1.2856,-1.3682,-1.3433,-1.3858,-1.4663,-1.4052,-1.4097,0.0,0.0,0.0,0.0,0.0,0.0,0.0,0.0,-1.4093,-1.4176,0.0,-1.5242,-1.5784,-1.7072,-1.8151,-1.9041,-1.9643,-1.9959,-2.0233,-2.0599,0.0,0.0,0.0,0.0,0.0,0.0,0.0,0.0,0.0,0.0,0.0,0.0,0.0,0.0,-2.3734,-2.4118,-2.4437,-2.4532,-2.4957,-2.5344,-2.5627,-2.5677,-2.5739,-2.6,-2.5804,-2.5739,-2.6,-2.6,-2.6297,-2.6987,-2.7,-2.717,-2.7523,-2.7523,-2.7523,-2.7523,-2.7523,-2.7523,-2.7523,-2.7523,-2.7523,-2.7523,-2.7523,-2.7523,-2.7523,-2.7523,-2.7523,-2.7523,-2.7523,-2.7523,-2.7523,-2.7523,-2.7523,-2.7523,0.0,0.0,0.0,0.0,0.0,0.0,0.0,0.0,0.0,0.0,0.0,0.0,0.0,0.0,0.0,0.0,0.0,0.0,0.0,-1.0041,-1.0159,-1.0152,-0.958,-0.9258,-0.9239,-0.8913,-0.8898,-0.9231,-1.0997,-1.189,-1.194,-1.2354,-1.2536,-1.2444,-1.2598,-1.3194,-1.4037,-1.3922,-1.4169,-1.4646,-1.4231,-1.4158,0.0,0.0,0.0,0.0,0.0,0.0,0.0,0.0,-1.4222,0.0,0.0,0.0,0.0,0.0,-1.7965,-1.8989,-1.9407,-1.9656,-1.9901,0.0,0.0,0.0,0.0,0.0,0.0,0.0,0.0,0.0,0.0,0.0,0.0,0.0,0.0,-2.4054,-2.3793,-2.3982,-2.4256,-2.4661,-2.4857,-2.5118,-2.5511,-2.572,-2.5824,-2.5824,-2.5824,-2.5824,-2.5824,-2.5824,-2.6007,-2.6386,-2.6412,-2.6595,-2.6987,-2.6987,-2.6987,-2.6987,-2.6987,-2.7183,-2.7523,-2.7523,-2.7523,-2.7523,-2.7523,-2.7523,-2.7523,-2.7523,-2.7523,-2.7523,-2.7523,-2.7523,-2.7523,-2.7523,-2.7523,-2.751,0.0,0.0,0.0,0.0,0.0,0.0,0.0,0.0,0.0,0.0,0.0,0.0,0.0,0.0,0.0,0.0,0.0,0.0,-0.9686,-1.0213,-1.0303,-0.9938,-0.9588,-0.9239,-0.8913,-0.8556,-0.8422,-0.843,-1.0152,-1.1121,-1.1318,-1.2126,-1.261,-1.2831,-1.3032,-1.369,-1.4671,-1.4653,-1.4789,-1.5061,-1.458,-1.4373,-1.4373,0.0,0.0,0.0,0.0,0.0,0.0,0.0,-1.4326,-1.4362,0.0,0.0,0.0,-1.6723,-1.7878,-1.8911,-1.8898,-1.9361,0.0,0.0,0.0,0.0,0.0,0.0,0.0,0.0,0.0,0.0,0.0,0.0,0.0,-2.211,-2.3186,-2.3852,-2.3207,-2.3662,-2.4112,-2.4112,-2.4622,-2.5022,-2.5022,-2.5471,-2.5798,-2.5798,-2.5798,-2.5798,-2.5798,-2.5798,-2.5811,-2.5811,-2.5811,-2.5811,-2.5824,-2.5824,-2.5824,-2.5824,-2.5824,-2.6412,-2.751,-2.751,-2.751,-2.751,-2.751,-2.751,-2.751,-2.751,-2.751,-2.751,-2.751,-2.751,-2.751,-2.751,-2.751,-2.7432,0.0,0.0,0.0,0.0,0.0,0.0,0.0,0.0,0.0,0.0,0.0,0.0,0.0,0.0,0.0,0.0,0.0,0.0,-0.9809,-1.0264,-1.0303,-0.9938,-0.9588,-0.9239,-0.8913,-0.8556,-0.8822,-0.9663,-1.0851,-1.1755,-1.2384,-1.2461,-1.2823,-1.3368,-1.3072,-1.36,-1.4707,-1.4551,-1.4718,-1.5061,-1.458,-1.4373,-1.4373,0.0,0.0,0.0,0.0,0.0,0.0,0.0,0.0,0.0,0.0,0.0,0.0,-1.6051,-1.7454,-1.8806,-1.8482,-1.9105,0.0,0.0,0.0,0.0,0.0,0.0,0.0,0.0,0.0,0.0,0.0,0.0,0.0,-2.2742,-2.3197,-2.3571,-2.38,-2.3982,-2.4112,-2.4112,-2.4269,-2.4374,-2.4374,-2.453,-2.4622,-2.4622,-2.4622,-2.4622,-2.4622,-2.4622,-2.4805,-2.521,-2.5223,-2.5419,-2.5824,-2.5824,-2.5824,-2.5824,-2.5824,-2.6007,-2.6321,-2.6321,-2.6321,-2.6321,-2.6321,-2.6321,-2.6321,-2.6321,-2.6321,-2.6321,-2.6321,-2.6321,-2.6321,-2.6321,-2.6321,-2.6308,0.0,0.0,0.0,0.0,0.0,0.0,0.0,0.0,0.0,0.0,0.0,0.0,0.0,0.0,0.0,0.0,0.0,0.0,0.0,0.0,-1.024,-0.9731,-0.9602,-0.9355,-0.8954,-0.8642,-0.9123,-1.0382,-1.1104,-1.1846,-1.256,-1.2638,-1.321,-1.4111,-1.3526,-1.3867,-1.4844,-1.4706,-1.4741,-1.4788,-1.4493,-1.4373,-1.4373,0.0,0.0,0.0,0.0,0.0,0.0,0.0,0.0,0.0,0.0,0.0,0.0,-1.6541,-1.7734,-1.8904,-1.887,0.0,0.0,0.0,0.0,0.0,0.0,0.0,0.0,0.0,0.0,0.0,0.0,-2.1355,0.0,-2.2426,-2.2923,-2.3341,-2.3707,-2.3968,-2.4112,-2.4112,-2.4112,-2.4112,-2.4112,-2.4112,-2.4112,-2.4112,-2.4112,-2.4112,-2.4112,-2.4112,-2.4282,-2.4622,-2.4622,-2.4805,-2.5145,-2.5145,-2.5145,-2.5145,-2.5145,-2.5145,-2.5158,-2.5615,-2.5824,-2.5824,-2.5824,-2.5824,-2.5824,-2.5824,-2.5824,-2.5824,-2.5824,-2.5824,-2.5824,-2.5824,-2.5824,-2.5785,0.0,0.0,0.0,0.0,0.0,0.0,0.0,0.0,0.0,0.0,0.0,0.0,0.0,0.0,0.0,0.0,0.0,0.0,0.0,0.0,-1.0162,-0.9476,-0.9571,-0.9456,-0.9073,-0.8886,-0.94,-1.0731,-1.106,-1.1609,-1.2316,-1.2812,-1.373,-1.4893,-1.4195,-1.4358,-1.5102,-1.506,-1.4777,-1.4373,-1.4373,-1.4373,-1.4373,-1.4373,0.0,0.0,0.0,0.0,0.0,0.0,0.0,0.0,-1.5478,-1.5788,-1.6061,-1.7534,-1.8396,-1.9028,0.0,0.0,0.0,0.0,0.0,0.0,0.0,0.0,0.0,0.0,0.0,0.0,-2.0699,-2.108,-2.1446,-2.1498,-2.2387,-2.308,-2.3132,-2.3616,-2.3981,-2.4021,-2.4034,-2.406,-2.4112,-2.4112,-2.4112,-2.4112,-2.4112,-2.4171,-2.4171,-2.4112,-2.4112,-2.4112,-2.4112,-2.4112,-2.4112,-2.4112,-2.4112,-2.4112,-2.4112,-2.4112,-2.421,-2.5197,-2.5667,-2.573,-2.573,-2.5778,-2.5778,-2.5778,-2.5778,-2.5778,-2.5778,-2.584,-2.584,-2.5778,-2.5778,-2.5761,0.0,0.0,0.0,0.0,0.0,0.0,0.0,0.0,0.0,0.0,0.0,0.0,0.0,0.0,0.0,0.0,0.0,0.0,0.0,0.0,-0.9899,-0.9652,-0.9315,-0.9219,-0.9368,-0.9359,-0.9908,-1.1104,-1.1324,-1.1973,-1.3016,-1.3314,-1.3998,-1.4883,-1.4128,-1.432,-1.5091,-1.4704,-1.4471,-1.4373,-1.4373,-1.4373,-1.4373,-1.4373,-1.4373,0.0,0.0,0.0,0.0,0.0,0.0,0.0,-1.5478,-1.5788,-1.5944,-1.666,-1.7836,-1.8845,0.0,0.0,0.0,0.0,0.0,0.0,0.0,0.0,0.0,0.0,0.0,0.0,-2.0699,-2.0804,-2.0989,-2.1433,-2.1721,-2.2047,-2.2518,-2.2701,-2.2936,-2.3354,-2.3406,-2.3589,-2.4073,-2.4203,-2.4247,-2.4247,-2.4376,-2.4505,-2.4505,-2.4319,-2.4247,-2.4247,-2.4157,-2.4112,-2.4112,-2.4112,-2.4112,-2.4112,-2.4112,-2.4332,-2.4791,-2.4596,-2.4701,-2.5154,-2.5154,-2.5429,-2.5798,-2.5798,-2.5798,-2.5798,-2.5798,-2.5841,-2.5939,-2.5502,-2.5672,-2.5981,0.0,0.0,0.0,0.0,0.0,0.0,0.0,0.0,0.0,0.0,0.0,0.0,0.0,0.0,0.0,0.0,0.0,0.0,0.0,0.0,0.0,-0.9809,-0.9449,-0.9408,-0.9765,-0.9834,-1.0531,-1.1814,-1.1943,0.0,0.0,0.0,0.0,-1.5309,-1.4279,-1.4433,-1.5401,-1.4692,-1.4373,-1.4373,-1.4373,-1.4373,-1.4373,-1.4373,-1.4373,-1.4373,-1.4373,0.0,0.0,0.0,0.0,0.0,0.0,0.0,-1.5969,-1.6966,-1.8054,-1.8917,0.0,0.0,0.0,0.0,0.0,0.0,0.0,0.0,0.0,0.0,0.0,0.0,-2.0699,-2.0699,-2.0804,-2.1054,-2.1328,-2.1616,-2.1983,-2.2325,-2.2614,-2.2957,-2.2984,-2.3102,-2.3431,-2.3808,-2.401,-2.401,-2.4403,-2.462,-2.462,-2.4492,-2.4421,-2.4421,-2.439,-2.4345,-2.4345,-2.4345,-2.4274,-2.4203,-2.4536,-2.5021,-2.5577,-2.4821,-2.4835,-2.537,-2.5104,-2.5314,-2.5783,-2.5783,-2.5837,-2.5877,-2.5877,-2.5972,-2.6026,-2.5494,-2.5494,-2.5714,0.0,0.0,0.0,0.0,0.0,0.0,0.0,0.0,0.0,0.0,0.0,0.0,0.0,0.0,0.0,0.0,0.0,0.0,0.0,0.0,0.0,-0.9809,-0.9627,-0.9725,-1.0196,-1.0312,-1.1065,-1.2574,0.0,0.0,0.0,0.0,0.0,-1.5742,0.0,-1.4628,-1.572,-1.4799,-1.4373,-1.4373,-1.4373,-1.4373,-1.4373,-1.4373,-1.4373,-1.4419,-1.4512,-1.4466,-1.4419,-1.4605,0.0,0.0,0.0,0.0,-1.6205,-1.7686,-1.8479,-1.9041,0.0,0.0,0.0,0.0,0.0,0.0,0.0,0.0,0.0,0.0,0.0,-2.0699,-2.0699,-2.0712,-2.0712,-2.0712,-2.1105,-2.1458,-2.1561,-2.1996,-2.2392,-2.2605,-2.2671,-2.2711,-2.2818,-2.3257,-2.3592,-2.3592,-2.4046,-2.4369,-2.4369,-2.4406,-2.4473,-2.4473,-2.4667,-2.4721,-2.4721,-2.4821,-2.4808,-2.4624,-2.5329,-2.5932,-2.6347,-2.5687,-2.5577,-2.6,-2.5536,-2.5687,-2.6162,-2.6162,-2.6254,-2.6347,-2.6347,-2.6453,-2.6505,-2.5932,-2.5823,-2.5837,0.0,0.0,0.0,0.0,0.0,0.0,0.0,0.0,0.0,0.0,0.0,0.0,0.0,0.0,0.0,0.0,0.0,0.0,-1.0092,0.0,0.0,-0.9376,-0.9572,-0.9941,-1.0505,-1.0544,-1.1294,-1.2858,0.0,0.0,0.0,0.0,0.0,-1.5742,0.0,0.0,-1.572,-1.4799,-1.4373,-1.4373,-1.4373,-1.4373,-1.4373,-1.4373,-1.4373,-1.4466,-1.488,-1.4743,-1.4512,-1.5344,-1.5355,0.0,0.0,0.0,-1.6622,-1.7787,-1.8479,0.0,0.0,0.0,0.0,0.0,0.0,0.0,0.0,0.0,0.0,0.0,-2.0799,-2.0699,-2.0699,-2.0775,-2.0888,-2.0888,-2.0977,-2.1053,-2.1103,-2.1169,-2.1409,-2.1965,-2.2032,-2.2245,-2.2778,-2.3004,-2.3098,-2.3098,-2.3272,-2.3366,-2.3366,-2.3743,-2.397,-2.397,-2.4818,-2.53,-2.53,-2.5769,-2.5972,-2.5957,-2.6573,-2.6901,-2.6953,-2.6864,-2.6849,-2.6901,-2.6849,-2.7137,-2.769,-2.769,-2.774,-2.774,-2.774,-2.7825,-2.786,-2.7246,-2.7479,-2.786,0.0,0.0,0.0,0.0,0.0,0.0,0.0,0.0,0.0,0.0,0.0,0.0,0.0,0.0,0.0,-0.9717,-1.01,-1.0409,-1.0543,-1.0274,-1.0003,-0.9774,-1.0049,-1.039,-1.084,-1.1012,-1.1698,0.0,0.0,0.0,0.0,-1.4373,-1.4897,0.0,0.0,0.0,0.0,0.0,-1.4651,-1.4466,-1.4949,-1.5051,-1.4834,-1.5085,-1.5164,-1.522,-1.54,-1.5355,-1.5266,-1.5656,-1.5656,-1.5623,-1.6293,0.0,0.0,0.0,0.0,0.0,0.0,0.0,0.0,0.0,0.0,0.0,0.0,0.0,0.0,0.0,-2.1131,-2.0848,-2.0848,-2.0911,-2.0974,-2.0974,-2.0997,-2.1033,-2.1082,-2.1082,-2.1225,-2.1578,-2.1619,-2.1726,-2.1995,-2.2369,-2.2609,-2.2609,-2.2986,-2.3189,-2.3189,-2.363,-2.3912,-2.3912,-2.4633,-2.5034,-2.5034,-2.5226,-2.5691,-2.6396,-2.6461,-2.6985,-2.7825,-2.776,-2.766,-2.7575,-2.724,-2.7458,-2.802,-2.802,-2.8054,-2.8088,-2.8088,-2.8186,-2.8235,-2.763,-2.763,-2.7795,0.0,0.0,0.0,0.0,0.0,0.0,0.0,0.0,0.0,0.0,0.0,0.0,0.0,0.0,0.0,0.0,-1.0418,-1.0633,-1.0763,-1.0385,-1.014,-1.0098,-1.0351,-1.0649,-1.0981,-1.1394,0.0,0.0,0.0,0.0,-1.4373,-1.4373,-1.4897,0.0,-1.481,0.0,0.0,0.0,0.0,-1.4651,-1.5534,-1.5623,0.0,0.0,0.0,-1.5908,-1.6008,-1.5964,-1.5888,-1.6095,-1.6193,-1.6303,-1.6766,-1.6997,0.0,0.0,0.0,0.0,0.0,0.0,0.0,0.0,0.0,0.0,0.0,0.0,0.0,0.0,-2.1698,-2.1506,-2.1506,-2.1277,-2.1033,-2.1033,-2.1082,-2.1131,-2.1229,-2.1229,-2.1277,-2.1375,-2.1423,-2.1423,-2.1423,-2.1817,-2.2074,-2.2074,-2.2509,-2.278,-2.2934,-2.34,-2.3772,-2.3872,-2.4523,-2.4917,-2.4917,-2.5062,-2.5586,-2.6447,-2.6255,-2.6781,-2.7888,-2.7793,-2.7682,-2.7567,-2.746,-2.7675,-2.8103,-2.8103,-2.8152,-2.8235,-2.8235,-2.8299,-2.8348,-2.7894,-2.773,-2.768,0.0,0.0,0.0,0.0,0.0,0.0,0.0,0.0,0.0,0.0,0.0,0.0,0.0,-0.983,-1.0398,-1.0792,-1.0847,-1.0701,-1.0367,-0.9971,-0.9851,-1.0088,-1.0118,0.0,-1.0981,-1.1509,0.0,0.0,0.0,0.0,-1.4373,-1.4373,-1.4897,-1.5742,-1.481,-1.4919,-1.5771,0.0,0.0,0.0,0.0,0.0,0.0,0.0,0.0,0.0,0.0,0.0,-1.612,-1.685,-1.7209,-1.7377,0.0,0.0,0.0,0.0,0.0,0.0,0.0,0.0,0.0,0.0,0.0,0.0,0.0,0.0,0.0,0.0,-2.2495,-2.2799,-2.2799,-2.1921,-2.118,-2.118,-2.1277,-2.1375,-2.1375,-2.1375,-2.1375,-2.1423,-2.1423,-2.1423,-2.1423,-2.145,-2.1464,-2.1464,-2.1505,-2.1712,-2.2236,-2.2831,-2.3334,-2.3797,-2.4899,-2.5461,-2.5461,-2.6032,-2.635,-2.6396,-2.6396,-2.6412,-2.6488,-2.6488,-2.6488,-2.6565,-2.7794,-2.8348,-2.8363,-2.8363,-2.8396,-2.8411,-2.8411,-2.8411,-2.8411,-2.8348,-2.8348,-2.8348,0.0,0.0,0.0,0.0,0.0,0.0,0.0,0.0,0.0,0.0,0.0,0.0,0.0,-1.046,-1.0883,-1.147,-1.1266,-1.101,-1.0906,-1.0488,-1.039,-1.0677,-1.0677,-1.1012,-1.1733,-1.1955,0.0,0.0,0.0,-1.3925,-1.4373,-1.4373,-1.4897,-1.5753,-1.5137,-1.535,-1.6266,-1.6056,0.0,0.0,0.0,0.0,0.0,0.0,0.0,0.0,0.0,0.0,0.0,0.0,0.0,0.0,0.0,0.0,0.0,0.0,0.0,0.0,0.0,0.0,0.0,0.0,0.0,0.0,0.0,0.0,0.0,-2.254,-2.254,-2.2618,-2.3246,-2.2785,-2.2282,-2.2282,-2.2328,-2.2249,-2.1949,-2.1902,-2.1793,-2.1423,-2.1423,-2.1423,-2.1423,-2.1423,-2.1423,-2.1423,-2.1423,-2.1616,-2.2184,-2.2708,-2.3178,-2.3689,-2.4354,-2.4709,-2.4709,-2.4955,-2.5272,-2.5703,-2.5703,-2.5933,-2.6349,-2.638,-2.638,-2.638,-2.6888,-2.7119,-2.7119,-2.7119,-2.7119,-2.7103,-2.7072,-2.7088,-2.7119,-2.7119,-2.738,-2.7765,0.0,0.0,0.0,0.0,0.0,0.0,0.0,0.0,0.0,0.0,0.0,0.0,0.0,0.0,-1.1318,-1.1636,-1.1396,-1.1125,-1.1005,-1.0894,-1.096,-1.126,-1.1418,-1.1797,-1.24,-1.2615,0.0,0.0,0.0,0.0,0.0,-1.4651,-1.5137,-1.6008,-1.5775,-1.6097,0.0,0.0,0.0,-1.6814,0.0,0.0,-1.7674,0.0,0.0,0.0,0.0,0.0,0.0,0.0,0.0,0.0,0.0,0.0,0.0,0.0,0.0,0.0,0.0,0.0,0.0,0.0,0.0,0.0,0.0,0.0,0.0,-2.2754,-2.2889,-2.3068,-2.3508,-2.3465,-2.329,-2.2934,-2.2889,-2.2799,-2.2495,-2.2449,-2.2296,-2.1921,-2.1921,-2.1921,-2.1921,-2.1921,-2.1921,-2.1921,-2.1921,-2.2109,-2.2618,-2.2979,-2.3334,-2.3824,-2.4135,-2.4302,-2.4302,-2.4302,-2.4533,-2.4979,-2.4979,-2.521,-2.5641,-2.5672,-2.5672,-2.5641,-2.5672,-2.5949,-2.638,-2.638,-2.638,-2.638,-2.6349,-2.6364,-2.638,-2.638,-2.6672,-2.7057,0.0,0.0,0.0,0.0,0.0,0.0,0.0,0.0,0.0,0.0,0.0,0.0,0.0,0.0,0.0,-1.1306,-1.1256,-1.1095,-1.0691,-1.1105,-1.1521,-1.1844,-1.2278,-1.2648,-1.2953,-1.3477,-1.374,0.0,0.0,0.0,0.0,0.0,-1.5636,-1.6539,-1.665,-1.7089,-1.7697,0.0,-1.8012,-1.8642,0.0,-1.9526,-1.9526,0.0,0.0,0.0,-1.9539,-1.9463,0.0,-1.9386,0.0,0.0,0.0,0.0,0.0,0.0,0.0,0.0,0.0,0.0,0.0,0.0,0.0,0.0,0.0,0.0,0.0,-2.2934,-2.3653,-2.4135,-2.3681,-2.3994,-2.3994,-2.3113,-2.2934,-2.2934,-2.2934,-2.2934,-2.2934,-2.2889,-2.2889,-2.2889,-2.2889,-2.2889,-2.2889,-2.2889,-2.2889,-2.3113,-2.3551,-2.3595,-2.3824,-2.4317,-2.4302,-2.4302,-2.4302,-2.4302,-2.4302,-2.4302,-2.4302,-2.4302,-2.4302,-2.4302,-2.4302,-2.4302,-2.4302,-2.5072,-2.6318,-2.6287,-2.6287,-2.6318,-2.6318,-2.6318,-2.6318,-2.6318,-2.6334,-2.6364,0.0,0.0,0.0,0.0,0.0,0.0,0.0,0.0,0.0,0.0,0.0,0.0,0.0,-1.2362,-1.2733,-1.3011,-1.2658,-1.2392,-1.2253,-1.237,-1.2683,-1.3173,-1.3338,-1.3771,-1.4547,-1.4785,-1.509,0.0,0.0,0.0,0.0,0.0,0.0,0.0,-1.74,-1.8253,-1.9585,-1.8933,0.0,0.0,-1.9378,-1.9526,0.0,0.0,0.0,0.0,0.0,-2.0493,-2.0253,0.0,-2.1299,-2.0793,0.0,0.0,0.0,0.0,0.0,0.0,-2.1326,0.0,0.0,0.0,0.0,0.0,0.0,0.0,0.0,-2.3334,-2.3595,-2.3867,-2.4094,-2.4219,-2.4219,-2.3952,-2.3909,-2.3782,-2.3465,-2.3421,-2.329,-2.2934,-2.2889,-2.2889,-2.2889,-2.2889,-2.2889,-2.2889,-2.2889,-2.3113,-2.3551,-2.3909,-2.4177,-2.4302,-2.4302,-2.4302,-2.4302,-2.4302,-2.4302,-2.4302,-2.4302,-2.4302,-2.4302,-2.4302,-2.4302,-2.4302,-2.4302,-2.4533,-2.4887,-2.4872,-2.4872,-2.4887,-2.4887,-2.4887,-2.4887,-2.4887,-2.5195,-2.561,0.0,0.0,0.0,0.0,0.0,0.0,0.0,0.0,0.0,0.0,0.0,0.0,0.0,0.0,-1.3666,-1.4006,-1.3712,-1.354,-1.3651,-1.3765,-1.4046,-1.4404,-1.4606,-1.5037,-1.555,-1.5635,-1.5837,0.0,0.0,0.0,0.0,0.0,0.0,0.0,0.0,0.0,0.0,0.0,0.0,0.0,-2.0253,0.0,0.0,-2.0373,-2.0511,0.0,0.0,0.0,-2.1258,-2.2412,-2.2203,0.0,0.0,0.0,0.0,0.0,0.0,0.0,0.0,0.0,0.0,0.0,0.0,0.0,-2.2572,-2.2844,-2.329,0.0,-2.3782,-2.3909,-2.3994,-2.4177,-2.4302,-2.4302,-2.4302,-2.4219,-2.3952,-2.3909,-2.3782,-2.3508,-2.3465,-2.3465,-2.3465,-2.3465,-2.3465,-2.3465,-2.3465,-2.3595,-2.3867,-2.4135,-2.4302,-2.4302,-2.4302,-2.4302,-2.4302,-2.4302,-2.4302,-2.4302,-2.4302,-2.4302,-2.4302,-2.4302,-2.4302,-2.4302,-2.4302,-2.4302,-2.4302,-2.4302,-2.4302,-2.4302,-2.4302,-2.4302,-2.4302,-2.4302,-2.4564,-2.4902,0.0,0.0,0.0,0.0,0.0,0.0,0.0,0.0,0.0,0.0,0.0,0.0,0.0,0.0,0.0,0.0,-1.4621,-1.4673,-1.4858,-1.5143,-1.5401,-1.5554,-1.5984,-1.6232,-1.6287,-1.6287,-1.6287,0.0,0.0,0.0,0.0,0.0,0.0,0.0,0.0,0.0,0.0,0.0,0.0,-2.1471,-2.1423,-2.1423,0.0,0.0,-2.1746,-2.2123,-2.231,-2.2263,-2.217,-2.2709,-2.2678,0.0,0.0,0.0,0.0,0.0,-2.1793,0.0,0.0,0.0,0.0,0.0,0.0,0.0,-2.2979,-2.329,-2.3681,-2.3681,-2.3994,-2.4177,-2.3767,-2.4036,-2.4302,-2.4302,-2.4302,-2.4317,-2.4302,-2.4302,-2.4302,-2.4302,-2.4302,-2.4302,-2.4302,-2.4302,-2.4302,-2.4302,-2.4302,-2.4302,-2.4302,-2.4302,-2.4302,-2.4302,-2.4302,-2.4302,-2.4302,-2.4302,-2.4302,-2.4302,-2.4302,-2.4302,-2.4302,-2.4302,-2.4302,-2.4302,-2.4302,-2.4302,-2.4302,-2.4302,-2.4302,-2.4302,-2.4302,-2.4302,-2.4302,-2.4302,-2.4302,-2.4302,0.0,0.0,0.0,0.0,0.0,0.0,0.0,0.0,0.0,0.0,0.0,0.0,0.0,0.0,0.0,0.0,-1.5807,-1.5807,-1.5837,-1.5893,-1.6083,-1.649,-1.6718,-1.6993,-1.7365,-1.7488,-1.757,0.0,0.0,0.0,0.0,0.0,0.0,0.0,0.0,0.0,0.0,0.0,0.0,-2.1996,-2.1568,0.0,-2.2044,-2.2044,-2.231,-2.2754,-2.3201,-2.3068,-2.2754,-2.2844,-2.3113,-2.3201,0.0,0.0,0.0,0.0,0.0,0.0,0.0,0.0,0.0,0.0,0.0,0.0,-2.2934,-2.3551,-2.4177,-2.4177,-2.4219,-2.4261,-2.4177,-2.4219,-2.4302,-2.4302,-2.44,-2.44,-2.4317,-2.4302,-2.4302,-2.4302,-2.4302,-2.4302,-2.4302,-2.4302,-2.4302,-2.4302,-2.4302,-2.4302,-2.4302,-2.4302,-2.4302,-2.4302,-2.4302,-2.4302,-2.4302,-2.4302,-2.4302,-2.4302,-2.4302,-2.4302,-2.4302,-2.4302,-2.4302,-2.4302,-2.4302,-2.4302,-2.4302,-2.4302,-2.4302,-2.4302,-2.4302,-2.4302,-2.4302,-2.4302,-2.4302,-2.4302,0.0,0.0,0.0,0.0,0.0,0.0,0.0,0.0,0.0,0.0,0.0,0.0,0.0,0.0,0.0,0.0,0.0,0.0,0.0,0.0,0.0,0.0,-1.7393,-1.757,-1.7801,-1.7882,-1.7882,0.0,0.0,0.0,0.0,0.0,0.0,0.0,0.0,0.0,0.0,0.0,-2.254,-2.254,-2.2249,0.0,-2.254,-2.254,-2.2844,-2.329,-2.3508,-2.3595,-2.3551,-2.3334,-2.3421,0.0,0.0,-2.3068,-2.2799,0.0,-2.217,-2.2184,0.0,0.0,0.0,-2.2402,0.0,0.0,0.0,-2.3782,-2.4302,-2.4302,-2.4302,-2.4302,-2.4302,-2.4302,-2.4302,-2.4302,-2.44,-2.4457,-2.4317,-2.4385,-2.4467,-2.4467,-2.4467,-2.4467,-2.4467,-2.4467,-2.4467,-2.4467,-2.4441,-2.44,-2.44,-2.4359,-2.4302,-2.4302,-2.4302,-2.4302,-2.4302,-2.4302,-2.4302,-2.4302,-2.4302,-2.4302,-2.4302,-2.4302,-2.4302,-2.4302,-2.4302,-2.4302,-2.4302,-2.4302,-2.4302,-2.4302,-2.4302,-2.4302,-2.4302,-2.4302,-2.4302,-2.4302,0.0,0.0,0.0,0.0,0.0,0.0,0.0,0.0,0.0,0.0,0.0,0.0,0.0,0.0,0.0,0.0,0.0,0.0,0.0,0.0,0.0,0.0,0.0,-1.8109,-1.8109,-1.8109,0.0,0.0,0.0,0.0,0.0,0.0,0.0,0.0,0.0,0.0,0.0,0.0,0.0,-2.3024,0.0,-2.3113,-2.3024,-2.3024,-2.3334,-2.3724,-2.3724,-2.3994,-2.4219,-2.3867,-2.3724,-2.3782,-2.4078,-2.3696,0.0,0.0,0.0,0.0,0.0,0.0,0.0,0.0,0.0,-2.3595,0.0,0.0,0.0,-2.4302,-2.4302,0.0,0.0,0.0,0.0,-2.4133,0.0,0.0,0.0,-2.4389,0.0,-2.4549,-2.4589,-2.4589,-2.4589,-2.4589,-2.463,-2.471,-2.4564,-2.4539,-2.4645,-2.4482,-2.4343,-2.4359,-2.4359,-2.4317,-2.4302,-2.4302,-2.4302,-2.4302,-2.4302,-2.4302,-2.4302,-2.4302,-2.4302,-2.4302,-2.4302,-2.4302,-2.4302,-2.4302,-2.4302,-2.4302,-2.4302,-2.4302,-2.4302,-2.4302,-2.4302,-2.4302,-1.641,0.0,0.0,0.0,0.0,0.0,0.0,0.0,0.0,0.0,0.0,0.0,0.0,0.0,0.0,0.0,0.0,0.0,-1.9026,0.0,0.0,0.0,0.0,0.0,-1.895,0.0,0.0,0.0,0.0,0.0,0.0,0.0,0.0,0.0,-2.2497,0.0,0.0,0.0,-2.3508,0.0,-2.3952,-2.3909,0.0,-2.3508,-2.3824,-2.4219,-2.4219,-2.4261,-2.4302,0.0,-2.4219,-2.4177,0.0,-2.3909,-2.3994,-2.3157,0.0,0.0,0.0,0.0,0.0,0.0,-2.3551,0.0,0.0,0.0,-2.4302,-2.4302,0.0,0.0,0.0,0.0,0.0,0.0,0.0,0.0,-2.3692,-2.4175,-2.4549,-2.4359,-2.4508,-2.4564,-2.4539,-2.4498,-2.4686,-2.5114,-2.4751,-2.4686,-2.5114,-2.4775,-2.4564,-2.4498,-2.4498,-2.44,-2.4302,-2.4302,-2.4302,-2.4302,-2.4302,-2.4302,-2.4302,-2.4302,-2.4302,-2.4302,-2.4302,-2.4302,-2.4302,-2.4302,-2.4302,-2.4302,-2.4302,-2.4302,-2.4302,-2.4302,-2.4302,-2.4302,0.0,0.0,0.0,0.0,0.0,0.0,0.0,0.0,0.0,0.0,0.0,0.0,0.0,0.0,0.0,0.0,0.0,-1.9213,0.0,0.0,0.0,0.0,0.0,0.0,0.0,0.0,0.0,0.0,-1.9953,0.0,0.0,0.0,0.0,0.0,-2.343,0.0,-2.4059,0.0,-2.4364,0.0,0.0,0.0,0.0,-2.4009,-2.4135,-2.4302,-2.4302,-2.4302,-2.4302,0.0,-2.4302,0.0,0.0,0.0,0.0,0.0,0.0,0.0,0.0,0.0,0.0,0.0,0.0,0.0,-2.3994,0.0,-2.4302,0.0,0.0,0.0,0.0,0.0,0.0,0.0,-2.4215,-2.4348,0.0,0.0,-2.4589,-2.4467,-2.4549,-2.4645,-2.4661,-2.4661,-2.4766,-2.5068,-2.4974,-2.5013,-2.5307,-2.5313,-2.5275,-2.5253,-2.5237,-2.5214,-2.5114,-2.5114,-2.5075,-2.4981,-2.4981,-2.4981,-2.4981,-2.4759,-2.4639,-2.4655,-2.4385,-2.4302,-2.4302,-2.4302,-2.4302,-2.4302,-2.4302,-2.4302,-2.4302,-2.4302,-2.4302,-2.4302,0.0,0.0,0.0,0.0,0.0,0.0,0.0,0.0,0.0,0.0,0.0,0.0,-1.9435,-1.9493,0.0,0.0,-1.9767,-1.9788,0.0,0.0,-1.9818,0.0,0.0,0.0,0.0,0.0,0.0,0.0,0.0,0.0,0.0,0.0,0.0,0.0,0.0,-2.4486,-2.4902,0.0,0.0,-2.502,-2.4639,-2.4451,-2.4451,-2.4343,-2.4302,-2.4302,-2.4302,-2.4302,-2.4302,-2.4302,-2.4302,-2.4302,-2.4426,-2.4451,-2.441,0.0,0.0,0.0,-2.4006,0.0,0.0,0.0,0.0,0.0,0.0,0.0,0.0,0.0,0.0,0.0,0.0,0.0,0.0,0.0,0.0,-2.4338,0.0,-2.4358,0.0,0.0,-2.4549,-2.4605,-2.4726,-2.4742,-2.4886,-2.5262,-2.5269,-2.5406,-2.5742,-2.5709,-2.5709,-2.5672,-2.5672,-2.5652,-2.5572,-2.5572,-2.5519,-2.5427,-2.5389,-2.5406,-2.5368,-2.5059,-2.4902,-2.4863,-2.4492,-2.4359,-2.4359,-2.4385,-2.4467,-2.4533,-2.4533,-2.4599,-2.4719,-2.4574,-2.4549,-2.4533,-2.0208,-1.9894,0.0,0.0,0.0,0.0,0.0,0.0,0.0,0.0,0.0,0.0,0.0,0.0,0.0,0.0,0.0,-2.1087,-2.0794,0.0,-2.1575,0.0,0.0,-2.2065,0.0,0.0,0.0,0.0,0.0,0.0,0.0,0.0,0.0,0.0,0.0,-2.4533,-2.4902,-2.4902,-2.5121,-2.5465,-2.5059,-2.4863,-2.4823,0.0,-2.4302,-2.4302,-2.4302,-2.4302,-2.4302,-2.4302,-2.4302,-2.4385,-2.4759,-2.4863,-2.4942,0.0,0.0,0.0,-2.4981,-2.4863,-2.4744,-2.4385,-2.4302,0.0,0.0,0.0,-2.4302,0.0,0.0,0.0,0.0,0.0,0.0,0.0,0.0,0.0,0.0,0.0,0.0,0.0,-2.44,-2.4539,-2.4589,-2.4589,-2.4958,-2.5888,-2.5594,-2.5779,-2.6607,-2.5908,-2.5465,-2.5406,-2.5406,-2.5329,-2.523,-2.523,-2.523,-2.523,-2.513,-2.5091,-2.5091,-2.4958,-2.4902,-2.4863,-2.4589,-2.4498,-2.4498,-2.4564,-2.4815,-2.5192,-2.5192,-2.5389,-2.5709,-2.523,-2.513,-2.5192,0.0,0.0,0.0,0.0,0.0,0.0,0.0,-1.9975,0.0,0.0,0.0,0.0,0.0,-2.1055,-2.1087,0.0,0.0,-2.1245,-2.115,-2.1528,0.0,0.0,0.0,-2.2794,0.0,0.0,0.0,0.0,0.0,0.0,0.0,0.0,0.0,0.0,0.0,-2.4958,0.0,0.0,0.0,0.0,0.0,-2.5368,-2.5275,0.0,-2.5082,-2.5082,-2.5082,-2.5082,-2.5082,-2.5082,-2.5082,-2.5121,-2.5237,-2.5313,-2.5313,-2.5465,-2.5503,-2.5465,-2.5313,-2.5503,-2.554,-2.4863,-2.4902,-2.4942,-2.4426,-2.4302,0.0,0.0,0.0,0.0,0.0,0.0,0.0,0.0,0.0,0.0,0.0,0.0,-2.4549,0.0,0.0,0.0,0.0,-2.4895,-2.5176,-2.5631,-2.5964,-2.6298,-2.6691,-2.6691,-2.6691,-2.6657,-2.6657,-2.6573,-2.6454,-2.6454,-2.6419,-2.6383,-2.6383,-2.6208,-2.5941,-2.5924,-2.5594,-2.5098,-2.4997,-2.4974,-2.4974,-2.4997,-2.5253,-2.5615,-2.5615,-2.5726,-2.5908,-2.5652,-2.5577,-2.5561,-2.0745,0.0,0.0,0.0,0.0,0.0,0.0,0.0,0.0,0.0,-2.1039,0.0,-2.1743,0.0,-2.1999,0.0,-2.2419,-2.2481,-2.2309,-2.2768,0.0,-2.3238,-2.3694,0.0,0.0,0.0,0.0,0.0,0.0,-2.4938,0.0,0.0,0.0,0.0,0.0,0.0,-2.5921,0.0,-2.6173,0.0,0.0,-2.5977,0.0,0.0,-2.5762,-2.5503,-2.5503,-2.5503,-2.5503,-2.5503,-2.5503,-2.554,-2.5689,-2.5783,-2.5928,-2.6071,-2.6106,-2.6071,-2.5928,-2.609,-2.616,-2.5491,-2.5607,-2.5737,-2.5112,-2.4973,-2.4957,-2.4973,0.0,0.0,0.0,0.0,0.0,0.0,0.0,0.0,0.0,-2.463,0.0,0.0,0.0,0.0,0.0,-2.5114,-2.5443,-2.5819,-2.6298,-2.6674,-2.6908,-2.7023,-2.7105,-2.7105,-2.7105,-2.7055,-2.6956,-2.6956,-2.694,-2.6892,-2.6859,-2.6725,-2.6453,-2.6418,-2.612,-2.5631,-2.5519,-2.5481,-2.5481,-2.5519,-2.5762,-2.6123,-2.6123,-2.628,-2.6436,-2.6142,-2.5999,-2.5892,0.0,0.0,0.0,0.0,-2.045,0.0,0.0,0.0,-2.126,0.0,-2.1631,-2.2208,-2.2666,-2.2998,-2.3343,-2.3819,-2.443,-2.4601,-2.4176,-2.4862,0.0,0.0,-2.5428,-2.5686,-2.5413,0.0,0.0,0.0,0.0,0.0,0.0,0.0,0.0,0.0,-2.5503,0.0,-2.6314,-2.6314,-2.6607,-2.7007,-2.6942,-2.6691,-2.6365,-2.6624,-2.6245,-2.5577,-2.5577,-2.5577,-2.5577,-2.5577,-2.5577,-2.5615,-2.6016,-2.6351,-2.669,-2.71,-2.7244,-2.7132,-2.6757,-2.6723,-2.6656,-2.6251,-2.6438,-2.6602,-2.6217,-2.6199,-2.6199,-2.613,-2.5969,0.0,0.0,0.0,0.0,0.0,0.0,0.0,0.0,0.0,-2.4664,-2.4918,0.0,0.0,0.0,-2.5346,-2.5726,-2.642,-2.6641,-2.6892,0.0,-2.6957,-2.6725,-2.6725,-2.6725,-2.6725,-2.6725,-2.6725,-2.6725,-2.6725,-2.6674,-2.664,-2.6607,-2.6487,-2.6418,-2.6383,-2.6156,-2.6049,-2.6049,-2.6104,-2.6367,-2.6725,-2.6725,-2.6957,-2.725,-2.6741,-2.6368,-2.621,-2.1493,-2.1933,-2.2442,0.0,-2.2208,-2.1704,0.0,0.0,0.0,0.0,-2.3678,-2.4062,-2.4218,-2.4296,-2.4411,-2.4523,-2.4709,0.0,0.0,0.0,0.0,-2.5634,-2.6051,-2.637,-2.6633,-2.664,0.0,-2.6227,0.0,0.0,-2.6156,0.0,0.0,0.0,0.0,0.0,-2.6656,-2.6656,-2.6985,-2.743,-2.743,-2.7166,-2.6842,-2.6909,-2.6792,-2.6607,-2.6436,-2.6385,-2.6385,-2.6385,-2.6385,-2.6454,-2.6808,-2.6971,-2.7132,-2.7517,-2.7636,-2.7636,-2.7572,-2.7572,-2.7495,-2.7103,-2.7054,-2.7037,-2.6619,-2.6554,-2.6587,-2.6554,-2.6488,-2.6471,-2.6488,-2.6042,-2.5623,0.0,0.0,0.0,0.0,0.0,0.0,-2.4191,0.0,0.0,-2.502,-2.5535,-2.5961,-2.6193,-2.6808,-2.7186,-2.7282,-2.7218,-2.7137,-2.7137,-2.7137,-2.7137,-2.7137,-2.7137,-2.7137,-2.7137,-2.7122,-2.6957,-2.6691,-2.6957,-2.6742,-2.6175,-2.6436,-2.6505,-2.6505,-2.6556,-2.6775,-2.7137,-2.7137,-2.7218,-2.7282,-2.7137,-2.7055,-2.6957,-2.3029,0.0,0.0,-2.4236,0.0,0.0,-2.3305,-2.3666,0.0,-2.4374,-2.4704,0.0,-2.5553,-2.5605,-2.5768,-2.6196,-2.6243,0.0,-2.6202,0.0,0.0,-2.6859,-2.7061,-2.7269,-2.7547,-2.7474,0.0,-2.6922,0.0,0.0,-2.664,0.0,0.0,0.0,0.0,-2.6437,0.0,-2.7126,-2.7378,-2.7642,-2.7612,-2.7461,0.0,-2.7072,-2.7007,-2.7007,-2.7004,-2.6923,-2.6792,-2.6742,-2.6825,-2.7004,-2.7195,-2.7457,-2.7736,-2.7946,-2.802,-2.8047,-2.8057,-2.8102,-2.8057,-2.7837,-2.7903,-2.7931,-2.752,-2.749,-2.752,-2.7461,-2.7372,-2.736,-2.7508,-2.6897,-2.6133,0.0,0.0,0.0,0.0,0.0,0.0,0.0,-2.3962,-2.4372,-2.4499,-2.5746,-2.6488,-2.635,-2.6906,-2.723,-2.7299,-2.7137,-2.7105,-2.7282,-2.7299,-2.7299,-2.7299,-2.7299,-2.7299,-2.7299,-2.7299,-2.7186,-2.6957,-2.7218,-2.7055,-2.6657,-2.6875,-2.6957,-2.6957,-2.6957,-2.7105,-2.7299,-2.7299,-2.7299,-2.7299,-2.7299,-2.7186,-2.7023,0.0,0.0,0.0,0.0,0.0,0.0,0.0,-2.4842,0.0,-2.5213,0.0,-2.5928,-2.6715,-2.6803,-2.7161,-2.8004,0.0,-2.8075,-2.801,-2.8075,-2.8075,-2.801,-2.8075,-2.8102,-2.8102,-2.802,-2.7869,0.0,0.0,0.0,0.0,0.0,0.0,0.0,0.0,0.0,0.0,-2.7654,-2.78,-2.78,-2.7742,-2.7713,-2.7624,-2.7293,-2.7152,-2.7166,-2.7396,-2.7276,-2.6957,-2.6891,-2.7083,-2.7378,-2.7409,-2.7816,-2.8324,-2.835,-2.8376,-2.8376,-2.8394,-2.8446,-2.8471,-2.8471,-2.8749,-2.8905,-2.8565,-2.8558,-2.8626,-2.8515,-2.8342,-2.836,-2.8858,-2.7966,-2.6727,0.0,0.0,0.0,0.0,0.0,0.0,0.0,0.0,0.0,-2.3856,-2.5747,-2.6853,-2.6573,-2.6805,-2.7066,-2.7201,-2.6875,-2.6875,-2.7282,-2.7345,-2.7345,-2.7299,-2.7345,-2.7345,-2.7299,-2.7299,-2.7299,-2.7299,-2.7299,-2.7299,-2.7299,-2.7299,-2.7299,-2.7299,-2.7299,-2.7299,-2.7299,-2.7299,-2.7313,-2.7345,-2.7313,-2.7087,-2.6891,0.0,0.0,0.0,0.0,0.0,-2.7344,-2.7427,-2.7402,-2.7402,-2.7427,-2.7763,-2.7949,-2.7834,-2.7851,-2.7905,-2.8084,-2.8102,0.0,0.0,0.0,0.0,-2.8075,-2.8102,-2.8102,-2.8102,-2.8102,-2.7954,0.0,0.0,0.0,0.0,0.0,0.0,0.0,0.0,0.0,-2.7869,-2.8273,0.0,-2.843,-2.8448,-2.8255,-2.7992,-2.7936,-2.7908,-2.7908,-2.7897,-2.7636,-2.7334,-2.7589,-2.7754,-2.7823,-2.8057,-2.8219,-2.8368,-2.8682,-2.8797,-2.8815,-2.8863,-2.8905,-2.8887,-2.8887,-2.8952,-2.8994,-2.8905,-2.8905,-2.8929,-2.8905,-2.8881,-2.8815,-2.8694,-2.8039,-2.7257,-2.6437,-2.5714,0.0,0.0,0.0,0.0,0.0,0.0,-2.4275,-2.3555,-2.4886,-2.5766,-2.5709,-2.6071,-2.6437,-2.6858,-2.6758,-2.6908,-2.7393,-2.7557,-2.7509,-2.7282,-2.7526,-2.7526,-2.7299,-2.7299,-2.7299,-2.7299,-2.7299,-2.7299,-2.7299,-2.7299,-2.7299,-2.7299,-2.7299,-2.7299,-2.7299,-2.7299,-2.7452,-2.76,-2.7376,-2.7421,-2.7491,0.0,0.0,0.0,0.0,0.0,0.0,0.0,-2.8446,-2.8471,-2.8326,-2.8299,-2.8299,-2.8334,-2.836,-2.843,-2.8558,-2.8558,-2.8558,-2.8558,-2.8558,-2.8558,-2.8558,-2.8558,-2.8558,-2.8558,-2.8558,-2.843,-2.8165,0.0,0.0,0.0,0.0,0.0,0.0,0.0,-2.7552,0.0,0.0,-2.8601,-2.8601,-2.8601,-2.8507,-2.8334,-2.8156,-2.8102,-2.8129,-2.8255,-2.8174,-2.7992,-2.7926,-2.8037,-2.8183,-2.8298,-2.8515,-2.8682,-2.8905,-2.8952,-2.8952,-2.8994,-2.8994,-2.8994,-2.8994,-2.8994,-2.8994,-2.8994,-2.8994,-2.8994,-2.8994,-2.8994,-2.8905,-2.8669,-2.8334,-2.769,-2.64,-2.5709,-2.5138,0.0,0.0,0.0,0.0,0.0,0.0,0.0,-2.4479,-2.532,0.0,0.0,-2.6723,-2.7525,-2.7189,-2.7238,-2.7858,-2.7954,-2.7954,-2.7829,-2.7897,-2.7829,-2.7557,-2.7526,-2.7452,-2.7299,-2.7299,-2.7299,-2.7299,-2.7299,-2.7299,-2.7299,-2.7299,-2.7376,-2.7496,-2.7496,-2.7672,-2.7897,-2.7771,-2.78,-2.784,0.0,-2.8102,0.0,0.0,-2.8378,-2.8601,-2.8601,-2.8834,-2.8929,-2.8718,-2.8404,-2.8326,-2.8651,-2.8694,-2.8767,-2.8994,-2.8994,-2.8994,-2.8994,-2.8994,-2.8994,-2.8994,-2.8994,-2.8994,-2.8994,-2.8994,-2.8881,0.0,0.0,-2.8156,-2.8102,0.0,0.0,0.0,0.0,0.0,-2.7915,-2.8396,-2.8626,-2.8694,-2.8694,-2.8694,-2.8669,-2.8386,-2.829,-2.8334,-2.8601,-2.8694,-2.8626,-2.8255,-2.8308,-2.854,-2.854,-2.8749,-2.8994,-2.8994,-2.8994,-2.8994,-2.8994,-2.8994,-2.8994,-2.8994,-2.8994,-2.8994,-2.8994,-2.8994,-2.8994,-2.8994,-2.9017,-2.8952,-2.8707,-2.8585,-2.8009,-2.6477,-2.5739,-2.4998,-2.3945,0.0,0.0,0.0,0.0,0.0,-2.3271,-2.3998,-2.4807,-2.5415,-2.5959,-2.6774,-2.8031,-2.7519,-2.749,-2.8076,-2.8201,-2.8201,-2.8076,-2.8219,-2.8156,-2.7886,-2.7829,-2.7701,-2.7465,-2.7465,-2.7465,-2.7465,-2.7465,-2.7465,-2.7483,-2.7421,-2.7539,-2.78,-2.78,-2.7954,-2.821,-2.8075,-2.8129,-2.8139,0.0,0.0,0.0,0.0,0.0,-2.8601,-2.8601,-2.8834,-2.8994,-2.897,-2.8929,-2.8929,-2.897,-2.8952,-2.8952,-2.8994,-2.8994,-2.8994,-2.8994,-2.8994,-2.8994,-2.8994,-2.8994,-2.8994,-2.8994,-2.8994,-2.8881,0.0,-2.8576,-2.8404,-2.8102,0.0,0.0,-2.8075,-2.8075,-2.8228,-2.8525,-2.8576,-2.8743,-2.8952,-2.8952,-2.8952,-2.897,-2.8929,-2.8905,-2.8929,-2.8952,-2.8952,-2.897,-2.8905,-2.8929,-2.8952,-2.8952,-2.8952,-2.8994,-2.8994,-2.8994,-2.8994,-2.8994,-2.8994,-2.8994,-2.8994,-2.8994,-2.8994,-2.8994,-2.8994,-2.8994,-2.8994,-2.9062,-2.9048,-2.8901,-2.8521,-2.8083,-2.7613,-2.6409,-2.5746,-2.6293,0.0,-2.5167,-2.4983,0.0,0.0,-2.3182,-2.3096,-2.3611,-2.4861,-2.5079,-2.5825,-2.7313,-2.7261,-2.7261,-2.7395,-2.7911,-2.7929,-2.7309,-2.8192,-2.8478,-2.8156,-2.8174,-2.8102,-2.802,-2.802,-2.802,-2.802,-2.802,-2.802,-2.7992,-2.7771,-2.7829,-2.8075,-2.8075,-2.8308,-2.8576,-2.8027,-2.8183,-2.8578,0.0,0.0,-2.8651,-2.8651,-2.8767,-2.8858,-2.8858,-2.8929,-2.8994,-2.8994,-2.8994,-2.8994,-2.8994,-2.8994,-2.8994,-2.8994,-2.8994,-2.8994,-2.8994,-2.8994,-2.8994,-2.8994,-2.8994,-2.8994,-2.8994,-2.8994,-2.8947,-2.8858,-2.8694,-2.8626,-2.8633,-2.8264,-2.8102,-2.8102,-2.8308,-2.8482,-2.8601,-2.8767,-2.8905,-2.8994,-2.8994,-2.8994,-2.8994,-2.8994,-2.8994,-2.8994,-2.8994,-2.8994,-2.8994,-2.8994,-2.8994,-2.8994,-2.8994,-2.8994,-2.8994,-2.8994,-2.9089,-2.9185,-2.9185,-2.9185,-2.9185,-2.9185,-2.9089,-2.8994,-2.8994,-2.8994,-2.8994,-2.8994,-2.9044,-2.8964,-2.8455,-2.827,-2.7829,-2.6674,-2.613,-2.5747,-2.5481,0.0,0.0,-2.4801,0.0,0.0,0.0,-2.3735,-2.3998,-2.4489,-2.5009,-2.5968,-2.7455,-2.7745,-2.7865,-2.7893,-2.8554,-2.867,-2.8165,-2.8597,-2.8737,-2.8572,-2.835,-2.8219,-2.8156,-2.8156,-2.8129,-2.8102,-2.8156,-2.8156,-2.8156,-2.8102,-2.8219,-2.8478,-2.8478,-2.8688,-2.898,-2.8731,-2.8803,-2.8966,-2.9044,-2.9062,-2.9067,-2.9115,-2.9138,-2.9138,-2.9138,-2.9138,-2.9093,-2.904,-2.904,-2.9017,-2.9017,-2.8994,-2.8994,-2.8994,-2.8994,-2.8994,-2.8994,-2.8994,-2.8994,-2.8994,-2.8994,-2.904,-2.9089,-2.9021,-2.9021,-2.9089,-2.8892,-2.8868,-2.8994,-2.8558,-2.8342,-2.8386,-2.8626,-2.8718,-2.8718,-2.8905,-2.8994,-2.8994,-2.8994,-2.8994,-2.8994,-2.8994,-2.8994,-2.8994,-2.8994,-2.8994,-2.8994,-2.8994,-2.9044,-2.9089,-2.9017,-2.8994,-2.9017,-2.9067,-2.9185,-2.9314,-2.9375,-2.9395,-2.9375,-2.9314,-2.9185,-2.9067,-2.8998,-2.8994,-2.9017,-2.9089,-2.9,-2.8793,-2.8315,-2.7903,-2.7259,-2.6073,-2.5834,-2.5537,-2.4757,-2.4666,0.0,-2.4566,-2.4893,-2.4874,-2.4209,-2.4125,-2.4201,-2.4432,-2.4978,-2.5998,-2.7459,-2.8031,-2.8306,-2.8288,-2.8902,-2.9034,-2.8658,-2.8938,-2.9026,-2.8925,-2.8713,-2.8547,-2.8471,-2.8471,-2.8489,-2.842,-2.8368,-2.8394,-2.8489,-2.8428,-2.8578,-2.8855,-2.8855,-2.8989,-2.9218,-2.9134,-2.9178,-2.9262,-2.9178,-2.92,-2.9246,-2.9378,-2.9418,-2.9418,-2.9418,-2.9418,-2.9318,-2.9134,-2.9089,-2.9067,-2.9017,-2.8994,-2.8994,-2.8994,-2.8994,-2.8994,-2.8994,-2.8994,-2.8994,-2.8994,-2.8994,-2.9093,-2.9293,-2.9093,-2.9093,-2.9293,-2.9293,-2.9185,-2.8994,-2.8994,-2.8994,-2.8994,-2.8994,-2.8994,-2.8994,-2.8994,-2.8994,-2.8994,-2.8994,-2.8994,-2.8994,-2.8994,-2.8994,-2.8994,-2.8994,-2.8994,-2.8994,-2.8994,-2.9138,-2.9251,-2.9067,-2.8994,-2.9044,-2.9249,-2.9293,-2.9355,-2.9551,-2.9608,-2.9551,-2.9355,-2.9293,-2.923,-2.9044,-2.8994,-2.9085,-2.9351,-2.8913,-2.8569,-2.8751,-2.7439,-2.6308,-2.6295,-2.5726,-2.5201,-2.485,-2.4855,0.0,-2.4704,-2.4192,-2.3998,-2.4446,-2.3834,-2.3786,-2.4717,-2.4844,-2.5574,-2.7108,-2.7911,-2.8288,-2.8294,-2.8615,-2.8658,-2.8319,-2.9038,-2.9365,-2.9302,-2.9302,-2.924,-2.9178,-2.9178,-2.9178,-2.9178,-2.8837,-2.8879,-2.9156,-2.8837,-2.8902,-2.92,-2.92,-2.924,-2.928,-2.8998,-2.9112,-2.9365,-2.9336,-2.9456,-2.9551,-2.9607,-2.9588,-2.9588,-2.9588,-2.9588,-2.957,-2.9456,-2.9436,-2.9435,-2.9474,-2.9293,-2.9206,-2.9267,-2.9267,-2.927,-2.9275,-2.9275,-2.9275,-2.9275,-2.9398,-2.9495,-2.957,-2.9495,-2.9495,-2.957,-2.957,-2.9455,-2.9206,-2.9206,-2.9138,-2.8994,-2.8994,-2.8994,-2.8994,-2.8994,-2.8994,-2.8994,-2.8994,-2.8994,-2.8994,-2.8994,-2.8994,-2.8994,-2.8994,-2.9089,-2.9206,-2.9206,-2.9334,-2.9494,-2.9435,-2.9395,-2.9415,-2.9494,-2.9608,-2.9716,-2.9805,-2.9786,-2.9805,-2.9716,-2.9644,-2.9551,-2.9494,-2.9494,-2.9345,-2.8892,-2.864,-2.8175,-2.7148,-2.6599,-2.611,-2.5569,-2.5384,-2.5233,-2.5037,-2.5024,-2.4994,-2.4847,-2.4663,-2.4617,-2.476,-2.4435,-2.4284,-2.4376,-2.4754,-2.5576,-2.6988,-2.775,-2.8276,-2.8518,-2.9052,-2.9132,-2.8658,-2.8966,-2.9218,-2.9365,-2.9178,-2.9175,-2.9262,-2.9218,-2.92,-2.92,-2.9156,-2.9178,-2.9262,-2.9203,-2.9243,-2.9344,-2.9344,-2.9365,-2.9365,-2.9262,-2.937,-2.9532,-2.9588,-2.9678,-2.9782,-2.9848,-2.9864,-2.9864,-2.9864,-2.9848,-2.9817,-2.9695,-2.9678,-2.968,-2.9716,-2.9626,-2.9551,-2.9513,-2.9513,-2.9494,-2.9514,-2.9514,-2.9495,-2.9476,-2.9625,-2.9731,-2.9763,-2.9731,-2.9748,-2.9815,-2.9732,-2.9644,-2.9551,-2.9494,-2.9377,-2.9251,-2.9181,-2.9156,-2.9156,-2.9044,-2.9044,-2.9115,-2.9115,-2.9115,-2.9115,-2.9115,-2.9115,-2.9115,-2.9115,-2.9249,-2.9415,-2.9415,-2.9551,-2.9716,-2.9716,-2.9769,-2.9803,-2.9734,-2.9805,-2.9924,-3.0003,-3.0,-3.0,-2.9918,-2.9853,-2.9708,-2.9302,-2.9295,-2.9131,-2.8294,-2.7937,-2.748,-2.6473,-2.6097,-2.5753,-2.5267,-2.5243,-2.5264,-2.5182,-2.5138,-2.5061,-2.4994,-2.485,-2.4828,-2.4902,-2.4718,-2.4591,-2.4538,-2.4841,-2.5575,-2.6786,-2.7606,-2.82,-2.8579,-2.9326,-2.9551,-2.9219,-2.9212,-2.9312,-2.9471,-2.9246,-2.9218,-2.9344,-2.9283,-2.9283,-2.9283,-2.9323,-2.9344,-2.9344,-2.9386,-2.9407,-2.9407,-2.947,-2.9471,-2.9491,-2.9551,-2.9645,-2.9697,-2.9902,-2.9918,-2.9981,-3.0095,-3.0122,-3.0122,-3.0122,-3.0122,-3.0052,-2.9867,-2.9834,-2.9817,-2.9748,-2.9896,-2.9962,-2.9765,-2.9731,-2.9732,-2.9734,-2.9732,-2.9696,-2.9644,-2.9696,-2.9815,-2.9927,-2.9815,-2.9832,-3.0022,-2.9832,-2.9832,-2.9992,-2.9815,-2.9713,-2.9696,-2.9494,-2.9414,-2.9394,-2.9138,-2.916,-2.9334,-2.9334,-2.9334,-2.9334,-2.9334,-2.9334,-2.9334,-2.9334,-2.9474,-2.9644,-2.9644,-2.9751,-2.9921,-2.9921,-3.0049,-3.0171,-2.9988,-2.9921,-2.9953,-3.0157,-3.0213,-3.0161,-2.9958,-2.992,-2.9673,-2.8685,-2.8601,-2.8483,-2.7611,-2.6991,-2.6582,-2.6524,-2.5851,-2.5303,-2.5303,-2.5303,-2.5303,-2.5303,-2.5182,-2.5107,-2.5107,-2.4845,-2.4714,-2.4896,-2.4762,-2.4771,-2.5072,-2.5096,-2.5505,-2.6446,-2.7323,-2.8016,-2.8525,-2.9371,-2.9807,-2.9807,-2.9678,-2.9626,-2.9626,-2.9472,-2.9448,-2.9409,-2.9409,-2.9407,-2.9407,-2.9407,-2.9409,-2.9409,-2.9429,-2.9429,-2.945,-2.957,-2.9626,-2.9626,-2.9836,-2.9902,-2.9918,-3.0052,-3.0188,-3.0286,-3.0311,-3.0323,-3.0323,-3.0323,-3.0279,-3.0235,-3.0196,-3.0188,-3.0174,-3.015,-3.0209,-3.0222,-3.0228,-3.0085,-3.0011,-3.0007,-3.0003,-3.0003,-2.9973,-3.0142,-3.026,-3.0286,-3.0241,-3.0228,-3.0235,-3.0177,-3.0109,-2.9992,-2.9962,-2.9848,-2.9696,-2.9643,-2.9644,-2.9607,-2.9551,-2.9551,-2.9607,-2.9607,-2.9607,-2.9607,-2.9607,-2.9607,-2.9607,-2.9607,-2.9731,-2.9915,-2.9915,-3.0026,-3.0213,-3.0213,-3.024,-3.0253,-3.0166,-3.0118,-3.0147,-3.0253,-3.0266,-3.0266,-3.0221,-2.9755,-2.9245,-2.8995,-2.8502,-2.7873,-2.699,-2.6705,-2.6409,-2.5726,-2.5437,-2.5303,-2.5303,-2.5303,-2.5303,-2.5303,-2.5264,-2.5253,-2.5253,-2.5182,-2.5141,-2.5212,-2.5171,-2.5118,-2.5096,-2.5096,-2.5203,-2.5436,-2.6275,-2.7077,-2.7812,-2.8684,-2.906,-2.8903,-2.9531,-2.9836,-2.9836,-2.9786,-2.9698,-2.9551,-2.9551,-2.9492,-2.9407,-2.9512,-2.9551,-2.957,-2.9735,-2.9769,-2.9769,-2.982,-2.9836,-2.9836,-2.9886,-2.9962,-3.0052,-3.0241,-3.0343,-3.0398,-3.0398,-3.0398,-3.0398,-3.0398,-3.0367,-3.0348,-3.0348,-3.0343,-3.0343,-3.0348,-3.0348,-3.0367,-3.0398,-3.0305,-3.0215,-3.019,-3.0209,-3.0228,-3.0202,-3.033,-3.0398,-3.0348,-3.0379,-3.0379,-3.0348,-3.0348,-3.0299,-3.0188,-3.0188,-3.0128,-3.0007,-2.9877,-2.9829,-2.9829,-2.9748,-2.9748,-2.9832,-2.9832,-2.9832,-2.9832,-2.9832,-2.9832,-2.9832,-2.9832,-2.9962,-3.0133,-3.0133,-3.0207,-3.0292,-3.0292,-3.0292,-3.0292,-3.026,-3.0247,-3.0247,-3.0279,-3.0305,-3.0203,-2.9831,-2.9144,-2.8445,-2.8044,-2.7621,-2.7063,-2.6197,-2.6005,-2.587,-2.538,-2.5303,-2.5303,-2.5303,-2.5303,-2.5303,-2.535,-2.5359,-2.5357,-2.539,-2.5398,-2.5398,-2.5398,-2.5398,-2.5363,-2.5301,-2.5272,-2.5272,-2.5272,-2.5707,-2.6299,-2.7125,-2.8027,-2.8413,-2.8286,-2.9036,-2.9395,-2.9317,-2.9712,-2.9853,-2.9751,-2.9751,-2.9698,-2.9645,-2.9698,-2.9751,-2.9751,-2.9853,-2.9902,-2.9902,-2.9981,-2.9992,-2.9992,-3.0085,-3.0174,-3.0235,-3.0398,-3.0398,-3.0398,-3.0398,-3.0398,-3.0398,-3.0398,-3.0398,-3.0398,-3.0398,-3.0398,-3.0398,-3.0398,-3.0398,-3.0398,-3.0398,-3.0398,-3.0379,-3.0316,-3.0367,-3.0355,-3.0324,-3.0374,-3.0379,-3.0316,-3.0367,-3.0398,-3.0398,-3.0398,-3.0398,-3.0398,-3.0398,-3.0398,-3.0398,-3.015,-3.0061,-3.0061,-2.988,-2.9896,-3.0071,-3.0071,-3.0071,-3.0071,-3.0071,-3.0071,-3.0071,-3.0071,-3.0174,-3.0324,-3.0324,-3.0324,-3.0324,-3.0324,-3.0324,-3.0286,-3.0151,-3.0119,-3.0113,-3.0113,-3.0023,-2.9759,-2.9083,-2.8313,-2.7505,-2.6774,-2.6505,-2.6197,-2.5437,-2.5303,-2.5303,-2.5303,-2.5303,-2.5303,-2.5303,-2.5313,-2.5331,-2.5387,-2.5406,-2.5418,-2.5485,-2.5504,-2.5498,-2.5504,-2.5504,-2.5504,-2.5504,-2.5504,-2.5504,-2.5504,-2.5446,-2.5727,-2.642,-2.7324,-2.7835,-2.7923,-2.8471,-2.8668,-2.8517,-2.9243,-2.9646,-2.9744,-2.9744,-2.9804,-2.9902,-2.9918,-2.9934,-2.9934,-2.9965,-2.9965,-2.9981,-3.0095,-3.0136,-3.0182,-3.0348,-3.0414,-3.0406,-3.0398,-3.0398,-3.0398,-3.0398,-3.0398,-3.0398,-3.0398,-3.0398,-3.0398,-3.0398,-3.0398,-3.0398,-3.0398,-3.0398,-3.0398,-3.0398,-3.0398,-3.0398,-3.0398,-3.0379,-3.0398,-3.0386,-3.0398,-3.0398,-3.0379,-3.0379,-3.0398,-3.0398,-3.0398,-3.0398,-3.0398,-3.0398,-3.0398,-3.0398,-3.0355,-3.0343,-3.0343,-3.0299,-3.0299,-3.0343,-3.0343,-3.0343,-3.0343,-3.0343,-3.0343,-3.0343,-3.0343,-3.0355,-3.0386,-3.0386,-3.0386,-3.0386,-3.0386,-3.0386,-3.0232,-2.9494,-2.9283,-2.9283,-2.9283,-2.8783,-2.8236,-2.8121,-2.7448,-2.6774,-2.664,-2.6024,-2.5457,-2.5322,-2.5303,-2.5303,-2.5303,-2.5303,-2.5303,-2.5303,-2.5351,-2.5387,-2.5391,-2.5398,-2.5422,-2.5493,-2.5498,-2.5499,-2.5496,-2.5502,-2.5496,-2.5504,-2.5504,-2.5504,-2.5504,-2.5492,-2.5538,-2.5667,-2.6463,-2.7268,-2.8058,-2.8058,-2.8074,-2.8097,-2.8168,-2.8504,-2.9055,-2.9055,-2.9364,-2.9902,-3.0022,-3.008,-3.008,-3.0241,-3.033,-3.033,-3.0343,-3.0355,-3.0348,-3.0451,-3.0472,-3.0492,-3.0398,-3.0398,-3.0398,-3.0398,-3.0398,-3.0398,-3.0398,-3.0398,-3.0398,-3.0398,-3.0398,-3.0414,-3.046,-3.0441,-3.0472,-3.051,-3.051,-3.051,-3.051,-3.0439,-3.0398,-3.0398,-3.0398,-3.0398,-3.0398,-3.0398,-3.0398,-3.0398,-3.0398,-3.0398,-3.0398,-3.0398,-3.0398,-3.0398,-3.0398,-3.0398,-3.0398,-3.0398,-3.0398,-3.0398,-3.0398,-3.0398,-3.0398,-3.0398,-3.0398,-3.0398,-3.0398,-3.0398,-3.0398,-3.0398,-3.0398,-3.0314,-2.9899,-2.9755,-2.9582,-2.8743,-2.8471,-2.8448,-2.8448,-2.7832,-2.7198,-2.7198,-2.6544,-2.5909,-2.5909,-2.5591,-2.5303,-2.5303,-2.5303,-2.5303,-2.5303,-2.5303,-2.5313,-2.5351,-2.5387,-2.5422,-2.5492,-2.551,-2.5527,-2.5609,-2.5603,-2.5616,-2.5606,-2.5609,-2.5606,-2.5603,-2.5616,-2.5613,-2.5613,-2.5565,-2.5561,-2.5605,-2.5898,-2.6282,-2.6748,-2.712,-2.7315,-2.7365,-2.7791,-2.8173,-2.8473,-2.8473,-2.8867,-2.9575,-2.9629,-2.995,-3.0384,-3.0472,-3.051,-3.051,-3.051,-3.051,-3.0519,-3.0543,-3.056,-3.0568,-3.0398,-3.0398,-3.0398,-3.0398,-3.0398,-3.0398,-3.0398,-3.0398,-3.041,-3.0425,-3.0425,-3.0449,-3.0519,-3.0518,-3.0543,-3.0613,-3.0593,-3.0593,-3.0593,-3.0501,-3.0439,-3.0425,-3.0421,-3.0398,-3.0398,-3.0398,-3.0398,-3.0398,-3.0398,-3.0398,-3.0398,-3.0398,-3.0398,-3.0398,-3.0398,-3.0398,-3.0398,-3.0398,-3.0398,-3.0398,-3.0398,-3.0398,-3.0398,-3.0398,-3.0402,-3.0425,-3.0425,-3.0428,-3.0449,-3.0449,-3.0314,-3.0036,-2.9418,-2.9087,-2.8778,-2.7965,-2.7517,-2.7363,-2.7554,-2.6967,-2.6294,-2.6294,-2.5793,-2.5303,-2.5303,-2.5303,-2.5303,-2.5303,-2.5303,-2.5293,-2.5322,-2.5331,-2.535,-2.5412,-2.5437,-2.5473,-2.558,-2.5593,-2.562,-2.5681,-2.5699,-2.5699,-2.5701,-2.5701,-2.57,-2.57,-2.5697,-2.5696,-2.5696,-2.5654,-2.5648,-2.5707,-2.5589,-2.5571,-2.5613,-2.6198,-2.6514,-2.6526,-2.7168,-2.7608,-2.7802,-2.7802,-2.8249,-2.9026,-2.9026,-2.9518,-3.0302,-3.0302,-3.0418,-3.0593,-3.0593,-3.06,-3.0607,-3.062,-3.0626,-3.0639,-3.0398,-3.0398,-3.0398,-3.0398,-3.0398,-3.0398,-3.0398,-3.0398,-3.0425,-3.0472,-3.0492,-3.0528,-3.0598,-3.0586,-3.0586,-3.0593,-3.0593,-3.0593,-3.0593,-3.0586,-3.056,-3.0492,-3.0428,-3.0398,-3.0398,-3.0398,-3.0398,-3.0398,-3.0398,-3.0398,-3.0398,-3.0398,-3.0398,-3.0398,-3.0398,-3.0398,-3.0398,-3.0398,-3.0398,-3.0398,-3.0398,-3.0398,-3.0398,-3.0398,-3.0439,-3.0492,-3.0492,-3.0527,-3.0598,-3.0598,-3.0047,-2.938,-2.931,-2.8786,-2.8009,-2.7136,-2.6273,-2.5749,-2.6487,-2.6063,-2.5399,-2.5399,-2.5341,-2.5303,-2.5303,-2.5303,-2.5303,-2.5303,-2.5303,-2.5313,-2.5382,-2.5383,-2.5401,-2.5479,-2.5537,-2.5593,-2.5593,-2.56,-2.5629,-2.5683,-2.5698,-2.5694,-2.5702,-2.5702,-2.5702,-2.57,-2.57,-2.5699,-2.5699,-2.5694,-2.5689,-2.5707,-2.5639,-2.5616,-2.5685,-2.5634,-2.5629,-2.5691,-2.5682,-2.61,-2.6896,-2.6896,-2.7375,-2.8191,-2.8191,-2.8657,-2.9394,-2.9394,-2.9868,-3.0593,-3.0593,-3.0607,-3.0607,-3.0662,-3.0685,-3.0719,-3.051,-3.0482,-3.0482,-3.0528,-3.0518,-3.0518,-3.0518,-3.0518,-3.0527,-3.056,-3.0568,-3.0579,-3.065,-3.0656,-3.0672,-3.072,-3.0724,-3.0724,-3.0724,-3.0645,-3.0576,-3.0501,-3.0428,-3.0398,-3.0398,-3.0398,-3.0398,-3.0398,-3.0398,-3.0398,-3.0398,-3.0398,-3.0398,-3.0398,-3.0398,-3.0398,-3.0398,-3.0398,-3.0398,-3.039,-3.0449,-3.0462,-3.0462,-3.051,-3.0535,-3.0568,-3.0568,-3.0591,-3.0515,-2.9984,-2.9576,-2.913,-2.8124,-2.7609,-2.7181,-2.6311,-2.5738,-2.5464,-2.5771,-2.5582,-2.5303,-2.5303,-2.5303,-2.5303,-2.5348,-2.5357,-2.5374,-2.543,-2.5432,-2.5427,-2.5454,-2.5459,-2.5482,-2.5547,-2.5582,-2.5609,-2.5664,-2.5652,-2.5679,-2.5703,-2.5702,-2.5702,-2.5703,-2.5703,-2.5703,-2.5703,-2.5702,-2.5702,-2.5702,-2.5699,-2.5697,-2.5697,-2.5672,-2.5668,-2.5707,-2.5651,-2.5648,-2.5659,-2.5634,-2.5807,-2.6116,-2.6116,-2.6585,-2.742,-2.742,-2.7908,-2.873,-2.9257,-2.9686,-3.004,-3.0567,-3.0785,-3.0788,-3.0819,-3.0823,-3.0827,-3.0591,-3.0568,-3.0543,-3.0586,-3.0593,-3.0593,-3.0593,-3.0593,-3.06,-3.0626,-3.0626,-3.065,-3.0724,-3.0728,-3.0758,-3.0799,-3.0801,-3.0801,-3.0801,-3.0682,-3.0571,-3.0472,-3.0449,-3.0428,-3.0428,-3.0402,-3.0402,-3.0428,-3.0402,-3.0402,-3.0417,-3.0402,-3.0425,-3.0462,-3.0439,-3.0439,-3.0462,-3.0462,-3.0462,-3.0462,-3.0519,-3.0527,-3.0535,-3.0571,-3.0607,-3.0626,-3.0626,-3.0483,-3.0189,-2.9599,-2.9035,-2.8398,-2.7281,-2.6747,-2.6392,-2.5781,-2.5532,-2.546,-2.5432,-2.5406,-2.5357,-2.534,-2.5359,-2.5374,-2.5418,-2.5432,-2.5434,-2.5498,-2.5502,-2.5517,-2.5532,-2.5531,-2.5543,-2.5623,-2.5622,-2.5654,-2.5696,-2.5702,-2.5703,-2.5703,-2.5703,-2.5703,-2.5703,-2.5703,-2.5703,-2.5703,-2.5703,-2.5703,-2.5702,-2.5702,-2.5701,-2.57,-2.57,-2.5698,-2.5693,-2.5694,-2.5696,-2.5696,-2.5699,-2.57,-2.57,-2.57,-2.6032,-2.6597,-2.6597,-2.7086,-2.7945,-2.8531,-2.8941,-2.9273,-3.0152,-3.0485,-3.0524,-3.0797,-3.0896,-3.0897,-3.0579,-3.0593,-3.0593,-3.0593,-3.0593,-3.0593,-3.0593,-3.0593,-3.062,-3.0682,-3.0691,-3.0728,-3.0799,-3.0801,-3.0801,-3.0801,-3.0801,-3.0801,-3.0801,-3.0732,-3.0607,-3.0402,-3.0462,-3.0501,-3.0501,-3.0428,-3.0428,-3.0501,-3.0428,-3.0428,-3.0501,-3.0428,-3.0472,-3.0593,-3.0527,-3.0535,-3.0593,-3.0593,-3.0593,-3.0593,-3.0593,-3.0593,-3.0593,-3.0593,-3.0639,-3.0691,-3.0691,-3.0228,-2.9613,-2.9593,-2.8442,-2.7017,-2.6997,-2.639,-2.5683,-2.5613,-2.5601,-2.5593,-2.5521,-2.5504,-2.5486,-2.541,-2.5453,-2.5504,-2.5504,-2.5496,-2.5502,-2.5502,-2.5498,-2.5526,-2.5587,-2.5598,-2.5629,-2.5682,-2.5703,-2.5703,-2.5703,-2.5703,-2.5703,-2.5703,-2.5703,-2.5703,-2.5703,-2.5703,-2.5703,-2.5703,-2.5703,-2.5703,-2.5703,-2.5702,-2.5702,-2.57,-2.57,-2.57,-2.57,-2.57,-2.57,-2.57,-2.57,-2.57,-2.57,-2.57,-2.57,-2.57,-2.57,-2.6187,-2.6988,-2.7008,-2.7515,-2.8375,-2.9253,-2.9587,-2.9705,-3.0565,-3.0898,-3.0898,-3.072,-3.0711,-3.0697,-3.0728,-3.0732,-3.0732,-3.0732,-3.0732,-3.0755,-3.0768,-3.0768,-3.0794,-3.0864,-3.0866,-3.0868,-3.0871,-3.0871,-3.0827,-3.0749,-3.0794,-3.0743,-3.0552,-3.0556,-3.0576,-3.0576,-3.0552,-3.0552,-3.0576,-3.0552,-3.0552,-3.0576,-3.0552,-3.0568,-3.0593,-3.0591,-3.0571,-3.0593,-3.0593,-3.0593,-3.06,-3.065,-3.0667,-3.0691,-3.0724,-3.0758,-3.0768,-3.0768,-3.0638,-3.0353,-2.9786,-2.9242,-2.8617,-2.7388,-2.639,-2.5705,-2.5679,-2.5645,-2.5609,-2.5574,-2.5578,-2.5554,-2.549,-2.5485,-2.5512,-2.5559,-2.557,-2.5577,-2.562,-2.5648,-2.5654,-2.5677,-2.5661,-2.5682,-2.5703,-2.5703,-2.5703,-2.5703,-2.5703,-2.5703,-2.5703,-2.5703,-2.5703,-2.5703,-2.5703,-2.5703,-2.5703,-2.5703,-2.5703,-2.5703,-2.5703,-2.5703,-2.5703,-2.5703,-2.5703,-2.5703,-2.5702,-2.5702,-2.5702,-2.5703,-2.5703,-2.5703,-2.5703,-2.5703,-2.5703,-2.5703,-2.5859,-2.6132,-2.6757,-2.7148,-2.7461,-2.8359,-2.9062,-2.9629,-2.9883,-3.0371,-3.0898,-3.0771,-3.0768,-3.0762,-3.0821,-3.0843,-3.0843,-3.0843,-3.0843,-3.0843,-3.0843,-3.0843,-3.0847,-3.0891,-3.0891,-3.0892,-3.0894,-3.0895,-3.0871,-3.078,-3.0847,-3.0843,-3.0728,-3.0715,-3.0697,-3.0645,-3.0601,-3.062,-3.0639,-3.0607,-3.0607,-3.0639,-3.0607,-3.0626,-3.0686,-3.065,-3.065,-3.0672,-3.0716,-3.0716,-3.0721,-3.0755,-3.0785,-3.0788,-3.0821,-3.0845,-3.0847,-3.0801,-3.0609,-3.0242,-2.9769,-2.9377,-2.8908,-2.7858,-2.7155,-2.6667,-2.6317,-2.6195,-2.6088,-2.5737,-2.5642,-2.5622,-2.558,-2.5574,-2.5597,-2.5622,-2.5648,-2.5652,-2.5681,-2.5702,-2.5703,-2.5703,-2.5703,-2.5703,-2.5703,-2.5703,-2.5703,-2.5703,-2.5703,-2.5703,-2.5703,-2.5703,-2.5703,-2.5703,-2.5703,-2.5703,-2.5703,-2.5703,-2.5703,-2.5703,-2.5703,-2.5703,-2.5703,-2.5703,-2.5703,-2.5703,-2.5703,-2.5703,-2.5703,-2.5703,-2.5703,-2.5703,-2.5703,-2.5703,-2.5703,-2.5703,-2.5703,-2.5742,-2.6269,-2.6484,-2.658,-2.7419,-2.8062,-2.8603,-2.9287,-2.9853,-3.0361,-3.0796,-3.0801,-3.0823,-3.0886,-3.0907,-3.0907,-3.0907,-3.0907,-3.0909,-3.0909,-3.0909,-3.0891,-3.0895,-3.0895,-3.0895,-3.0895,-3.0895,-3.0895,-3.0895,-3.0895,-3.0895,-3.0895,-3.0895,-3.0847,-3.0712,-3.0653,-3.0667,-3.072,-3.067,-3.065,-3.072,-3.067,-3.0697,-3.0801,-3.0755,-3.0758,-3.0804,-3.0866,-3.0909,-3.0909,-3.0892,-3.0895,-3.0894,-3.0891,-3.0891,-3.0894,-3.0825,-3.0341,-2.9722,-2.9716,-2.9127,-2.8406,-2.8393,-2.8335,-2.8122,-2.7323,-2.705,-2.6815,-2.6014,-2.5741,-2.5702,-2.5702,-2.5702,-2.5702,-2.5701,-2.5702,-2.5703,-2.5703,-2.5703,-2.5703,-2.5703,-2.5703,-2.5703,-2.5703,-2.5703,-2.5703,-2.5703,-2.5703,-2.5703,-2.5703,-2.5703,-2.5703,-2.5703,-2.5703,-2.5703,-2.5703,-2.5703,-2.5703,-2.5703,-2.5683,-2.5683,-2.5683,-2.5683,-2.5683,-2.5683,-2.5683,-2.5683,-2.5703,-2.5703,-2.5703,-2.5683,-2.5683,-2.5683,-2.5683,-2.5683,-2.5683,-2.5683,-2.5683,-2.5698,-2.5763,-2.6505,-2.6824,-2.7086,-2.8606,-2.9269,-2.9522,-3.0799,-3.0801,-3.0801,-3.0821,-3.0866,-3.0907,-3.0907,-3.0891,-3.0894,-3.0894,-3.0894,-3.0894,-3.0897,-3.0897,-3.0897,-3.0898,-3.0898,-3.0898,-3.0898,-3.0897,-3.0897,-3.0898,-3.0897,-3.0895,-3.0852,-3.0847,-3.0845,-3.0866,-3.0843,-3.0843,-3.0866,-3.0843,-3.0845,-3.0873,-3.0868,-3.087,-3.0873,-3.0892,-3.0894,-3.0894,-3.0894,-3.0895,-3.0895,-3.0894,-3.0894,-3.0894,-3.0873,-3.0775,-3.0603,-3.0566,-2.996,-2.9236,-2.9184,-2.8686,-2.812,-2.7923,-2.7413,-2.6871,-2.6691,-2.6185,-2.5698,-2.5703,-2.5702,-2.5698,-2.5703,-2.5703,-2.5703,-2.5703,-2.5703,-2.5703,-2.5703,-2.5703,-2.5703,-2.5703,-2.5703,-2.5703,-2.5703,-2.5703,-2.5703,-2.5703,-2.5703,-2.5703,-2.5703,-2.5703,-2.5703,-2.5703,-2.5699,-2.5693,-2.5693,-2.5657,-2.5626,-2.5626,-2.5626,-2.5626,-2.5626,-2.5626,-2.5657,-2.5693,-2.5693,-2.5666,-2.5626,-2.5626,-2.5626,-2.5626,-2.5626,-2.5626,-2.5626,-2.5626,-2.5619,-2.5632,-2.5811,-2.6295,-2.693,-2.7301,-2.8275,-2.9522,-3.0801,-3.0801,-3.0801,-3.0845,-3.0888,-3.0891,-3.0891,-3.0894,-3.0896,-3.0896,-3.0896,-3.0897,-3.0898,-3.0898,-3.0898,-3.0898,-3.0898,-3.0898,-3.0898,-3.0898,-3.0898,-3.0898,-3.0898,-3.0898,-3.0898,-3.0898,-3.0897,-3.0895,-3.0895,-3.0895,-3.0895,-3.0895,-3.0895,-3.0895,-3.0895,-3.0895,-3.0895,-3.0896,-3.0896,-3.0896,-3.0897,-3.0897,-3.0897,-3.0897,-3.0879,-3.0858,-3.0859,-3.0839,-3.0796,-3.0765,-3.0448,-3.0074,-3.0033,-2.971,-2.9262,-2.8844,-2.8416,-2.8006,-2.7596,-2.6897,-2.6272,-2.6269,-2.5952,-2.5659,-2.5683,-2.5702,-2.5701,-2.5703,-2.5702,-2.5699,-2.5699,-2.5675,-2.565,-2.565,-2.565,-2.565,-2.565,-2.565,-2.565,-2.565,-2.565,-2.565,-2.565,-2.565,-2.565,-2.565,-2.5657,-2.5648,-2.5648,-2.5613,-2.5601,-2.5601,-2.5601,-2.5601,-2.5601,-2.5601,-2.5601,-2.5605,-2.5642,-2.5619,-2.5601,-2.5601,-2.5601,-2.5601,-2.5601,-2.5601,-2.5601,-2.5601,-2.5589,-2.5547,-2.5547,-2.5823,-2.6273,-2.6656,-2.788,-2.9415,-3.0801,-3.0821,-3.0823,-3.0888,-3.0892,-3.0895,-3.0895,-3.0897,-3.0897,-3.0897,-3.0897,-3.0898,-3.0898,-3.0898,-3.0878,-3.0877,-3.0877,-3.0877,-3.0877,-3.0877,-3.0877,-3.0878,-3.0878,-3.0878,-3.0898,-3.0898,-3.0898,-3.0896,-3.0896,-3.0896,-3.0896,-3.0896,-3.0896,-3.0896,-3.0896,-3.0896,-3.0896,-3.0897,-3.0898,-3.0879,-3.0879,-3.0878,-3.0877,-3.0878,-3.0834,-3.0777,-3.0788,-3.076,-3.0693,-3.0696,-3.0676,-3.0681,-3.0682,-3.0677,-3.0536,-2.9824,-2.9508,-2.9235,-2.852,-2.7722,-2.7104,-2.7113,-2.6563,-2.6038,-2.6106,-2.5888,-2.5687,-2.5681,-2.5673,-2.5681,-2.5681,-2.5642,-2.5601,-2.5601,-2.5601,-2.5601,-2.5601,-2.5601,-2.5601,-2.5601,-2.5601,-2.5601,-2.5601,-2.5601,-2.5601,-2.5601,-2.5593,-2.5589,-2.5589,-2.558,-2.5576,-2.5576,-2.5576,-2.5576,-2.5576,-2.5576,-2.5556,-2.5505,-2.5556,-2.5576,-2.5576,-2.5576,-2.5576,-2.5576,-2.5576,-2.5576,-2.5576,-2.5576,-2.5551,-2.5505,-2.5505,-2.5505,-2.5608,-2.6384,-2.7602,-2.8878,-3.0886,-3.0888,-3.0888,-3.0892,-3.0896,-3.0897,-3.0897,-3.0898,-3.0898,-3.0898,-3.0898,-3.0898,-3.0898,-3.0855,-3.0796,-3.0732,-3.0728,-3.0728,-3.0728,-3.0728,-3.0742,-3.0804,-3.0765,-3.0774,-3.0898,-3.0834,-3.0834,-3.0898,-3.0898,-3.0898,-3.0898,-3.0898,-3.0898,-3.0898,-3.0898,-3.0898,-3.0898,-3.0898,-3.0877,-3.0806,-3.0806,-3.0774,-3.0728,-3.0728,-3.0724,-3.072,-3.0704,-3.072,-3.0687,-3.0633,-3.0614,-3.0607,-3.061,-3.0604,-3.0585,-3.046,-2.9898,-2.9295,-2.9239,-2.8599,-2.7931,-2.7941,-2.7843,-2.7762,-2.7764,-2.6642,-2.5609,-2.5616,-2.5613,-2.5609,-2.5609,-2.5605,-2.5601,-2.5601,-2.5601,-2.5601,-2.5601,-2.5601,-2.5601,-2.5601,-2.5601,-2.5601,-2.5601,-2.5601,-2.5601,-2.5601,-2.5542,-2.5515,-2.5515,-2.5518,-2.5503,-2.5503,-2.5503,-2.5503,-2.5503,-2.5503,-2.5515,-2.5507,-2.5515,-2.5503,-2.5503,-2.5503,-2.5503,-2.5503,-2.5503,-2.5503,-2.5503,-2.5503,-2.5515,-2.5507,-2.5507,-2.5499,-2.56,-2.6341,-2.6757,-2.7152,-3.0891,-3.0892,-3.0892,-3.0894,-3.0896,-3.0897,-3.0897,-3.0878,-3.0834,-3.0834,-3.0806,-3.0799,-3.0799,-3.0765,-3.0732,-3.0691,-3.0711,-3.0711,-3.0711,-3.0711,-3.072,-3.0735,-3.072,-3.0728,-3.0796,-3.0765,-3.0765,-3.0799,-3.0857,-3.0898,-3.0898,-3.0898,-3.0878,-3.0834,-3.0834,-3.0829,-3.0799,-3.0799,-3.0771,-3.0735,-3.0735,-3.0728,-3.0711,-3.0711,-3.0672,-3.0639,-3.0639,-3.0637,-3.0637,-3.0618,-3.0602,-3.0593,-3.0597,-3.0598,-3.0598,-3.0598,-3.0327,-3.0027,-3.0062,-2.9431,-2.8768,-2.8779,-2.8395,-2.8032,-2.8041,-2.7472,-2.6947,-2.6987,-2.6997,-2.684,-2.6354,-2.6248,-2.6068,-2.5628,-2.555,-2.555,-2.555,-2.555,-2.555,-2.555,-2.555,-2.555,-2.555,-2.555,-2.555,-2.555,-2.5518,-2.5505,-2.5505,-2.5507,-2.5511,-2.5511,-2.544,-2.5385,-2.5385,-2.536,-2.5332,-2.5332,-2.5332,-2.5397,-2.5511,-2.5412,-2.544,-2.5503,-2.5412,-2.544,-2.5484,-2.5412,-2.5385,-2.5376,-2.5351,-2.5332,-2.537,-2.5707,-2.6139,-2.6657]},{"header":{"parameterUnit":"m.s-1","parameterCategory":1,"la1":30.6,"la2":28.766,"lo1":-90.7593,"lo2":-88.6598,"dy":0.0162,"dx":0.0183,"nx":116,"ny":114,"refTime":"2023-07-26T12:00:00:Z","depth":0,"parameterNumber":3,"parameterNumberName":"V-component_of_WINDS"},"data":[0.0,0.0,0.0,0.0,0.0,0.0,0.0,0.0,0.0,0.0,0.0,0.0,0.0,0.0,0.0,0.0,0.0,0.0,0.0,0.0,0.0,0.0,0.0,0.0,0.0,0.0,0.0,0.0,0.0,0.0,0.0,0.0,0.0,0.0,0.0,0.0,0.0,0.0,0.0,0.0,0.0,0.0,0.0,0.0,0.0,0.0,0.0,0.0,0.0,0.0,0.0,0.0,0.0,0.0,0.0,0.0,0.0,0.0,0.0,0.0,0.0,0.0,0.0,0.0,0.0,0.0,0.0,0.0,0.0,0.0,0.0,0.0,0.0,0.0,0.0,0.0,0.0,0.0,0.0,0.0,0.0,0.0,0.0,0.0,0.0,0.0,0.0,0.0,0.0,0.0,0.0,0.0,0.0,0.0,0.0,0.0,0.0,0.0,0.0,0.0,0.0,0.0,0.0,0.0,0.0,0.0,0.0,0.0,0.0,0.0,0.0,0.0,0.0,0.0,0.0,0.0,0.0,0.0,0.0,0.0,0.0,0.0,0.0,0.0,0.0,0.0,0.0,0.0,0.0,0.0,0.0,0.0,0.0,0.0,0.0,0.0,0.0,0.0,0.0,0.0,0.0,0.0,0.0,0.0,0.0,0.0,0.0,0.0,0.0,0.0,0.0,0.0,0.0,0.0,0.0,0.0,0.0,0.0,0.0,0.0,0.0,0.0,0.0,0.0,0.0,0.0,0.0,0.0,0.0,0.0,0.0,0.0,0.0,0.0,0.0,0.0,0.0,0.0,0.0,0.0,0.0,0.0,0.0,0.0,0.0,0.0,0.0,0.0,0.0,0.0,0.0,0.0,0.0,0.0,0.0,0.0,0.0,0.0,0.0,0.0,0.0,0.0,0.0,0.0,0.0,0.0,0.0,0.0,0.0,0.0,0.0,0.0,0.0,0.0,0.0,0.0,0.0,0.0,0.0,0.0,0.0,0.0,0.0,0.0,0.0,0.0,0.0,0.0,0.0,0.0,0.0,0.0,0.0,0.0,0.0,0.0,0.0,0.0,0.0,0.0,0.0,0.0,0.0,0.0,0.0,0.0,0.0,0.0,0.0,0.0,0.0,0.0,0.0,0.0,0.0,0.0,0.0,0.0,0.0,0.0,0.0,0.0,0.0,0.0,0.0,0.0,0.0,0.0,0.0,0.0,0.0,0.0,0.0,0.0,0.0,0.0,0.0,0.0,0.0,0.0,0.0,0.0,0.0,0.0,0.0,0.0,0.0,0.0,0.0,0.0,0.0,0.0,0.0,0.0,0.0,0.0,0.0,0.0,0.0,0.0,0.0,0.0,0.0,0.0,0.0,0.0,0.0,0.0,0.0,0.0,0.0,0.0,0.0,0.0,0.0,0.0,0.0,0.0,0.0,0.0,0.0,0.0,0.0,0.0,0.0,0.0,0.0,0.0,0.0,0.0,0.0,0.0,0.0,0.0,0.0,0.0,0.0,0.0,0.0,0.0,0.0,0.0,0.0,0.0,0.0,0.0,0.0,0.0,0.0,0.0,0.0,0.0,0.0,0.0,0.0,0.0,0.0,0.0,0.0,0.0,0.0,0.0,0.0,0.0,0.0,0.0,0.0,0.0,0.0,0.0,0.0,0.0,0.0,0.0,0.0,0.0,0.0,0.0,0.0,0.0,0.0,0.0,0.0,0.0,0.0,0.0,0.0,0.0,0.0,0.0,0.0,0.0,0.0,0.0,0.0,0.0,0.0,0.0,0.0,0.0,0.0,0.0,0.0,0.0,0.0,0.0,0.0,0.0,0.0,0.0,0.0,0.0,0.0,0.0,0.0,0.0,0.0,0.0,0.0,0.0,0.0,0.0,0.0,0.0,0.0,0.0,0.0,0.0,0.0,0.0,0.0,0.0,0.0,0.0,0.0,0.0,0.0,0.0,0.0,0.0,0.0,0.0,0.0,0.0,0.0,0.0,0.0,0.0,0.0,0.0,0.0,0.0,0.0,0.0,0.0,0.0,0.0,0.0,0.0,0.0,0.0,0.0,0.0,0.0,0.0,0.0,0.0,0.0,0.0,0.0,0.0,0.0,0.0,0.0,0.0,0.0,0.0,0.0,0.0,0.0,0.0,0.0,0.0,0.0,0.0,0.0,0.0,0.0,0.0,0.0,0.0,0.0,0.0,0.0,0.0,0.0,0.0,0.0,0.0,0.0,0.0,0.0,0.0,0.0,0.0,0.0,0.0,0.0,0.0,0.0,0.0,0.0,0.0,0.0,0.0,0.0,0.0,0.0,0.0,0.0,0.0,0.0,0.0,0.0,0.0,0.0,0.0,0.0,0.0,0.0,0.0,0.0,0.0,0.0,0.0,0.0,0.0,0.0,0.0,0.0,0.0,0.0,0.0,0.0,0.0,0.0,0.0,0.0,0.0,0.0,0.0,0.0,0.0,0.0,0.0,0.0,0.0,0.0,0.0,0.0,0.0,0.0,0.0,0.0,0.0,0.0,0.0,0.0,0.0,0.0,0.0,0.0,0.0,0.0,0.0,0.0,0.0,0.0,0.0,0.0,0.0,0.0,0.0,0.0,0.0,0.0,0.0,0.0,0.0,0.0,0.0,0.0,0.0,0.0,0.0,0.0,0.0,0.0,0.0,0.0,0.0,0.0,0.0,0.0,0.0,0.0,0.0,0.0,0.0,0.0,0.0,0.0,0.0,0.0,0.0,0.0,0.0,0.0,0.0,0.0,0.0,0.0,0.0,0.0,0.0,0.0,0.0,0.0,0.0,0.0,0.0,0.0,0.0,0.0,0.0,0.0,0.0,0.0,0.0,0.0,0.0,0.0,0.0,0.0,0.0,0.0,0.0,0.0,0.0,0.0,0.0,0.0,0.0,0.0,0.0,0.0,0.0,0.0,0.0,0.0,0.0,0.0,0.0,0.0,0.0,0.0,0.0,0.0,0.0,0.0,0.0,0.0,0.0,0.0,0.0,0.0,0.0,0.0,0.0,0.0,0.0,0.0,0.0,0.0,0.0,0.0,0.0,0.0,0.0,0.0,0.0,0.0,0.0,0.0,0.0,0.0,0.0,0.0,0.0,0.0,0.0,0.0,0.0,0.0,0.0,0.0,0.0,0.0,0.0,0.0,0.0,0.0,0.0,0.0,0.0,0.0,0.0,0.0,0.0,0.0,0.0,0.0,0.0,0.0,0.0,0.0,0.0,0.0,0.0,0.0,0.0,0.0,0.0,0.0,0.0,0.0,0.0,0.0,0.0,0.0,0.0,0.0,0.0,0.0,0.0,0.0,0.0,0.0,0.0,0.0,0.0,0.0,0.0,0.0,0.0,0.0,0.0,0.0,0.0,0.0,0.0,0.0,0.0,0.0,0.0,0.0,0.0,0.0,0.0,0.0,0.0,0.0,0.0,0.0,0.0,0.0,0.0,0.0,0.0,0.0,0.0,0.0,0.0,0.0,0.0,0.0,0.0,0.0,0.0,0.0,0.0,0.0,0.0,0.0,0.0,0.0,0.0,0.0,0.0,0.0,0.0,0.0,0.0,0.0,0.0,0.0,0.0,0.0,0.0,0.0,0.0,0.0,0.0,0.0,0.0,0.0,0.0,0.0,0.0,0.0,0.0,0.0,0.0,0.0,0.0,0.0,0.0,0.0,0.0,0.0,0.0,0.0,0.0,0.0,0.0,0.0,0.0,0.0,0.0,0.0,0.0,0.0,0.0,0.0,0.0,0.0,0.0,0.0,0.0,0.0,0.0,0.0,0.0,0.0,0.0,0.0,0.0,0.0,0.0,0.0,0.0,0.0,0.0,0.0,0.0,0.0,0.0,0.0,0.0,0.0,0.0,0.0,0.0,0.0,0.0,0.0,0.0,0.0,0.0,0.0,0.0,0.0,0.0,0.0,0.0,0.0,0.0,0.0,0.0,0.0,0.0,0.0,0.0,0.0,0.0,0.0,0.0,0.0,0.0,0.0,0.0,0.0,0.0,0.0,0.0,0.0,0.0,0.0,0.0,0.0,0.0,0.0,0.0,0.0,0.0,0.0,0.0,0.0,0.0,0.0,0.0,0.0,0.0,0.0,0.0,0.0,0.0,0.0,0.0,0.0,0.0,0.0,0.0,0.0,0.0,0.0,0.0,0.0,0.0,0.0,0.0,0.0,0.0,0.0,0.0,0.0,0.0,0.0,0.0,0.0,0.0,0.0,0.0,0.0,0.0,0.0,0.0,0.0,0.0,0.0,0.0,0.0,0.0,0.0,0.0,0.0,0.0,0.0,0.0,0.0,0.0,0.0,0.0,0.0,0.0,0.0,0.0,0.0,0.0,0.0,0.0,0.0,0.0,0.0,0.0,0.0,0.0,0.0,0.0,0.0,0.0,0.0,0.0,0.0,0.0,0.0,0.0,0.0,0.0,0.0,0.0,0.0,0.0,0.0,0.0,0.0,0.0,0.0,0.0,0.0,0.0,0.0,0.0,0.0,0.0,0.0,0.0,0.0,0.0,0.0,0.0,0.0,0.0,0.0,0.0,0.0,0.0,0.0,0.0,0.0,0.0,0.0,0.0,0.0,0.0,0.0,0.0,0.0,0.0,0.0,0.0,0.0,0.0,0.0,0.0,0.0,0.0,0.0,0.0,0.0,0.0,0.0,0.0,0.0,0.0,0.0,0.0,0.0,0.0,0.0,0.0,0.0,0.0,0.0,0.0,0.0,0.0,0.0,0.0,0.0,0.0,0.0,0.0,0.0,0.0,0.0,0.0,0.0,0.0,0.0,0.0,0.0,0.0,0.0,0.0,0.0,0.0,0.0,0.0,0.0,0.0,0.0,0.0,0.0,0.0,0.0,0.0,0.0,0.0,0.0,0.0,0.0,0.0,0.0,0.0,0.0,0.0,0.0,0.0,0.0,0.0,0.0,0.0,0.0,0.0,0.0,0.0,0.0,0.0,0.0,0.0,0.0,0.0,0.0,0.0,0.0,0.0,0.0,0.0,0.0,0.0,0.0,0.0,0.0,0.0,0.0,0.0,0.0,0.0,0.0,0.0,0.0,0.0,0.0,0.0,0.0,0.0,0.0,0.0,0.0,0.0,0.0,0.0,0.0,0.0,0.0,0.0,0.0,0.0,0.0,0.0,0.0,0.0,0.0,0.0,0.0,0.0,0.0,0.0,0.0,0.0,0.0,0.0,0.0,0.0,0.0,0.0,0.0,0.0,0.0,0.0,0.0,0.0,0.0,0.0,0.0,0.0,0.0,0.0,0.0,0.0,0.0,0.0,0.0,0.0,0.0,0.0,0.0,0.0,0.0,0.0,0.0,0.0,0.0,0.0,0.0,0.0,0.0,0.0,0.0,0.0,0.0,0.0,0.0,0.0,0.0,0.0,0.0,0.0,0.0,0.0,0.0,0.0,0.0,0.0,0.0,0.0,0.0,0.0,0.0,0.0,0.0,0.0,0.0,0.0,0.0,0.0,0.0,0.0,0.0,0.0,0.0,0.0,0.0,0.0,0.0,0.0,0.0,0.0,0.0,0.0,0.0,0.0,0.0,0.0,0.0,0.0,0.0,0.0,0.0,0.0,0.0,0.0,0.0,0.0,0.0,0.0,0.0,0.0,0.0,0.0,0.0,0.0,0.0,0.0,0.0,0.0,0.0,0.0,0.0,0.0,0.0,0.0,0.0,0.0,0.0,0.0,0.0,0.0,0.0,0.0,0.0,0.0,0.0,0.0,0.0,0.0,0.0,0.0,0.0,0.0,0.0,0.0,0.0,0.0,0.0,0.0,0.0,0.0,0.0,0.0,0.0,0.0,0.0,0.0,0.0,0.0,0.0,0.0,0.0,0.0,0.0,0.0,0.0,0.0,0.0,0.0,0.0,0.0,0.0,0.0,0.0,0.0,0.0,0.0,0.0,0.0,0.0,0.0,0.0,0.0,0.0,0.0,0.0,0.0,0.0,0.0,0.0,0.0,0.0,0.0,0.0,0.0,0.0,0.0,0.0,0.0,0.0,0.0,0.0,0.0,0.0,0.0,0.0,0.0,0.0,0.0,0.0,0.0,0.0,0.0,0.0,0.0,0.0,0.0,0.0,0.0,0.0,0.0,0.0,-2.666,-2.6742,0.0,0.0,0.0,0.0,0.0,0.0,0.0,0.0,0.0,0.0,0.0,0.0,0.0,0.0,0.0,0.0,0.0,0.0,0.0,0.0,0.0,0.0,0.0,0.0,0.0,0.0,0.0,0.0,0.0,0.0,0.0,0.0,0.0,0.0,0.0,0.0,0.0,0.0,0.0,0.0,0.0,0.0,0.0,0.0,0.0,0.0,0.0,0.0,0.0,0.0,0.0,0.0,0.0,0.0,0.0,0.0,0.0,0.0,0.0,0.0,0.0,0.0,0.0,0.0,0.0,0.0,0.0,0.0,0.0,0.0,0.0,0.0,0.0,0.0,0.0,0.0,0.0,0.0,0.0,0.0,0.0,0.0,0.0,0.0,0.0,0.0,0.0,0.0,0.0,0.0,0.0,0.0,0.0,0.0,0.0,0.0,0.0,0.0,0.0,0.0,0.0,0.0,0.0,0.0,0.0,0.0,0.0,0.0,0.0,0.0,0.0,0.0,0.0,0.0,-2.7454,-2.715,0.0,0.0,0.0,0.0,0.0,0.0,0.0,0.0,0.0,0.0,0.0,0.0,0.0,0.0,0.0,0.0,0.0,0.0,0.0,0.0,0.0,0.0,0.0,0.0,0.0,0.0,0.0,0.0,0.0,0.0,0.0,0.0,0.0,0.0,0.0,0.0,0.0,0.0,0.0,0.0,0.0,0.0,0.0,0.0,0.0,0.0,0.0,0.0,0.0,0.0,0.0,0.0,0.0,0.0,0.0,0.0,0.0,0.0,0.0,0.0,0.0,0.0,0.0,0.0,0.0,0.0,0.0,0.0,0.0,0.0,0.0,0.0,0.0,0.0,0.0,0.0,0.0,0.0,0.0,0.0,0.0,0.0,0.0,0.0,0.0,0.0,0.0,0.0,0.0,0.0,0.0,0.0,0.0,0.0,0.0,0.0,0.0,0.0,0.0,0.0,0.0,0.0,0.0,0.0,0.0,0.0,0.0,0.0,-2.9607,-2.9607,-2.9664,-2.9664,-2.9588,-2.9398,-2.7979,-2.7382,-2.7438,-2.7438,0.0,0.0,0.0,0.0,0.0,0.0,0.0,0.0,0.0,0.0,0.0,0.0,0.0,0.0,0.0,0.0,0.0,0.0,0.0,0.0,0.0,0.0,0.0,0.0,0.0,0.0,0.0,0.0,0.0,0.0,0.0,0.0,0.0,0.0,0.0,0.0,0.0,0.0,-2.9939,-2.9178,-2.8772,-2.8619,-2.7283,0.0,0.0,0.0,0.0,0.0,0.0,0.0,0.0,0.0,0.0,0.0,0.0,0.0,0.0,0.0,0.0,0.0,0.0,0.0,0.0,0.0,0.0,0.0,0.0,0.0,0.0,0.0,0.0,0.0,0.0,0.0,0.0,0.0,0.0,0.0,0.0,0.0,0.0,0.0,0.0,0.0,0.0,0.0,-2.6663,-2.6726,0.0,0.0,0.0,0.0,0.0,0.0,0.0,0.0,0.0,0.0,0.0,0.0,0.0,-2.9206,-2.9003,-2.9008,-2.9086,-2.927,-2.9222,-2.9283,-2.9448,-2.9448,-2.9427,-2.9388,-2.9,0.0,-2.9175,-2.9175,0.0,0.0,0.0,0.0,0.0,0.0,0.0,0.0,0.0,0.0,0.0,0.0,0.0,0.0,0.0,0.0,0.0,0.0,0.0,0.0,0.0,0.0,0.0,0.0,0.0,0.0,0.0,0.0,0.0,0.0,0.0,0.0,0.0,0.0,0.0,0.0,-3.0717,-3.0717,-3.07,-2.9956,-2.9617,-2.9567,-2.8467,-2.7977,-2.7994,-2.8332,0.0,0.0,0.0,0.0,0.0,0.0,0.0,0.0,0.0,0.0,0.0,0.0,0.0,0.0,0.0,0.0,0.0,0.0,0.0,0.0,0.0,0.0,0.0,0.0,0.0,0.0,0.0,0.0,0.0,0.0,0.0,0.0,0.0,0.0,0.0,0.0,0.0,0.0,0.0,-2.6907,-2.7358,-2.7864,-2.7941,-2.7966,0.0,0.0,0.0,0.0,0.0,0.0,0.0,0.0,0.0,-2.9126,-2.9588,-2.9783,-2.9664,-2.9966,-3.0186,-3.0277,-3.0247,-3.0271,-3.0362,-3.0362,-3.0362,-3.0344,-3.0247,-3.0296,-3.0323,-2.9466,-2.9249,-2.9435,0.0,0.0,0.0,0.0,-2.8997,-2.8888,0.0,0.0,0.0,0.0,0.0,0.0,0.0,0.0,0.0,0.0,0.0,0.0,0.0,0.0,0.0,-2.7299,0.0,0.0,0.0,0.0,0.0,0.0,0.0,0.0,0.0,0.0,0.0,0.0,-3.119,-3.119,-3.119,-3.0632,-3.0378,-3.0362,-2.9803,-2.933,-2.8991,-2.9194,-2.9161,0.0,0.0,0.0,0.0,0.0,0.0,0.0,0.0,0.0,0.0,0.0,0.0,0.0,0.0,0.0,0.0,0.0,0.0,0.0,0.0,0.0,0.0,0.0,0.0,0.0,0.0,0.0,0.0,0.0,0.0,0.0,0.0,0.0,0.0,0.0,0.0,0.0,0.0,-2.7827,-2.8069,-2.8718,-2.8803,-2.8832,0.0,0.0,0.0,0.0,0.0,0.0,-2.926,-2.9374,-2.9466,-2.9465,-3.0088,-3.0387,-3.0246,-3.0757,-3.1138,-3.141,-3.1392,-3.1528,-3.1737,-3.1737,-3.1728,-3.171,-3.1456,-3.1365,-3.131,-2.9933,-2.952,-2.9691,-2.9287,-2.9195,-2.9246,-2.8998,-2.8814,-2.8694,0.0,0.0,0.0,0.0,0.0,0.0,0.0,0.0,0.0,0.0,0.0,0.0,0.0,0.0,-2.7299,-2.7299,-2.7299,-2.7592,0.0,0.0,0.0,0.0,0.0,0.0,0.0,0.0,0.0,-3.119,-3.119,-3.119,-3.119,-3.1157,-3.114,-3.114,-3.1106,-3.0294,-2.9025,-2.9753,-2.9634,-2.9042,0.0,0.0,0.0,0.0,0.0,0.0,0.0,0.0,0.0,0.0,0.0,0.0,0.0,0.0,0.0,0.0,0.0,0.0,0.0,0.0,0.0,0.0,0.0,0.0,0.0,0.0,0.0,0.0,0.0,0.0,0.0,0.0,0.0,0.0,0.0,0.0,0.0,0.0,0.0,-2.8518,-2.8414,0.0,0.0,0.0,0.0,-2.8432,-2.8615,-2.8923,-2.9457,-2.9929,-3.0257,-3.0409,-3.0839,-3.0921,-3.0668,-3.0761,-3.1299,-3.2228,-3.2237,-3.2675,-3.3469,-3.3469,-3.3459,-3.3338,-3.2376,-3.2061,-3.2183,-3.1328,-3.106,-3.1089,-3.0129,-2.9769,-2.965,-2.8684,-2.83,-2.8237,0.0,0.0,0.0,0.0,0.0,0.0,0.0,0.0,0.0,0.0,0.0,0.0,0.0,-2.7434,-2.7496,-2.733,-2.7299,-2.7402,-2.7661,0.0,0.0,0.0,0.0,0.0,0.0,0.0,-3.1252,-3.1274,-3.123,-3.119,-3.119,-3.119,-3.119,-3.119,-3.119,-3.0903,-3.0429,-3.07,-3.0649,-3.0429,-3.07,-3.0649,0.0,0.0,0.0,0.0,0.0,0.0,0.0,0.0,0.0,0.0,0.0,0.0,0.0,0.0,0.0,0.0,0.0,0.0,0.0,0.0,0.0,0.0,0.0,0.0,0.0,0.0,0.0,0.0,0.0,0.0,0.0,0.0,0.0,0.0,0.0,0.0,0.0,-2.838,-2.8327,0.0,-2.9071,-2.9125,-2.934,-2.9916,-2.9971,-3.0125,-3.0376,-3.0514,-3.0875,-3.1516,-3.2038,-3.2529,-3.2957,-3.3391,-3.3817,-3.4167,-3.415,-3.4325,-3.4627,-3.4627,-3.4627,-3.4577,-3.4193,-3.4117,-3.4146,-3.3858,-3.2649,-3.0939,-3.0448,-3.0255,-3.0202,-2.9866,-2.9719,-2.969,0.0,0.0,0.0,0.0,0.0,0.0,0.0,0.0,0.0,0.0,0.0,-2.7496,-2.7313,-2.7465,-2.7496,-2.733,-2.7299,-2.7506,-2.8006,0.0,0.0,0.0,0.0,0.0,0.0,-3.1368,-3.1252,-3.1295,-3.1252,-3.1213,-3.1213,-3.1213,-3.1213,-3.119,-3.119,-3.119,-3.119,-3.119,-3.119,-3.119,-3.119,-3.119,-3.119,0.0,0.0,0.0,0.0,0.0,0.0,0.0,0.0,0.0,0.0,0.0,0.0,0.0,0.0,0.0,0.0,0.0,0.0,0.0,0.0,0.0,0.0,0.0,0.0,0.0,0.0,0.0,0.0,0.0,0.0,0.0,0.0,0.0,0.0,0.0,-2.8316,-2.8621,-2.8684,-2.8989,-2.9833,-2.9876,-3.0062,-3.0657,-3.0915,-3.1195,-3.1582,-3.184,-3.2373,-3.3226,-3.3705,-3.4181,-3.4702,-3.5172,-3.5534,-3.5818,-3.5818,-3.5894,-3.6128,-3.6128,-3.6076,-3.5989,-3.5721,-3.5614,-3.5578,-3.5328,-3.4038,-3.226,-3.1875,-3.1564,-3.1278,-3.1011,-3.0743,-3.0511,0.0,0.0,0.0,0.0,0.0,0.0,0.0,0.0,0.0,0.0,-2.7313,-2.7313,-2.7313,-2.7313,-2.733,-2.7299,-2.7299,-2.792,-2.9368,-2.9489,0.0,0.0,0.0,0.0,-3.1517,-3.1351,-3.1295,-3.1295,-3.1295,-3.1295,-3.1295,-3.1295,-3.1274,-3.119,-3.1207,-3.1207,-3.119,-3.1207,-3.1207,-3.119,-3.119,-3.119,-3.119,0.0,0.0,0.0,0.0,0.0,0.0,0.0,0.0,0.0,0.0,0.0,0.0,0.0,0.0,0.0,0.0,0.0,0.0,0.0,0.0,0.0,0.0,0.0,0.0,0.0,0.0,0.0,0.0,0.0,0.0,0.0,0.0,0.0,-2.8235,-2.8235,-2.8548,-2.9351,-2.9458,-2.9762,-3.0511,-3.06,-3.0618,-3.0654,-3.1367,-3.2197,-3.3042,-3.3894,-3.4717,-3.5522,-3.5724,-3.5824,-3.5778,-3.581,-3.6272,-3.7015,-3.7015,-3.7313,-3.7899,-3.7899,-3.7775,-3.7541,-3.6774,-3.6435,-3.6381,-3.5614,-3.5275,-3.5204,-3.4436,-3.3651,-3.2898,-3.2099,-3.1296,-3.0618,0.0,0.0,0.0,0.0,0.0,0.0,0.0,0.0,0.0,0.0,-2.76,-2.76,-2.76,-2.76,-2.7526,-2.733,-2.7299,-2.7696,-2.8644,0.0,0.0,0.0,0.0,0.0,-3.1517,-3.1351,-3.1295,-3.1295,-3.1295,-3.1274,-3.123,-3.123,-3.123,-3.1207,-3.1749,-3.1681,-3.1241,-3.1749,-3.1681,-3.119,-3.119,-3.119,-3.119,0.0,0.0,0.0,0.0,0.0,0.0,0.0,0.0,0.0,0.0,0.0,0.0,0.0,0.0,0.0,0.0,0.0,0.0,0.0,0.0,0.0,0.0,0.0,0.0,0.0,0.0,0.0,0.0,0.0,0.0,0.0,0.0,-2.969,-2.9155,-2.9084,-2.9351,-3.0118,-3.0707,-3.1367,-3.2152,-3.2777,-3.338,-3.4017,-3.4315,-3.4577,-3.4857,-3.5173,-3.566,-3.6435,-3.6438,-3.6692,-3.7146,-3.7181,-3.7254,-3.7452,-3.7452,-3.7524,-3.7667,-3.7667,-3.7667,-3.7577,-3.7362,-3.7255,-3.7238,-3.7023,-3.6934,-3.6792,-3.5435,-3.4757,-3.4543,-3.4329,-3.3758,-3.3027,0.0,0.0,0.0,0.0,0.0,0.0,0.0,0.0,0.0,0.0,-2.7701,-2.7701,-2.7701,-2.7701,-2.76,-2.7313,-2.7299,-2.773,-2.8799,0.0,0.0,0.0,0.0,-3.1462,-3.1517,-3.1329,-3.1291,-3.1368,-3.1351,-3.1443,-3.176,-3.176,-3.1873,-3.2138,-3.256,-3.251,-3.2154,-3.2577,-3.2324,-3.1647,-3.1647,-3.1461,-3.119,-3.119,-3.119,-3.119,-3.119,-3.092,-3.0514,-3.0209,0.0,0.0,0.0,0.0,0.0,0.0,0.0,0.0,0.0,0.0,0.0,0.0,0.0,0.0,0.0,0.0,0.0,0.0,0.0,0.0,0.0,0.0,0.0,0.0,-3.0328,-3.0725,-3.0637,-3.0475,-3.0654,-3.1403,-3.2224,-3.3009,-3.3776,-3.4294,-3.4791,-3.5375,-3.5731,-3.6011,-3.6107,-3.645,-3.6847,-3.7298,-3.7248,-3.7413,-3.7792,-3.7792,-3.7757,-3.7739,-3.7739,-3.7703,-3.7649,-3.7649,-3.7613,-3.7577,-3.7577,-3.7577,-3.7577,-3.7577,-3.7577,-3.7487,0.0,0.0,0.0,0.0,-3.4936,-3.4454,0.0,0.0,0.0,0.0,0.0,0.0,0.0,0.0,0.0,0.0,0.0,-2.7672,-2.7742,-2.7701,-2.7569,-2.7313,-2.7299,-2.7885,0.0,0.0,0.0,-3.0516,-3.0912,-3.1266,-3.1479,-3.1308,-3.1308,-3.1479,-3.1351,-3.1703,-3.2502,-3.2502,-3.2812,-3.3406,-3.3491,-3.3491,-3.3406,-3.3491,-3.3051,-3.2313,-3.2313,-3.185,-3.119,-3.119,-3.119,-3.119,-3.119,-3.119,-3.1106,-3.0446,0.0,0.0,0.0,0.0,0.0,0.0,0.0,0.0,0.0,0.0,0.0,0.0,0.0,0.0,0.0,0.0,0.0,0.0,0.0,0.0,0.0,0.0,0.0,0.0,-3.0595,-3.1583,-3.2354,-3.229,-3.2406,-3.3062,-3.3865,-3.4633,-3.5275,-3.5435,-3.5523,-3.5661,-3.6324,-3.6858,-3.7063,0.0,0.0,0.0,0.0,-3.8203,-3.8133,-3.8133,-3.8097,-3.8007,-3.8007,-3.79,-3.7703,-3.7703,-3.7649,-3.7577,-3.7577,-3.7577,-3.7594,-3.754,-3.754,-3.754,-3.7577,-3.7148,-3.6435,-3.5632,-3.5346,-3.5239,0.0,0.0,0.0,0.0,0.0,0.0,0.0,0.0,0.0,-2.7964,-2.7659,-2.7539,-2.7982,-2.7659,-2.7345,-2.7282,-2.7299,-2.7661,0.0,0.0,-3.0249,-3.0426,-3.0398,-3.0679,-3.1269,-3.1274,-3.1274,-3.1269,-3.1274,-3.1664,-3.233,-3.233,-3.2737,-3.344,-3.4015,-3.3964,-3.344,-3.4032,-3.3508,-3.2313,-3.2313,-3.185,-3.119,-3.119,-3.119,-3.119,-3.119,-3.119,-3.1173,-3.1038,-3.0987,-3.0954,-3.0818,0.0,0.0,0.0,0.0,0.0,0.0,0.0,0.0,0.0,0.0,0.0,0.0,0.0,0.0,0.0,0.0,0.0,0.0,0.0,0.0,-3.1574,-3.2128,-3.272,-3.346,-3.4361,-3.487,-3.4777,-3.5471,-3.6006,-3.6149,-3.6738,-3.7167,-3.7255,-3.7505,-3.7953,-3.8636,-3.8869,-3.9229,-3.9769,-3.9787,-3.9732,-3.9674,-3.9656,-3.9314,-3.8613,-3.8613,0.0,-3.7613,-3.7613,-3.7613,-3.7577,-3.7577,-3.7577,-3.7577,-3.7206,-3.7034,-3.7073,-3.7449,-3.7487,-3.7255,-3.6453,-3.6167,-3.606,0.0,0.0,0.0,0.0,0.0,0.0,0.0,0.0,0.0,0.0,-2.7672,-2.76,-2.7869,-2.7672,-2.7452,-2.7313,-2.7627,0.0,0.0,-2.8902,-2.9644,-2.9753,-3.002,-3.0564,-3.1329,-3.1291,-3.1291,-3.1363,-3.1291,-3.1625,-3.2313,-3.2313,-3.2882,-3.3964,-3.4336,-3.4506,-3.4539,-3.4895,-3.4201,-3.2848,-3.2848,-3.2188,-3.119,-3.119,-3.119,-3.119,-3.119,-3.119,-3.119,-3.119,-3.119,-3.119,-3.119,-3.119,-3.1123,0.0,0.0,0.0,0.0,0.0,0.0,0.0,0.0,0.0,0.0,0.0,0.0,0.0,0.0,-3.0626,0.0,0.0,-3.1566,-3.2319,-3.3143,-3.3765,-3.414,-3.5197,-3.5749,-3.5209,-3.6236,-3.6825,-3.6359,-3.6882,-3.7188,-3.7038,-3.7656,-3.8271,-3.8719,-3.9354,-3.9823,-4.0161,-4.0161,-4.0085,-4.0027,-4.0027,-3.9792,-3.9361,-3.8986,-3.8594,-3.8183,-3.7773,-3.7577,-3.7577,-3.7356,-3.7243,-3.7206,-3.6724,-3.6563,-3.6563,-3.6821,-3.7206,-3.7541,-3.7131,-3.6988,-3.6881,0.0,0.0,0.0,0.0,0.0,0.0,0.0,0.0,0.0,0.0,-2.7701,-2.7701,-2.7701,-2.7642,-2.7557,0.0,0.0,0.0,0.0,-2.8303,-2.8956,-2.8881,-2.9423,-3.0207,-3.1202,-3.1065,-3.1133,-3.144,-3.1269,-3.1562,-3.2313,-3.2313,-3.3,-3.4286,-3.4286,-3.4624,-3.5182,-3.5182,-3.4404,-3.3186,-3.3186,-3.2391,-3.119,-3.119,-3.119,-3.119,-3.119,-3.119,-3.119,-3.119,-3.119,-3.119,-3.119,-3.119,-3.119,-3.119,-3.119,0.0,0.0,0.0,0.0,0.0,0.0,0.0,0.0,0.0,-3.0518,-3.0667,-3.0683,-3.0957,-3.1702,-3.1835,-3.2067,-3.2779,-3.3751,-3.4408,-3.456,-3.5445,-3.5856,-3.5147,-3.6414,-3.7034,-3.6256,-3.6563,-3.6713,-3.6631,-3.751,-3.8244,-3.8642,-3.958,-4.0143,-4.0219,-4.0237,-4.0219,-4.0202,-4.0202,-4.0131,-4.001,-3.9501,-3.8999,-3.8468,-3.7945,-3.7554,-3.7319,-3.6939,-3.6741,-3.662,-3.6232,-3.6105,-3.6105,-3.6105,-3.6603,-3.7319,-3.7411,-3.754,-3.7487,0.0,0.0,0.0,0.0,0.0,0.0,0.0,0.0,0.0,0.0,0.0,0.0,0.0,0.0,0.0,0.0,0.0,0.0,-2.7135,-2.7382,-2.7715,-2.8117,-2.8098,-2.8755,-3.023,-3.0226,-3.0548,-3.123,-3.119,-3.1562,-3.2313,-3.2313,-3.273,-3.3525,-3.3525,-3.3575,-3.366,-3.366,-3.3169,-3.2408,-3.2408,-3.1918,-3.119,-3.119,-3.119,-3.119,-3.119,-3.119,-3.119,-3.119,-3.119,-3.119,-3.119,-3.119,-3.119,-3.119,0.0,-3.1015,-3.1015,-3.0855,-3.0692,-3.0692,-3.0609,-3.0526,0.0,0.0,-3.0709,-3.1328,-3.1461,-3.1719,-3.2431,-3.2564,-3.2812,-3.3557,-3.3786,-3.4114,-3.4761,-3.5311,-3.5464,-3.5001,-3.5769,-3.6316,-3.6215,-3.6274,-3.6592,-3.7309,-3.7473,-3.8157,-3.9475,-3.9676,-4.0058,-4.0712,-4.073,-4.0913,-4.1315,-4.1315,-4.0981,-4.0355,-4.0659,-3.9658,-3.7456,-3.7848,-3.7428,-3.634,-3.6298,-3.6062,-3.5749,-3.5705,-3.5661,-3.5661,-3.5661,-3.595,-3.6399,-3.6821,-3.7243,-3.7577,0.0,0.0,0.0,0.0,0.0,0.0,0.0,0.0,0.0,0.0,0.0,0.0,0.0,0.0,0.0,0.0,0.0,0.0,-2.7055,-2.7103,-2.7348,-2.786,-2.7894,-2.8403,-2.9508,-2.9909,-3.0281,-3.0607,-3.1009,-3.136,-3.1647,-3.1647,-3.2036,-3.2747,-3.2747,-3.3,-3.3406,-3.3406,-3.2966,-3.2313,-3.2313,-3.185,-3.119,-3.119,-3.119,-3.119,-3.119,-3.119,0.0,0.0,-3.119,-3.119,-3.119,-3.119,-3.119,-3.119,-3.1112,0.0,-3.0855,-3.0773,0.0,0.0,-3.0841,-3.1113,-3.1113,-3.1487,-3.1868,-3.2183,-3.2249,-3.2464,-3.3193,-3.3326,-3.3574,0.0,-3.4435,-3.4551,-3.4849,-3.5071,-3.5102,-3.4947,-3.5224,-3.5436,-3.5436,-3.5688,-3.6055,-3.6591,-3.7291,-3.8111,-3.917,-3.995,-4.0486,-4.0784,-4.0802,-4.1036,-4.149,-4.1472,-4.1376,-4.1042,-4.0775,-3.9956,-3.8636,-3.7958,-3.6999,-3.5864,-3.5864,-3.5616,-3.5195,-3.5195,-3.5195,-3.5195,-3.5195,-3.5436,-3.5907,-3.6357,-3.6603,-3.6821,0.0,0.0,0.0,0.0,0.0,0.0,0.0,0.0,0.0,0.0,0.0,0.0,0.0,0.0,0.0,0.0,0.0,0.0,0.0,-2.6942,-2.7097,-2.7486,-2.7589,-2.798,-2.871,-2.9214,-2.9604,-2.9864,-3.0349,-3.0581,-3.0581,-3.0801,-3.1173,-3.1681,-3.1901,-3.2273,-3.2797,-3.2797,-3.2476,-3.1985,-3.1985,-3.1664,-3.119,-3.119,-3.119,-3.1151,-3.119,-3.119,0.0,0.0,-3.1151,-3.1151,-3.1112,-3.1112,-3.1112,-3.1112,-3.1015,-3.0895,-3.0692,0.0,0.0,-3.0824,-3.1371,-3.1918,-3.1918,-3.2315,-3.2746,-3.2945,-3.2994,-3.3226,-3.3955,-3.4087,-3.427,-3.48,-3.4899,-3.4899,-3.4899,-3.4899,-3.4899,-3.4899,-3.4899,-3.4899,-3.4899,-3.5195,-3.5689,-3.629,-3.7116,-3.8016,-3.8958,-3.9881,-4.0368,-4.0368,-4.0368,-4.0689,-4.1293,-4.1139,-4.1139,-4.1293,-4.0752,-4.0054,-3.916,-3.7643,-3.6356,-3.5407,-3.5407,-3.5195,-3.4899,-3.4899,-3.4899,-3.4899,-3.4899,-3.5102,-3.5453,-3.5715,-3.5977,-3.6274,0.0,0.0,0.0,0.0,0.0,0.0,0.0,0.0,0.0,0.0,0.0,0.0,0.0,0.0,0.0,0.0,0.0,0.0,0.0,-2.6792,-2.6708,-2.6725,-2.6725,-2.708,-2.7841,-2.784,-2.8264,-2.9045,-2.9079,-2.9096,-2.9059,-2.9803,-3.0159,-3.0209,-3.0903,-3.1241,-3.1258,-3.1258,-3.1241,-3.1224,-3.1224,-3.1207,-3.119,-3.119,-3.1112,-3.1015,-3.1151,0.0,0.0,0.0,-3.1015,-3.0975,-3.0952,-3.0912,0.0,-3.0912,-3.0814,0.0,0.0,0.0,-3.1586,-3.1543,-3.2116,-3.2646,-3.2646,-3.2663,-3.2895,-3.3607,-3.3756,-3.3988,-3.4717,-3.4866,-3.4866,-3.4899,-3.4899,-3.4899,-3.4899,-3.4899,-3.4899,-3.4899,-3.4899,-3.4899,0.0,-3.4899,-3.5495,-3.697,-3.7085,-3.7783,-3.9209,-3.9309,-3.9325,-3.9325,-3.9325,-3.9799,-4.0802,-4.0302,-4.0302,-4.0802,-4.0784,-3.9861,-3.8214,-3.6721,-3.5643,-3.4947,-3.4947,-3.4899,-3.4899,-3.4899,-3.4899,-3.4899,-3.4899,-3.4899,-3.4947,-3.493,-3.5481,-3.6172,0.0,0.0,0.0,0.0,0.0,0.0,0.0,0.0,0.0,0.0,0.0,0.0,0.0,0.0,0.0,0.0,0.0,0.0,0.0,-2.6775,-2.6691,-2.6691,-2.6691,-2.681,-2.7063,-2.7571,-2.7908,-2.8213,-2.8738,-2.9011,-2.9028,-2.9245,-2.9364,-2.9364,-2.9617,-2.9719,-2.9719,-2.9719,-2.9719,-2.9719,-2.9719,-2.9719,-2.977,-3.0277,-3.0386,-3.0342,0.0,0.0,0.0,0.0,0.0,0.0,-3.0773,0.0,-3.041,-3.0692,-3.0749,-3.0767,0.0,0.0,-3.1735,-3.2216,-3.2878,-3.3425,-3.3425,-3.3806,-3.4087,-3.3839,-3.3789,-3.3723,-3.3475,-3.3839,-3.417,-3.417,-3.4584,-3.4899,-3.4899,-3.4899,-3.4899,-3.4899,-3.4899,0.0,0.0,0.0,0.0,-3.7036,-3.7566,-3.8261,-3.9222,-3.9272,-3.9272,-3.9272,-3.9272,-3.9609,-4.0252,-4.0103,-4.0103,-4.0252,-3.9935,-3.8973,-3.7466,-3.697,-3.6059,-3.4899,-3.4899,-3.4899,-3.4899,-3.4899,-3.4899,-3.4899,-3.4899,-3.4899,-3.4899,-3.4899,-3.5102,-3.5391,0.0,0.0,0.0,0.0,0.0,0.0,0.0,0.0,0.0,0.0,0.0,0.0,0.0,0.0,0.0,0.0,0.0,0.0,0.0,0.0,-2.6742,-2.6691,-2.6691,-2.6691,-2.6691,-2.7165,-2.7418,-2.7418,-2.7909,-2.8163,-2.8163,-2.845,-2.8569,-2.8569,-2.8856,-2.9011,-2.9011,-2.9011,-2.9144,-2.9364,-2.9093,-2.9127,-2.9343,-2.9542,-2.9534,0.0,0.0,0.0,0.0,0.0,0.0,0.0,0.0,-3.0284,-3.0054,-3.0284,-3.0692,-3.1108,-3.1487,-3.2,-3.2514,-3.2961,-3.364,-3.4187,-3.4187,-3.4352,-3.4369,-3.3889,-3.3574,-3.3243,-3.2779,-3.3077,-3.3392,-3.3392,-3.4021,-3.4502,-3.4502,-3.4717,-3.4899,-3.4899,-3.4899,-3.5181,0.0,0.0,0.0,-3.745,-3.7947,-3.8526,-3.9239,-3.9272,-3.9272,-3.9272,-3.9272,-3.9504,-4.0003,-3.9817,-3.9731,-3.9731,-3.9451,-3.8659,-3.7483,-3.7235,-3.6439,-3.528,-3.5015,-3.4899,-3.4899,-3.4899,-3.4899,-3.4899,-3.4899,-3.4899,-3.4899,-3.4899,-3.4899,-3.493,0.0,0.0,0.0,0.0,0.0,0.0,0.0,0.0,0.0,0.0,0.0,0.0,0.0,0.0,0.0,0.0,0.0,0.0,0.0,0.0,0.0,-2.6691,-2.6691,-2.6691,-2.6691,-2.6691,-2.6691,-2.6691,-2.6691,-2.6691,-2.6708,-2.7435,-2.7722,-2.7755,-2.8535,-2.8892,-2.8892,-2.8892,-2.9279,-2.9871,-2.9161,-2.9205,-2.9652,-2.9013,0.0,0.0,0.0,0.0,0.0,0.0,0.0,0.0,0.0,0.0,-2.9853,-2.9853,-3.068,-3.1636,-3.1626,-3.2713,-3.3806,-3.3839,-3.4369,-3.4883,-3.4849,-3.4286,-3.3773,-3.369,-3.3127,-3.2613,0.0,0.0,-3.263,-3.263,-3.3276,-3.3789,-3.3789,-3.4419,-3.4899,0.0,0.0,0.0,0.0,0.0,0.0,-3.8212,0.0,-3.856,-3.9239,-3.9272,-3.9272,-3.9272,-3.9272,-3.9504,-3.9952,-3.9504,-3.9272,-3.9272,-3.9272,-3.8907,-3.8179,-3.745,-3.6704,-3.5959,-3.5214,-3.4899,-3.4899,-3.4899,-3.4899,-3.4899,-3.4899,-3.4899,-3.4899,-3.4899,-3.4899,-3.4899,0.0,0.0,0.0,0.0,0.0,0.0,0.0,0.0,0.0,0.0,0.0,0.0,0.0,0.0,0.0,0.0,0.0,0.0,0.0,0.0,0.0,0.0,0.0,0.0,0.0,0.0,0.0,0.0,0.0,-2.6691,-2.6691,-2.6894,-2.6979,-2.6996,-2.7182,-2.7283,-2.7283,-2.7283,-2.7367,-2.7483,0.0,-2.7261,-2.7391,0.0,0.0,0.0,0.0,0.0,0.0,0.0,0.0,0.0,0.0,0.0,-3.0342,-3.0342,-3.0912,-3.1692,-3.2266,-3.3094,-3.3922,-3.4468,-3.475,-3.475,-3.4203,-3.3922,-3.3491,-3.2398,-3.2034,-3.1719,0.0,0.0,0.0,-3.1901,-3.2961,0.0,-3.3789,-3.4419,0.0,-3.4899,0.0,-3.6009,-3.6754,-3.75,0.0,0.0,-3.9007,-3.9073,-3.9309,-3.9272,-3.9272,-3.9272,-3.9272,-3.9379,-3.9468,-3.9379,-3.9272,-3.9272,-3.9272,-3.8907,-3.8179,-3.745,-3.6704,-3.5959,-3.5214,-3.4899,-3.4899,-3.4899,-3.4899,-3.4899,-3.4899,-3.4899,-3.4899,-3.4899,-3.4899,-3.4899,0.0,0.0,0.0,0.0,0.0,0.0,0.0,0.0,0.0,0.0,0.0,0.0,0.0,0.0,0.0,0.0,0.0,0.0,0.0,0.0,0.0,0.0,0.0,0.0,0.0,0.0,0.0,0.0,0.0,0.0,0.0,-2.6691,-2.6691,-2.6691,-2.6691,-2.6691,-2.6691,-2.6691,0.0,0.0,0.0,0.0,0.0,0.0,0.0,0.0,0.0,0.0,0.0,0.0,0.0,-2.9681,-2.941,-2.9723,-3.0264,-3.0592,0.0,-3.2249,-3.2978,-3.3707,-3.4369,-3.48,-3.4651,-3.4303,-3.3889,-3.3292,-3.2613,-3.1785,-3.1328,0.0,0.0,0.0,0.0,0.0,0.0,0.0,-3.3259,-3.3938,-3.4535,0.0,-3.5545,0.0,-3.7036,-3.7781,-3.851,0.0,-3.9272,-3.9272,-3.9272,-3.9272,-3.9272,-3.9272,-3.9272,-3.9272,-3.9272,-3.9272,-3.9272,-3.9272,-3.9272,-3.9056,-3.8659,-3.793,-3.7185,-3.6439,-3.5694,-3.5197,-3.4899,-3.4899,-3.4899,-3.4899,-3.4899,-3.4899,-3.4899,-3.4899,-3.4899,-3.4899,0.0,0.0,0.0,0.0,0.0,0.0,0.0,0.0,0.0,0.0,0.0,0.0,0.0,0.0,0.0,0.0,0.0,0.0,0.0,0.0,0.0,0.0,0.0,0.0,0.0,0.0,0.0,0.0,0.0,0.0,0.0,0.0,0.0,0.0,0.0,0.0,0.0,0.0,0.0,0.0,0.0,0.0,0.0,0.0,0.0,0.0,0.0,0.0,0.0,0.0,-2.8369,-2.8695,-2.8777,-2.9231,-2.9913,-3.0725,-3.179,-3.2845,-3.3591,-3.4336,-3.4899,-3.4899,-3.4336,-3.3756,-3.3673,-3.2597,-3.1543,-3.1444,0.0,-3.0526,-3.0526,-3.0526,-3.0526,-3.0526,0.0,-3.1868,-3.258,-3.3326,-3.4054,-3.48,-3.5644,-3.6406,-3.7052,-3.7864,-3.8609,-3.9222,-3.9272,-3.9272,-3.9272,-3.9272,-3.9272,-3.9272,-3.9272,-3.9272,-3.9272,-3.9272,-3.9272,-3.9272,-3.9272,-3.9272,-3.9255,-3.8543,-3.7864,-3.7201,-3.6357,-3.5644,-3.5032,-3.4932,-3.4965,-3.5048,-3.5048,-3.5098,-3.5197,-3.5197,-3.5131,-3.5048,0.0,0.0,0.0,0.0,0.0,0.0,0.0,0.0,0.0,0.0,0.0,0.0,0.0,0.0,0.0,0.0,0.0,0.0,0.0,0.0,0.0,0.0,0.0,0.0,0.0,0.0,0.0,0.0,0.0,0.0,0.0,0.0,0.0,0.0,0.0,0.0,0.0,0.0,0.0,0.0,0.0,0.0,0.0,0.0,0.0,0.0,0.0,0.0,0.0,0.0,-2.7425,-2.8537,-2.9098,-2.9378,-2.9741,-3.1094,-3.2045,-3.2845,-3.3591,-3.4336,-3.4899,-3.4899,-3.4336,-3.3624,-3.3011,-3.2232,0.0,0.0,0.0,-3.0526,-3.0526,-3.0526,0.0,-3.0526,0.0,0.0,0.0,0.0,-3.4054,0.0,0.0,0.0,0.0,0.0,0.0,0.0,-3.9272,-3.9272,-3.9272,-3.9272,-3.9272,-3.9272,-3.9272,-3.9272,-3.9272,-3.9272,-3.9272,-3.9272,-3.9272,-3.9272,-3.9255,-3.8543,-3.8146,-3.7947,-3.6589,-3.5926,-3.576,-3.5148,-3.5263,-3.581,-3.581,-3.6191,-3.6721,-3.6721,-3.634,-3.581,0.0,0.0,0.0,0.0,0.0,0.0,0.0,0.0,0.0,0.0,-2.6368,-2.6836,0.0,0.0,0.0,0.0,0.0,0.0,0.0,0.0,0.0,0.0,0.0,0.0,0.0,0.0,0.0,0.0,0.0,0.0,0.0,0.0,0.0,0.0,0.0,0.0,0.0,0.0,0.0,0.0,0.0,0.0,0.0,0.0,0.0,0.0,0.0,0.0,0.0,0.0,-2.6684,-2.7379,-2.8075,-2.882,-2.9632,-3.0725,-3.1818,-3.2845,-3.3591,-3.4054,-3.4319,-3.4319,-3.3291,-3.2187,-3.1827,0.0,0.0,0.0,0.0,-3.0113,-3.0113,0.0,0.0,0.0,0.0,0.0,0.0,0.0,0.0,0.0,0.0,0.0,0.0,0.0,0.0,-3.9239,-3.9272,-3.9272,-3.9272,-3.9272,-3.9272,-3.9272,-3.9272,-3.9272,-3.9272,-3.9272,-3.9272,-3.9272,-3.9272,-3.9272,-3.9309,-3.8924,-3.856,-3.8179,-3.7466,-3.6936,-3.6555,-3.6191,-3.6257,-3.6572,-3.6572,-3.6787,-3.7102,-3.7102,-3.6638,-3.6009,0.0,0.0,0.0,0.0,0.0,0.0,0.0,-2.3933,-2.482,-2.482,-2.5387,-2.5569,-2.5039,-2.5799,0.0,0.0,0.0,0.0,0.0,0.0,0.0,0.0,0.0,0.0,0.0,0.0,0.0,0.0,0.0,0.0,0.0,0.0,0.0,0.0,0.0,0.0,0.0,0.0,0.0,0.0,0.0,0.0,0.0,0.0,0.0,0.0,0.0,0.0,0.0,0.0,-2.622,-2.6267,-2.6776,-2.7778,-2.9015,-3.017,-3.1236,-3.2326,-3.3309,-3.3557,-3.3557,-3.3557,-3.2295,-3.1014,-3.0924,-3.0041,0.0,0.0,-2.9393,-2.9661,-2.9661,0.0,0.0,0.0,0.0,0.0,0.0,0.0,0.0,0.0,0.0,0.0,0.0,0.0,0.0,-3.9222,-3.9272,-3.9272,-3.9272,-3.9272,-3.9272,-3.9272,-3.9272,-3.9272,-3.9272,-3.9272,-3.9272,-3.9272,-3.9272,-3.9272,-3.9272,-3.9272,-3.8974,-3.8427,-3.8278,-3.788,-3.7334,-3.7168,-3.7201,-3.735,-3.735,-3.7433,-3.7566,-3.7566,-3.7003,-3.6241,0.0,0.0,0.0,0.0,0.0,0.0,0.0,-2.3397,-2.3925,-2.3925,-2.3979,-2.4013,-2.393,-2.5088,0.0,0.0,0.0,0.0,0.0,0.0,0.0,0.0,0.0,0.0,0.0,0.0,0.0,0.0,0.0,0.0,0.0,0.0,0.0,0.0,0.0,0.0,0.0,0.0,0.0,0.0,0.0,0.0,0.0,0.0,0.0,0.0,0.0,0.0,0.0,0.0,0.0,-2.6132,-2.5803,-2.6211,-2.7346,-2.9774,0.0,0.0,-3.2326,-3.2779,-3.2779,-3.2779,-3.2155,-3.1429,-3.1014,0.0,0.0,-2.9166,-2.912,-2.9166,-2.9166,-2.9212,0.0,0.0,0.0,0.0,0.0,0.0,0.0,0.0,0.0,0.0,0.0,0.0,0.0,-3.9222,-3.9272,-3.9272,-3.9272,-3.9272,-3.9272,-3.9272,-3.9272,-3.9272,-3.9272,-3.9272,-3.9272,-3.9272,-3.9272,-3.9272,-3.9272,-3.9272,-3.9239,-3.9139,-3.8493,-3.8179,-3.8063,-3.7384,-3.75,-3.8112,-3.8112,-3.851,-3.9073,-3.9073,-3.8195,-3.6936,0.0,0.0,0.0,0.0,0.0,0.0,0.0,-2.3614,-2.3795,-2.3795,-2.3795,-2.3795,-2.3795,-2.4288,-2.4734,0.0,0.0,0.0,0.0,0.0,0.0,0.0,0.0,0.0,0.0,0.0,0.0,0.0,0.0,0.0,0.0,0.0,0.0,0.0,0.0,0.0,0.0,0.0,0.0,0.0,0.0,0.0,0.0,0.0,0.0,0.0,0.0,0.0,0.0,0.0,0.0,0.0,-2.5631,-2.5545,0.0,0.0,-2.879,-2.9989,-3.0293,-3.1199,-3.1934,-3.1504,-3.0942,-3.0407,-2.9916,0.0,0.0,-2.8271,-2.8415,-2.8638,-2.8638,-2.8873,-2.9166,0.0,0.0,0.0,0.0,0.0,0.0,0.0,0.0,0.0,0.0,0.0,0.0,-3.9189,-3.9272,-3.9272,-3.9272,-3.9272,-3.9272,-3.9272,-3.9272,-3.9272,-3.9272,-3.9272,-3.9272,-3.9272,-3.9272,-3.9272,-3.9272,-3.9272,-3.9272,-3.9255,-3.8974,-3.8858,-3.8825,-3.8543,-3.8593,-3.8841,-3.8417,-3.8472,-3.8662,-3.8311,-3.7182,-3.5851,0.0,0.0,0.0,0.0,0.0,0.0,-2.3723,-2.3795,-2.3795,-2.3795,-2.3795,-2.3795,-2.3795,-2.3795,-2.4031,-2.4592,0.0,0.0,0.0,0.0,0.0,0.0,0.0,0.0,0.0,0.0,0.0,-2.7338,-2.6973,0.0,0.0,0.0,0.0,0.0,0.0,0.0,0.0,0.0,0.0,0.0,0.0,0.0,0.0,0.0,0.0,0.0,0.0,0.0,0.0,0.0,0.0,0.0,0.0,0.0,0.0,0.0,-2.736,-2.8806,-2.8563,-2.958,-3.0655,-3.0286,-2.9929,-2.9621,0.0,0.0,-2.84,-2.7894,-2.8076,-2.8255,-2.811,-2.8511,-2.8889,0.0,0.0,0.0,0.0,0.0,0.0,0.0,0.0,0.0,0.0,0.0,-3.7947,-3.9242,-3.9272,-3.9272,-3.9272,-3.9272,-3.9272,-3.9272,-3.9272,-3.9272,-3.9272,-3.9272,-3.9272,-3.9272,-3.9272,-3.9272,-3.9272,-3.9272,-3.9272,-3.9272,-3.9272,-3.9202,-3.9023,-3.9023,-3.8914,-3.8678,-3.8238,-3.8051,-3.7978,-3.7292,-3.618,-3.5043,0.0,0.0,0.0,0.0,0.0,0.0,0.0,-2.3795,-2.3795,-2.3795,-2.3795,-2.3795,-2.3795,-2.3795,-2.3795,-2.3813,0.0,0.0,0.0,0.0,0.0,0.0,0.0,0.0,0.0,0.0,-2.6882,-2.7683,-2.7369,-2.7181,-2.7181,-2.6792,0.0,0.0,0.0,0.0,0.0,0.0,0.0,0.0,0.0,0.0,0.0,0.0,0.0,0.0,0.0,0.0,0.0,0.0,0.0,0.0,0.0,0.0,0.0,0.0,-2.6228,-2.6616,-2.7467,-2.819,-2.8825,-2.9296,-2.9417,-2.9477,0.0,0.0,-2.8935,-2.8384,-2.8288,-2.8158,-2.771,-2.7978,-2.8304,-2.8304,-2.8304,0.0,0.0,0.0,0.0,0.0,0.0,0.0,0.0,0.0,-3.8493,-3.9222,-3.9272,0.0,-3.9272,-3.9272,-3.9272,-3.9272,-3.9272,-3.9272,-3.9272,-3.9272,-3.9272,-3.9272,-3.9272,-3.9272,-3.9272,-3.9272,-3.9272,-3.9272,-3.9272,-3.8898,-3.8294,-3.8294,-3.7937,-3.7429,-3.7429,-3.7429,-3.7275,-3.6432,-3.5697,-3.4908,0.0,0.0,0.0,0.0,0.0,0.0,0.0,-2.3795,-2.3795,-2.3795,-2.3795,-2.3795,-2.3795,-2.3795,-2.3795,-2.3795,0.0,0.0,0.0,0.0,0.0,0.0,0.0,0.0,0.0,0.0,-2.6176,-2.7218,-2.6801,-2.6784,-2.7181,-2.6939,-2.6708,-2.652,0.0,0.0,0.0,0.0,0.0,0.0,0.0,0.0,0.0,0.0,0.0,0.0,0.0,0.0,0.0,0.0,0.0,0.0,0.0,0.0,0.0,0.0,0.0,0.0,-2.6139,-2.7146,-2.8184,-2.7859,-2.8158,-2.843,-2.8149,-2.8342,-2.84,-2.7944,-2.8076,-2.824,-2.8125,-2.8496,-2.8732,-2.8352,-2.8591,0.0,0.0,0.0,0.0,0.0,0.0,0.0,0.0,0.0,-3.851,-3.9222,-3.9272,-3.9272,-3.9272,-3.9272,-3.9272,-3.9272,-3.9272,-3.9272,-3.9272,-3.9272,-3.9272,-3.9272,-3.8775,-3.8543,-3.8526,-3.803,-3.7821,-3.7872,-3.7872,-3.7801,-3.7706,-3.7706,-3.7589,-3.7322,-3.63,-3.5888,-3.5735,-3.444,-3.3502,-3.2796,0.0,0.0,0.0,0.0,0.0,0.0,0.0,-2.3795,-2.3795,-2.3795,-2.3795,-2.3795,-2.3795,-2.3795,-2.3795,-2.3795,0.0,0.0,0.0,0.0,0.0,0.0,0.0,0.0,0.0,-2.5212,-2.5671,-2.667,-2.6533,-2.6807,-2.7474,-2.7161,-2.6954,-2.6775,-2.6572,0.0,0.0,0.0,0.0,0.0,0.0,0.0,-2.4,0.0,0.0,0.0,0.0,0.0,0.0,0.0,0.0,0.0,0.0,0.0,0.0,0.0,-2.5087,0.0,0.0,-2.6324,-2.7306,-2.7056,-2.7363,0.0,0.0,-2.7752,-2.79,-2.7883,-2.8125,-2.8255,-2.8076,-2.8606,-2.8935,-2.84,-2.8732,0.0,0.0,0.0,0.0,0.0,0.0,0.0,0.0,-3.7051,-3.7682,-3.8394,-3.846,-3.846,-3.846,-3.846,-3.846,-3.846,-3.8725,-3.8742,-3.846,-3.846,-3.846,-3.8444,-3.8013,-3.7678,-3.742,-3.696,-3.6662,-3.6509,-3.6509,-3.6413,0.0,-3.6169,-3.6035,-3.5644,-3.4744,-3.4348,-3.4211,-3.3013,-3.2232,-3.1757,0.0,0.0,0.0,0.0,0.0,0.0,0.0,0.0,0.0,0.0,-2.3795,-2.3795,-2.3795,-2.3795,-2.3795,0.0,0.0,0.0,0.0,0.0,0.0,0.0,0.0,0.0,0.0,-2.4454,-2.5149,-2.5841,-2.6391,-2.704,-2.7738,-2.7465,-2.7334,-2.7286,-2.6906,-2.6725,-2.6691,-2.6364,-2.6203,-2.622,-2.622,-2.5325,0.0,0.0,0.0,0.0,0.0,0.0,0.0,0.0,0.0,0.0,0.0,0.0,0.0,0.0,0.0,0.0,0.0,0.0,0.0,0.0,0.0,0.0,0.0,-2.7579,0.0,-2.8056,-2.8258,-2.8158,-2.771,-2.8463,-2.8982,-2.8432,0.0,0.0,0.0,0.0,0.0,0.0,0.0,0.0,0.0,-3.5894,-3.6257,-3.7002,-3.7051,-3.7051,-3.7051,-3.7051,-3.7035,-3.6969,-3.7647,-3.7696,-3.7119,-3.7102,-3.7102,-3.7102,-3.7002,-3.6664,-3.6129,-3.6027,-3.5706,-3.5276,-3.5221,-3.4784,-3.4147,-3.4147,-3.3668,-3.3007,-3.2978,-3.2886,-3.2812,-3.2009,-3.1714,-3.1626,0.0,0.0,0.0,0.0,0.0,0.0,0.0,0.0,0.0,0.0,0.0,-2.3795,-2.3795,-2.3795,0.0,0.0,0.0,0.0,0.0,0.0,0.0,0.0,0.0,0.0,0.0,-2.3001,-2.3181,-2.3358,-2.4692,-2.5622,-2.6154,-2.7197,-2.7565,-2.7286,-2.7132,-2.6956,-2.6691,-2.6607,-2.6417,-2.622,-2.622,-2.5325,0.0,0.0,0.0,0.0,-2.1797,-2.1897,0.0,0.0,0.0,0.0,0.0,0.0,0.0,0.0,-2.4058,-2.4128,-2.4611,0.0,-2.5138,-2.5788,0.0,0.0,0.0,0.0,0.0,0.0,0.0,0.0,0.0,0.0,0.0,0.0,0.0,0.0,0.0,0.0,0.0,0.0,0.0,0.0,-3.5729,-3.5745,-3.599,-3.673,-3.6795,-3.6795,-3.6795,-3.6795,-3.6533,-3.5974,-3.6122,-3.6503,-3.7102,-3.7102,-3.7102,-3.7102,-3.6086,-3.5535,-3.538,-3.4366,-3.3864,-3.3857,-3.3712,-3.3572,-3.3499,-3.3332,-3.3193,-3.2978,-3.2306,-3.2068,-3.198,-3.1154,-3.086,-3.0831,0.0,0.0,0.0,0.0,0.0,0.0,0.0,0.0,0.0,0.0,0.0,0.0,0.0,0.0,0.0,0.0,0.0,0.0,0.0,0.0,0.0,0.0,0.0,0.0,-2.1931,-2.2273,-2.2252,-2.1855,-2.3356,-2.4462,-2.5212,-2.6594,-2.7214,-2.7157,-2.7347,-2.7227,-2.6923,-2.6758,-2.6607,-2.64,-2.5893,0.0,0.0,0.0,0.0,0.0,-2.1797,-2.1797,0.0,-2.1999,-2.2037,-2.2054,0.0,0.0,0.0,0.0,-2.3483,-2.3756,-2.3985,-2.4268,-2.4641,-2.503,-2.4851,-2.4716,0.0,0.0,0.0,0.0,0.0,0.0,0.0,0.0,0.0,0.0,0.0,0.0,0.0,0.0,0.0,0.0,0.0,0.0,0.0,-3.5086,-3.525,-3.566,-3.5676,-3.5676,-3.5676,-3.5676,-3.5379,-3.4686,-3.497,-3.5333,-3.5877,-3.5643,-3.5475,-3.5459,-3.4471,-3.3911,-3.366,-3.2928,-3.2496,-3.2324,-3.2208,-3.2184,-3.2119,-3.2044,-3.1953,-3.1863,-3.1404,-3.1273,-3.1183,-3.0758,-3.0568,-3.0568,0.0,0.0,0.0,0.0,0.0,0.0,0.0,0.0,0.0,0.0,0.0,0.0,0.0,0.0,0.0,0.0,0.0,0.0,0.0,0.0,0.0,0.0,0.0,-2.2965,-2.1225,-2.1852,-2.1724,-2.0751,-2.2094,-2.3276,-2.4373,-2.5658,-2.6534,-2.7032,-2.755,-2.7582,-2.7276,-2.6971,-2.6791,-2.659,-2.5581,0.0,0.0,0.0,0.0,0.0,0.0,0.0,0.0,-2.1797,-2.195,-2.2084,-2.1689,0.0,0.0,0.0,0.0,0.0,-2.3363,-2.3792,-2.4311,-2.4522,-2.4432,-2.449,0.0,0.0,0.0,0.0,0.0,0.0,0.0,0.0,0.0,0.0,0.0,0.0,0.0,0.0,0.0,0.0,0.0,0.0,-3.4184,-3.4349,-3.4399,-3.4333,-3.4399,-3.4399,-3.4333,-3.4284,-3.4052,-3.3443,-3.3901,-3.4184,-3.4184,-3.3767,-3.3531,-3.3479,-3.2833,-3.236,-3.189,-3.1849,-3.1537,-3.1087,-3.1087,-3.0955,-3.0821,-3.0762,-3.0702,-3.0568,-3.0568,-3.0568,-3.0568,-3.0568,-3.0568,-3.0568,0.0,0.0,0.0,0.0,0.0,0.0,0.0,0.0,0.0,0.0,0.0,0.0,0.0,0.0,0.0,0.0,0.0,0.0,0.0,0.0,0.0,0.0,-2.3721,-2.2901,-2.1164,-2.1253,-2.059,-1.9144,-2.0506,-2.1657,-2.2696,-2.4014,-2.5472,-2.7032,-2.7798,-2.794,-2.7612,-2.7565,-2.7227,-2.6623,-2.5847,0.0,0.0,0.0,0.0,0.0,0.0,0.0,0.0,-2.1797,-2.1653,-2.144,-2.1462,0.0,0.0,0.0,0.0,0.0,-2.3157,-2.3319,-2.3465,-2.419,-2.3895,-2.3659,0.0,0.0,0.0,0.0,0.0,0.0,0.0,0.0,0.0,0.0,0.0,0.0,0.0,0.0,0.0,0.0,0.0,-3.3459,-3.3563,-3.3917,-3.3917,-3.3459,-3.3866,-3.3917,-3.3407,-3.3407,-3.3145,-3.2586,-3.2641,-3.2711,-3.2711,-3.3303,-3.3323,-3.2833,-3.2305,-3.1987,-3.1875,-3.1437,-3.119,-3.1087,-3.0895,-3.0821,-3.0762,-3.0702,-3.0642,-3.0568,-3.0568,-3.0568,-3.0568,-3.0568,-3.0568,-3.0568,0.0,0.0,0.0,0.0,0.0,0.0,0.0,0.0,0.0,0.0,0.0,0.0,0.0,0.0,0.0,0.0,0.0,0.0,0.0,0.0,0.0,-2.37,-2.3286,-2.2431,-2.1126,-2.1108,-2.0281,-1.8638,-1.9507,-2.0388,-2.1329,-2.3766,-2.5667,-2.7032,-2.7852,-2.8109,-2.7968,-2.7789,-2.717,-2.6304,0.0,0.0,0.0,0.0,0.0,0.0,0.0,0.0,0.0,0.0,-2.1648,-2.1451,-2.1093,0.0,0.0,0.0,0.0,0.0,-2.2937,-2.3023,-2.3065,-2.3447,-2.3391,-2.3377,0.0,0.0,0.0,0.0,0.0,0.0,0.0,0.0,0.0,0.0,0.0,0.0,0.0,0.0,0.0,0.0,0.0,-3.2457,-3.281,-3.3071,-3.3087,-3.2788,-3.3018,-3.3071,-3.2788,-3.2803,-3.2532,-3.1936,-3.2231,-3.2104,-3.1422,-3.2114,-3.2321,-3.2059,-3.145,-3.1175,-3.1175,-3.0925,-3.0821,-3.0821,-3.0702,-3.0702,-3.0702,-3.0642,-3.0568,-3.0568,-3.0568,-3.0568,-3.0568,-3.0568,-3.0568,-3.0568,0.0,0.0,0.0,0.0,0.0,0.0,0.0,0.0,0.0,0.0,0.0,0.0,0.0,0.0,0.0,0.0,0.0,0.0,0.0,0.0,-2.3768,-2.3678,-2.2905,-2.2034,-2.1126,-2.0929,-2.0101,-1.8563,-1.9056,-1.9802,-2.083,-2.3771,-2.5711,-2.6746,-2.7567,-2.7958,-2.7989,-2.7595,-2.6835,-2.5819,0.0,0.0,0.0,0.0,0.0,0.0,0.0,0.0,0.0,0.0,0.0,0.0,0.0,0.0,0.0,-2.1011,-2.1347,-2.1902,-2.2497,-2.2786,-2.2888,-2.2888,0.0,-2.3214,-2.371,0.0,0.0,0.0,0.0,0.0,0.0,0.0,0.0,0.0,0.0,0.0,0.0,0.0,-2.9271,-2.9524,-3.0616,-3.1482,-3.1925,-3.2235,-3.2342,-3.2216,-3.2342,-3.2342,-3.2231,-3.2176,-3.1879,-3.1306,-3.1709,-3.1537,-3.0628,-3.1087,-3.1321,-3.1248,-3.0807,-3.0568,-3.0568,-3.0568,-3.0568,-3.0568,-3.0568,-3.0568,-3.0568,-3.0568,-3.0568,-3.0568,-3.0568,-3.0568,-3.0568,-3.0568,-3.0568,-3.0568,0.0,0.0,0.0,0.0,0.0,0.0,0.0,0.0,0.0,0.0,0.0,0.0,0.0,0.0,0.0,0.0,0.0,0.0,0.0,0.0,-2.3678,-2.3607,-2.2841,-2.1992,-2.1126,-2.043,-1.9663,-1.8769,-1.9303,-2.0363,-2.1914,-2.3601,-2.4908,-2.5925,-2.6728,-2.7252,-2.7519,-2.6865,-2.6105,-2.5227,-2.3863,0.0,0.0,0.0,0.0,0.0,0.0,0.0,0.0,0.0,0.0,0.0,0.0,0.0,-2.0512,-2.0338,-2.0648,-2.122,-2.1873,-2.2483,-2.2888,-2.2888,0.0,0.0,-2.3006,0.0,0.0,0.0,0.0,0.0,0.0,0.0,0.0,0.0,0.0,0.0,0.0,0.0,-2.8032,-2.8629,-2.9793,-3.0573,-3.0633,-3.1723,-3.216,-3.1595,-3.2048,-3.2176,-3.1595,-3.1537,-3.1321,-3.0687,-3.0687,-3.0687,-3.0568,-3.0628,-3.0687,-3.0687,-3.0628,-3.0568,-3.0568,-3.0568,-3.0568,-3.0568,-3.0568,-3.0568,-3.0568,-3.0568,-3.0568,-3.0568,-3.0568,-3.0568,-3.0568,-3.0568,-3.0568,-3.0568,0.0,0.0,0.0,0.0,0.0,0.0,0.0,0.0,0.0,0.0,0.0,0.0,0.0,0.0,0.0,0.0,0.0,0.0,0.0,0.0,-2.3656,-2.3607,-2.2353,-2.1473,-2.1108,-2.0376,-1.9458,-1.8353,-1.9195,-2.022,-2.1481,-2.3197,-2.455,-2.5588,-2.6482,-2.7106,-2.7442,-2.665,-2.5657,-2.4525,-2.3502,-2.2559,0.0,0.0,0.0,0.0,0.0,0.0,0.0,0.0,-2.1495,-2.1417,0.0,-2.0599,-2.0385,-2.0527,-2.0789,-2.1148,-2.1815,-2.2658,-2.3275,-2.2978,0.0,0.0,0.0,0.0,0.0,0.0,0.0,0.0,0.0,0.0,0.0,0.0,0.0,0.0,-2.7063,-2.7141,-2.738,-2.7974,-2.8458,-2.8899,-2.9351,-2.9799,-3.0004,-2.9778,-2.9947,-3.0004,-2.9778,-2.9778,-2.9855,-2.9972,-2.9987,-3.0176,-3.0568,-3.0568,-3.0568,-3.0568,-3.0568,-3.0568,-3.0568,-3.0568,-3.0568,-3.0568,-3.0568,-3.0568,-3.0568,-3.0568,-3.0568,-3.0568,-3.0568,-3.0568,-3.0568,-3.0568,-3.0568,-3.0568,0.0,0.0,0.0,0.0,0.0,0.0,0.0,0.0,0.0,0.0,0.0,0.0,0.0,0.0,0.0,0.0,0.0,0.0,0.0,-2.3512,-2.3504,-2.3209,-2.1903,-2.1041,-2.0751,-2.0019,-1.919,-1.8313,-1.9338,-2.0491,-2.1764,-2.2873,-2.4081,-2.5374,-2.5973,-2.6463,-2.6822,-2.5911,-2.4791,-2.3552,-2.2775,-2.2012,0.0,0.0,0.0,0.0,0.0,0.0,0.0,0.0,-2.1386,0.0,0.0,0.0,0.0,0.0,-2.0666,-2.109,-2.1554,-2.2612,-2.3508,0.0,0.0,0.0,0.0,0.0,0.0,0.0,0.0,0.0,0.0,0.0,0.0,0.0,0.0,-2.6832,-2.7011,-2.687,-2.6939,-2.7389,-2.7607,-2.7897,-2.8332,-2.8565,-2.8681,-2.8681,-2.8681,-2.8681,-2.8681,-2.8681,-2.8884,-2.9305,-2.9334,-2.9537,-2.9972,-2.9972,-2.9972,-2.9972,-2.9972,-3.019,-3.0568,-3.0568,-3.0568,-3.0568,-3.0568,-3.0568,-3.0568,-3.0568,-3.0568,-3.0568,-3.0568,-3.0568,-3.0568,-3.0568,-3.0568,-3.0553,0.0,0.0,0.0,0.0,0.0,0.0,0.0,0.0,0.0,0.0,0.0,0.0,0.0,0.0,0.0,0.0,0.0,0.0,-2.241,-2.3075,-2.3142,-2.2321,-2.1536,-2.0751,-2.0019,-1.9217,-1.8806,-1.8823,-1.9817,-2.125,-2.3077,-2.2685,-2.3467,-2.5181,-2.5034,-2.5214,-2.5539,-2.4508,-2.3439,-2.2329,-2.1616,-2.1309,-2.1309,0.0,0.0,0.0,0.0,0.0,0.0,0.0,-2.134,-2.1293,0.0,0.0,0.0,-1.9493,-2.0118,-2.1003,-2.0988,-2.2273,0.0,0.0,0.0,0.0,0.0,0.0,0.0,0.0,0.0,0.0,0.0,0.0,0.0,-2.6702,-2.679,-2.6959,-2.7414,-2.71,-2.6779,-2.6779,-2.7345,-2.7668,-2.7668,-2.8289,-2.8652,-2.8652,-2.8652,-2.8652,-2.8652,-2.8652,-2.8666,-2.8666,-2.8666,-2.8666,-2.8681,-2.8681,-2.8681,-2.8681,-2.8681,-2.9334,-3.0553,-3.0553,-3.0553,-3.0553,-3.0553,-3.0553,-3.0553,-3.0553,-3.0553,-3.0553,-3.0553,-3.0553,-3.0553,-3.0553,-3.0553,-3.0466,0.0,0.0,0.0,0.0,0.0,0.0,0.0,0.0,0.0,0.0,0.0,0.0,0.0,0.0,0.0,0.0,0.0,0.0,-2.2293,-2.3053,-2.3142,-2.2321,-2.1536,-2.0751,-2.0019,-1.9217,-1.9246,-2.0146,-2.0089,-2.0884,-2.2456,-2.248,-2.3374,-2.4878,-2.4328,-2.4663,-2.5473,-2.3862,-2.2882,-2.2329,-2.1616,-2.1309,-2.1309,0.0,0.0,0.0,0.0,0.0,0.0,0.0,0.0,0.0,0.0,0.0,0.0,-2.0,-2.0436,-2.107,-2.1355,-2.2468,0.0,0.0,0.0,0.0,0.0,0.0,0.0,0.0,0.0,0.0,0.0,0.0,0.0,-2.5933,-2.6104,-2.6294,-2.6901,-2.687,-2.6779,-2.6779,-2.6953,-2.707,-2.707,-2.7244,-2.7345,-2.7345,-2.7345,-2.7345,-2.7345,-2.7345,-2.7549,-2.7998,-2.8013,-2.8231,-2.8681,-2.8681,-2.8681,-2.8681,-2.8681,-2.8884,-2.9232,-2.9232,-2.9232,-2.9232,-2.9232,-2.9232,-2.9232,-2.9232,-2.9232,-2.9232,-2.9232,-2.9232,-2.9232,-2.9232,-2.9232,-2.9218,0.0,0.0,0.0,0.0,0.0,0.0,0.0,0.0,0.0,0.0,0.0,0.0,0.0,0.0,0.0,0.0,0.0,0.0,0.0,0.0,-2.2999,-2.1857,-2.1316,-2.0527,-1.9422,-1.8963,-1.9343,-2.0598,-2.024,-2.0832,-2.2313,-2.2337,-2.3112,-2.4441,-2.3786,-2.4019,-2.4827,-2.3307,-2.2378,-2.1924,-2.1487,-2.1309,-2.1309,0.0,0.0,0.0,0.0,0.0,0.0,0.0,0.0,0.0,0.0,0.0,0.0,-2.0156,-2.0581,-2.1087,-2.1613,0.0,0.0,0.0,0.0,0.0,0.0,0.0,0.0,0.0,0.0,0.0,0.0,-2.3717,0.0,-2.4907,-2.5458,-2.5923,-2.6329,-2.662,-2.6779,-2.6779,-2.6779,-2.6779,-2.6779,-2.6779,-2.6779,-2.6779,-2.6779,-2.6779,-2.6779,-2.6779,-2.6968,-2.7345,-2.7345,-2.7549,-2.7926,-2.7926,-2.7926,-2.7926,-2.7926,-2.7926,-2.794,-2.8448,-2.8681,-2.8681,-2.8681,-2.8681,-2.8681,-2.8681,-2.8681,-2.8681,-2.8681,-2.8681,-2.8681,-2.8681,-2.8681,-2.8637,0.0,0.0,0.0,0.0,0.0,0.0,0.0,0.0,0.0,0.0,0.0,0.0,0.0,0.0,0.0,0.0,0.0,0.0,0.0,0.0,-2.2692,-2.1159,-2.088,-2.005,-1.85,-1.8526,-1.9167,-2.0396,-2.0264,-2.0943,-2.2449,-2.2192,-2.2739,-2.395,-2.3279,-2.3316,-2.3819,-2.2753,-2.1908,-2.1309,-2.1309,-2.1309,-2.1309,-2.1309,0.0,0.0,0.0,0.0,0.0,0.0,0.0,0.0,-2.0447,-2.0208,-2.0192,-2.0082,-2.052,-2.1133,0.0,0.0,0.0,0.0,0.0,0.0,0.0,0.0,0.0,0.0,0.0,0.0,-2.2888,-2.3412,-2.3818,-2.3876,-2.4863,-2.5633,-2.5691,-2.6228,-2.6634,-2.6678,-2.6692,-2.6721,-2.6779,-2.6779,-2.6779,-2.6779,-2.6779,-2.6727,-2.6727,-2.6779,-2.6779,-2.6779,-2.6779,-2.6779,-2.6779,-2.6779,-2.6779,-2.6779,-2.6779,-2.6779,-2.677,-2.7984,-2.8507,-2.845,-2.845,-2.838,-2.838,-2.838,-2.838,-2.838,-2.838,-2.8323,-2.8323,-2.838,-2.838,-2.8237,0.0,0.0,0.0,0.0,0.0,0.0,0.0,0.0,0.0,0.0,0.0,0.0,0.0,0.0,0.0,0.0,0.0,0.0,0.0,0.0,-2.2103,-2.1057,-1.975,-1.8798,-1.8287,-1.827,-1.8931,-2.024,-2.0118,-2.0737,-2.2096,-2.194,-2.2621,-2.3934,-2.2609,-2.2696,-2.3803,-2.2215,-2.1455,-2.1309,-2.1309,-2.1309,-2.1309,-2.1309,-2.1309,0.0,0.0,0.0,0.0,0.0,0.0,0.0,-2.0447,-2.0208,-2.0135,-1.9854,-2.0338,-2.1114,0.0,0.0,0.0,0.0,0.0,0.0,0.0,0.0,0.0,0.0,0.0,0.0,-2.2888,-2.3004,-2.331,-2.3804,-2.4123,-2.4486,-2.5009,-2.5212,-2.5473,-2.5937,-2.5995,-2.6199,-2.6736,-2.6645,-2.6578,-2.6578,-2.6486,-2.6394,-2.6394,-2.6539,-2.6578,-2.6578,-2.6712,-2.6779,-2.6779,-2.6779,-2.6779,-2.6779,-2.6779,-2.6553,-2.6125,-2.6841,-2.6957,-2.6507,-2.6507,-2.6217,-2.5798,-2.5798,-2.5798,-2.5798,-2.5798,-2.5728,-2.5601,-2.6064,-2.5897,-2.5531,0.0,0.0,0.0,0.0,0.0,0.0,0.0,0.0,0.0,0.0,0.0,0.0,0.0,0.0,0.0,0.0,0.0,0.0,0.0,0.0,0.0,-2.0336,-1.9055,-1.8266,-1.8078,-1.8018,-1.8614,-1.9857,-1.9779,0.0,0.0,0.0,0.0,-2.3687,-2.2306,-2.2439,-2.3603,-2.1988,-2.1309,-2.1309,-2.1309,-2.1309,-2.1309,-2.1309,-2.1309,-2.1309,-2.1309,0.0,0.0,0.0,0.0,0.0,0.0,0.0,-2.0166,-1.9953,-2.0406,-2.1102,0.0,0.0,0.0,0.0,0.0,0.0,0.0,0.0,0.0,0.0,0.0,0.0,-2.2888,-2.2888,-2.3004,-2.3383,-2.3688,-2.4007,-2.4307,-2.4577,-2.4896,-2.5164,-2.5192,-2.5322,-2.5683,-2.5868,-2.5974,-2.5974,-2.6169,-2.6286,-2.6286,-2.6379,-2.6418,-2.6418,-2.65,-2.6568,-2.6568,-2.6568,-2.6606,-2.6645,-2.6312,-2.5797,-2.5245,-2.6042,-2.6056,-2.5481,-2.577,-2.5536,-2.5007,-2.5007,-2.4951,-2.4881,-2.4881,-2.4754,-2.4697,-2.5273,-2.5273,-2.505,0.0,0.0,0.0,0.0,0.0,0.0,0.0,0.0,0.0,0.0,0.0,0.0,0.0,0.0,0.0,0.0,0.0,0.0,0.0,0.0,0.0,-1.9356,-1.8593,-1.81,-1.7839,-1.7772,-1.8325,-1.9454,0.0,0.0,0.0,0.0,0.0,-2.3448,0.0,-2.2312,-2.3416,-2.194,-2.1309,-2.1309,-2.1309,-2.1309,-2.1309,-2.1309,-2.1309,-2.1277,-2.1214,-2.1246,-2.1277,-2.1151,0.0,0.0,0.0,0.0,-2.0102,-2.0079,-2.0524,-2.1148,0.0,0.0,0.0,0.0,0.0,0.0,0.0,0.0,0.0,0.0,0.0,-2.2888,-2.2888,-2.2902,-2.2902,-2.2902,-2.3337,-2.3623,-2.3529,-2.4005,-2.433,-2.4347,-2.4312,-2.4355,-2.4469,-2.494,-2.5189,-2.5189,-2.5673,-2.5905,-2.5905,-2.6058,-2.613,-2.613,-2.6108,-2.6165,-2.6165,-2.6042,-2.6028,-2.6176,-2.5439,-2.4824,-2.4355,-2.5133,-2.5245,-2.4781,-2.5314,-2.5133,-2.461,-2.461,-2.4483,-2.4355,-2.4355,-2.4239,-2.4182,-2.4824,-2.4937,-2.4951,0.0,0.0,0.0,0.0,0.0,0.0,0.0,0.0,0.0,0.0,0.0,0.0,0.0,0.0,0.0,0.0,0.0,0.0,-2.0807,0.0,0.0,-1.8502,-1.8291,-1.8027,-1.7658,-1.7635,-1.8162,-1.9244,0.0,0.0,0.0,0.0,0.0,-2.3448,0.0,0.0,-2.3416,-2.194,-2.1309,-2.1309,-2.1309,-2.1309,-2.1309,-2.1309,-2.1309,-2.1246,-2.0958,-2.1055,-2.1214,-2.0548,-2.0563,0.0,0.0,0.0,-1.9809,-2.0016,-2.0524,0.0,0.0,0.0,0.0,0.0,0.0,0.0,0.0,0.0,0.0,0.0,-2.2797,-2.2888,-2.2888,-2.2872,-2.2795,-2.2795,-2.2793,-2.2775,-2.2729,-2.2801,-2.3059,-2.3555,-2.3626,-2.3855,-2.4426,-2.4454,-2.4447,-2.4447,-2.4416,-2.4408,-2.4408,-2.502,-2.537,-2.537,-2.5476,-2.5522,-2.5522,-2.4993,-2.4754,-2.4741,-2.4137,-2.38,-2.3741,-2.3872,-2.3859,-2.38,-2.3859,-2.359,-2.303,-2.303,-2.2969,-2.2969,-2.2969,-2.2836,-2.2763,-2.3374,-2.316,-2.2763,0.0,0.0,0.0,0.0,0.0,0.0,0.0,0.0,0.0,0.0,0.0,0.0,0.0,0.0,0.0,-1.9489,-2.0258,-2.065,-2.0582,-1.9842,-1.9013,-1.8095,-1.7944,-1.7726,-1.7432,-1.737,-1.7927,0.0,0.0,0.0,0.0,-2.1309,-2.2086,0.0,0.0,0.0,0.0,0.0,-2.1119,-2.1246,-2.0861,-2.0811,-2.099,-2.0763,-2.0681,-2.0663,-2.053,-2.0563,-2.063,-2.0311,-2.0311,-2.0361,-1.9854,0.0,0.0,0.0,0.0,0.0,0.0,0.0,0.0,0.0,0.0,0.0,0.0,0.0,0.0,0.0,-2.2463,-2.2752,-2.2752,-2.2721,-2.2689,-2.2689,-2.2615,-2.2555,-2.2509,-2.2509,-2.2562,-2.2739,-2.2781,-2.2895,-2.3178,-2.3469,-2.3618,-2.3618,-2.3906,-2.4118,-2.4118,-2.4152,-2.4121,-2.4121,-2.3892,-2.3756,-2.3756,-2.3524,-2.3336,-2.3251,-2.3206,-2.3048,-2.2836,-2.2884,-2.3005,-2.3138,-2.3471,-2.3245,-2.269,-2.269,-2.2616,-2.2543,-2.2543,-2.242,-2.2359,-2.298,-2.298,-2.2811,0.0,0.0,0.0,0.0,0.0,0.0,0.0,0.0,0.0,0.0,0.0,0.0,0.0,0.0,0.0,0.0,-2.0229,-2.0425,-2.0136,-1.943,-1.8675,-1.7939,-1.7749,-1.7549,-1.732,-1.7379,0.0,0.0,0.0,0.0,-2.1309,-2.1309,-2.2086,0.0,-2.1956,0.0,0.0,0.0,0.0,-2.1119,-2.0429,-2.0361,0.0,0.0,0.0,-2.0089,-2.0035,-2.007,-2.0154,-1.9965,-2.0086,-2.0223,-1.9893,-1.9901,0.0,0.0,0.0,0.0,0.0,0.0,0.0,0.0,0.0,0.0,0.0,0.0,0.0,0.0,-2.1888,-2.2077,-2.2077,-2.2324,-2.2555,-2.2555,-2.2509,-2.2463,-2.237,-2.237,-2.2324,-2.2231,-2.2184,-2.2184,-2.2184,-2.2592,-2.2859,-2.2859,-2.3308,-2.3589,-2.344,-2.3197,-2.2956,-2.2852,-2.2471,-2.2239,-2.2239,-2.2076,-2.1949,-2.1898,-2.2128,-2.2076,-2.1789,-2.191,-2.2019,-2.2224,-2.294,-2.3017,-2.2555,-2.2555,-2.2494,-2.2359,-2.2359,-2.2309,-2.2247,-2.2689,-2.2859,-2.2919,0.0,0.0,0.0,0.0,0.0,0.0,0.0,0.0,0.0,0.0,0.0,0.0,0.0,-1.8884,-1.9556,-2.0297,-2.0401,-2.0125,-1.9395,-1.8655,-1.8143,-1.7922,-1.7883,0.0,-1.732,-1.7979,0.0,0.0,0.0,0.0,-2.1309,-2.1309,-2.2086,-2.3448,-2.1956,-2.2118,-2.3381,0.0,0.0,0.0,0.0,0.0,0.0,0.0,0.0,0.0,0.0,0.0,-1.9995,-1.9384,-1.9796,-2.0527,0.0,0.0,0.0,0.0,0.0,0.0,0.0,0.0,0.0,0.0,0.0,0.0,0.0,0.0,0.0,0.0,-2.1068,-2.0709,-2.0709,-2.1636,-2.2417,-2.2417,-2.2324,-2.2231,-2.2231,-2.2231,-2.2231,-2.2184,-2.2184,-2.2184,-2.2184,-2.2212,-2.2226,-2.2226,-2.2269,-2.2094,-2.1567,-2.2047,-2.2143,-2.1615,-2.1549,-2.1554,-2.1554,-2.0986,-2.068,-2.0716,-2.0716,-2.0728,-2.0694,-2.0694,-2.0694,-2.0754,-2.1813,-2.2247,-2.2259,-2.2259,-2.2185,-2.2197,-2.2197,-2.2197,-2.2197,-2.2247,-2.2247,-2.2247,0.0,0.0,0.0,0.0,0.0,0.0,0.0,0.0,0.0,0.0,0.0,0.0,0.0,-1.8967,-1.9335,-1.9967,-1.9612,-1.9263,-1.8985,-1.8257,-1.7726,-1.7509,-1.7509,-1.7623,-1.7811,-1.8062,0.0,0.0,0.0,-2.0645,-2.1309,-2.1309,-2.2086,-2.3464,-2.2442,-2.2439,-2.3016,-2.1698,0.0,0.0,0.0,0.0,0.0,0.0,0.0,0.0,0.0,0.0,0.0,0.0,0.0,0.0,0.0,0.0,0.0,0.0,0.0,0.0,0.0,0.0,0.0,0.0,0.0,0.0,0.0,0.0,0.0,-2.1019,-2.1019,-2.0908,-2.0207,-2.0696,-2.1237,-2.1237,-2.1188,-2.1299,-2.1664,-2.1712,-2.1793,-2.2184,-2.2184,-2.2184,-2.2184,-2.2184,-2.2184,-2.2184,-2.2184,-2.1996,-2.1423,-2.1269,-2.0961,-2.0411,-2.0076,-1.992,-1.992,-1.9673,-1.9744,-2.0081,-2.0081,-2.0261,-2.0586,-2.061,-2.061,-2.061,-2.1007,-2.1187,-2.1187,-2.1187,-2.1187,-2.1175,-2.1151,-2.1163,-2.1187,-2.1187,-2.1392,-2.1692,0.0,0.0,0.0,0.0,0.0,0.0,0.0,0.0,0.0,0.0,0.0,0.0,0.0,0.0,-1.931,-1.9462,-1.906,-1.8699,-1.8406,-1.8131,-1.7885,-1.7675,-1.7922,-1.8166,-1.847,-1.8702,0.0,0.0,0.0,0.0,0.0,-2.1119,-2.1922,-2.3291,-2.274,-2.2777,0.0,0.0,0.0,-2.0488,0.0,0.0,-1.9803,0.0,0.0,0.0,0.0,0.0,0.0,0.0,0.0,0.0,0.0,0.0,0.0,0.0,0.0,0.0,0.0,0.0,0.0,0.0,0.0,0.0,0.0,0.0,0.0,-2.0759,-2.061,-2.0409,-1.9901,-1.9952,-2.0156,-2.056,-2.061,-2.0709,-2.1068,-2.1118,-2.1251,-2.1636,-2.1636,-2.1636,-2.1636,-2.1636,-2.1636,-2.1636,-2.1636,-2.1444,-2.0908,-2.051,-2.0105,-1.9552,-1.9198,-1.8987,-1.8987,-1.8987,-1.9167,-1.9516,-1.9516,-1.9696,-2.0033,-2.0057,-2.0057,-2.0033,-2.0057,-2.0273,-2.061,-2.061,-2.061,-2.061,-2.0586,-2.0598,-2.061,-2.061,-2.0839,-2.1139,0.0,0.0,0.0,0.0,0.0,0.0,0.0,0.0,0.0,0.0,0.0,0.0,0.0,0.0,0.0,-1.8909,-1.8825,-1.8466,-1.7706,-1.83,-1.8618,-1.8414,-1.9088,-1.9383,-1.9204,-1.9887,-2.0275,0.0,0.0,0.0,0.0,0.0,-2.1521,-2.2869,-2.2812,-2.3095,-2.3592,0.0,-2.1753,-2.1164,0.0,-2.0486,-2.0486,0.0,0.0,0.0,-2.05,-2.0599,0.0,-2.0698,0.0,0.0,0.0,0.0,0.0,0.0,0.0,0.0,0.0,0.0,0.0,0.0,0.0,0.0,0.0,0.0,0.0,-2.056,-1.9759,-1.9198,-1.9695,-1.9344,-1.9344,-2.0359,-2.056,-2.056,-2.056,-2.056,-2.056,-2.061,-2.061,-2.061,-2.061,-2.061,-2.061,-2.061,-2.061,-2.0359,-1.985,-1.9798,-1.9552,-1.8999,-1.8987,-1.8987,-1.8987,-1.8987,-1.8987,-1.8987,-1.8987,-1.8987,-1.8987,-1.8987,-1.8987,-1.8987,-1.8987,-1.9588,-2.0562,-2.0538,-2.0538,-2.0562,-2.0562,-2.0562,-2.0562,-2.0562,-2.0574,-2.0598,0.0,0.0,0.0,0.0,0.0,0.0,0.0,0.0,0.0,0.0,0.0,0.0,0.0,-1.9219,-1.9514,-1.9845,-1.9399,-1.899,-1.8778,-1.8958,-1.8892,-1.8553,-1.8699,-1.8868,-1.9044,-1.9182,-1.9489,0.0,0.0,0.0,0.0,0.0,0.0,0.0,-2.2171,-2.254,-2.3238,-2.2664,0.0,0.0,-2.0599,-2.0486,0.0,0.0,0.0,0.0,0.0,-2.0854,-2.125,0.0,-2.1486,-2.2298,0.0,0.0,0.0,0.0,0.0,0.0,-2.2278,0.0,0.0,0.0,0.0,0.0,0.0,0.0,0.0,-2.0105,-1.9798,-1.95,-1.9251,-1.9093,-1.9093,-1.9396,-1.9448,-1.9604,-1.9952,-2.0003,-2.0156,-2.056,-2.061,-2.061,-2.061,-2.061,-2.061,-2.061,-2.061,-2.0359,-1.985,-1.9448,-1.9146,-1.8987,-1.8987,-1.8987,-1.8987,-1.8987,-1.8987,-1.8987,-1.8987,-1.8987,-1.8987,-1.8987,-1.8987,-1.8987,-1.8987,-1.9167,-1.9444,-1.9432,-1.9432,-1.9444,-1.9444,-1.9444,-1.9444,-1.9444,-1.9684,-2.0009,0.0,0.0,0.0,0.0,0.0,0.0,0.0,0.0,0.0,0.0,0.0,0.0,0.0,0.0,-1.8896,-1.9277,-1.896,-1.8722,-1.8617,-1.8945,-1.8982,-1.8687,-1.895,-1.916,-1.9375,-1.9307,-1.947,0.0,0.0,0.0,0.0,0.0,0.0,0.0,0.0,0.0,0.0,0.0,0.0,0.0,-2.125,0.0,0.0,-2.1189,-2.1055,0.0,0.0,0.0,-2.1444,-2.0899,-2.1348,0.0,0.0,0.0,0.0,0.0,0.0,0.0,0.0,0.0,0.0,0.0,0.0,0.0,-2.0957,-2.066,-2.0156,0.0,-1.9604,-1.9448,-1.9344,-1.9146,-1.8987,-1.8987,-1.8987,-1.9093,-1.9396,-1.9448,-1.9604,-1.9901,-1.9952,-1.9952,-1.9952,-1.9952,-1.9952,-1.9952,-1.9952,-1.9798,-1.95,-1.9198,-1.8987,-1.8987,-1.8987,-1.8987,-1.8987,-1.8987,-1.8987,-1.8987,-1.8987,-1.8987,-1.8987,-1.8987,-1.8987,-1.8987,-1.8987,-1.8987,-1.8987,-1.8987,-1.8987,-1.8987,-1.8987,-1.8987,-1.8987,-1.8987,-1.9191,-1.9456,0.0,0.0,0.0,0.0,0.0,0.0,0.0,0.0,0.0,0.0,0.0,0.0,0.0,0.0,0.0,0.0,-1.8218,-1.8201,-1.8025,-1.87,-1.9019,-1.8869,-1.9476,-1.9778,-1.9758,-1.9758,-1.9758,0.0,0.0,0.0,0.0,0.0,0.0,0.0,0.0,0.0,0.0,0.0,0.0,-2.2137,-2.2184,-2.2184,0.0,0.0,-2.1841,-2.1458,-2.1264,-2.1313,-2.141,-2.0809,-2.0871,0.0,0.0,0.0,0.0,0.0,-2.1793,0.0,0.0,0.0,0.0,0.0,0.0,0.0,-2.051,-2.0156,-1.9695,-1.9695,-1.9344,-1.9146,-1.9592,-1.9291,-1.8987,-1.8987,-1.8987,-1.8999,-1.8987,-1.8987,-1.8987,-1.8987,-1.8987,-1.8987,-1.8987,-1.8987,-1.8987,-1.8987,-1.8987,-1.8987,-1.8987,-1.8987,-1.8987,-1.8987,-1.8987,-1.8987,-1.8987,-1.8987,-1.8987,-1.8987,-1.8987,-1.8987,-1.8987,-1.8987,-1.8987,-1.8987,-1.8987,-1.8987,-1.8987,-1.8987,-1.8987,-1.8987,-1.8987,-1.8987,-1.8987,-1.8987,-1.8987,-1.8987,0.0,0.0,0.0,0.0,0.0,0.0,0.0,0.0,0.0,0.0,0.0,0.0,0.0,0.0,0.0,0.0,-1.952,-1.952,-1.947,-1.9626,-1.9597,-1.9307,-1.9317,-1.9207,-1.895,-1.8836,-1.876,0.0,0.0,0.0,0.0,0.0,0.0,0.0,0.0,0.0,0.0,0.0,0.0,-2.1616,-2.2044,0.0,-2.1568,-2.1568,-2.1264,-2.0759,-2.0258,-2.0409,-2.0759,-2.066,-2.0359,-2.0258,0.0,0.0,0.0,0.0,0.0,0.0,0.0,0.0,0.0,0.0,0.0,0.0,-2.056,-1.985,-1.9146,-1.9146,-1.9093,-1.904,-1.9146,-1.9093,-1.8987,-1.8987,-1.8893,-1.8893,-1.8999,-1.8987,-1.8987,-1.8987,-1.8987,-1.8987,-1.8987,-1.8987,-1.8987,-1.8987,-1.8987,-1.8987,-1.8987,-1.8987,-1.8987,-1.8987,-1.8987,-1.8987,-1.8987,-1.8987,-1.8987,-1.8987,-1.8987,-1.8987,-1.8987,-1.8987,-1.8987,-1.8987,-1.8987,-1.8987,-1.8987,-1.8987,-1.8987,-1.8987,-1.8987,-1.8987,-1.8987,-1.8987,-1.8987,-1.8987,0.0,0.0,0.0,0.0,0.0,0.0,0.0,0.0,0.0,0.0,0.0,0.0,0.0,0.0,0.0,0.0,0.0,0.0,0.0,0.0,0.0,0.0,-1.8898,-1.876,-1.8595,-1.8517,-1.8517,0.0,0.0,0.0,0.0,0.0,0.0,0.0,0.0,0.0,0.0,0.0,-2.1019,-2.1019,-2.1299,0.0,-2.1019,-2.1019,-2.066,-2.0156,-1.9901,-1.9798,-1.985,-2.0105,-2.0003,0.0,0.0,-2.0409,-2.0709,0.0,-2.141,-2.1423,0.0,0.0,0.0,-2.1166,0.0,0.0,0.0,-1.9604,-1.8987,-1.8987,-1.8987,-1.8987,-1.8987,-1.8987,-1.8987,-1.8987,-1.8893,-1.8851,-1.8999,-1.8881,-1.8774,-1.8774,-1.8774,-1.8774,-1.8774,-1.8774,-1.8774,-1.8774,-1.8839,-1.8893,-1.8893,-1.8946,-1.8987,-1.8987,-1.8987,-1.8987,-1.8987,-1.8987,-1.8987,-1.8987,-1.8987,-1.8987,-1.8987,-1.8987,-1.8987,-1.8987,-1.8987,-1.8987,-1.8987,-1.8987,-1.8987,-1.8987,-1.8987,-1.8987,-1.8987,-1.8987,-1.8987,-1.8987,0.0,0.0,0.0,0.0,0.0,0.0,0.0,0.0,0.0,0.0,0.0,0.0,0.0,0.0,0.0,0.0,0.0,0.0,0.0,0.0,0.0,0.0,0.0,-1.8268,-1.8268,-1.8268,0.0,0.0,0.0,0.0,0.0,0.0,0.0,0.0,0.0,0.0,0.0,0.0,0.0,-2.0459,0.0,-2.0359,-2.0459,-2.0459,-2.0105,-1.9643,-1.9643,-1.9344,-1.9093,-1.95,-1.9643,-1.9604,-1.9239,-1.9708,0.0,0.0,0.0,0.0,0.0,0.0,0.0,0.0,0.0,-1.9798,0.0,0.0,0.0,-1.8987,-1.8987,0.0,0.0,0.0,0.0,-1.8855,0.0,0.0,0.0,-1.8715,0.0,-1.8667,-1.8614,-1.8614,-1.8614,-1.8614,-1.856,-1.8452,-1.8679,-1.8744,-1.8572,-1.8786,-1.8934,-1.8946,-1.8946,-1.8999,-1.8987,-1.8987,-1.8987,-1.8987,-1.8987,-1.8987,-1.8987,-1.8987,-1.8987,-1.8987,-1.8987,-1.8987,-1.8987,-1.8987,-1.8987,-1.8987,-1.8987,-1.8987,-1.8987,-1.8987,-1.8987,-1.8987,-1.5847,0.0,0.0,0.0,0.0,0.0,0.0,0.0,0.0,0.0,0.0,0.0,0.0,0.0,0.0,0.0,0.0,0.0,-1.7282,0.0,0.0,0.0,0.0,0.0,-1.7365,0.0,0.0,0.0,0.0,0.0,0.0,0.0,0.0,0.0,-2.0345,0.0,0.0,0.0,-1.9901,0.0,-1.9396,-1.9448,0.0,-1.9901,-1.9552,-1.9093,-1.9093,-1.904,-1.8987,0.0,-1.9093,-1.9146,0.0,-1.9448,-1.9344,-2.0308,0.0,0.0,0.0,0.0,0.0,0.0,-1.985,0.0,0.0,0.0,-1.8987,-1.8987,0.0,0.0,0.0,0.0,0.0,0.0,0.0,0.0,-1.818,-1.8383,-1.8667,-1.8946,-1.8721,-1.8679,-1.8744,-1.8798,-1.8518,-1.7831,-1.8398,-1.8518,-1.7831,-1.8333,-1.8679,-1.8798,-1.8798,-1.8893,-1.8987,-1.8987,-1.8987,-1.8987,-1.8987,-1.8987,-1.8987,-1.8987,-1.8987,-1.8987,-1.8987,-1.8987,-1.8987,-1.8987,-1.8987,-1.8987,-1.8987,-1.8987,-1.8987,-1.8987,-1.8987,-1.8987,0.0,0.0,0.0,0.0,0.0,0.0,0.0,0.0,0.0,0.0,0.0,0.0,0.0,0.0,0.0,0.0,0.0,-1.7073,0.0,0.0,0.0,0.0,0.0,0.0,0.0,0.0,0.0,0.0,-1.7887,0.0,0.0,0.0,0.0,0.0,-1.966,0.0,-1.9137,0.0,-1.878,0.0,0.0,0.0,0.0,-1.9356,-1.9198,-1.8987,-1.8987,-1.8987,-1.8987,0.0,-1.8987,0.0,0.0,0.0,0.0,0.0,0.0,0.0,0.0,0.0,0.0,0.0,0.0,0.0,-1.9344,0.0,-1.8987,0.0,0.0,0.0,0.0,0.0,0.0,0.0,-1.8749,-1.8768,0.0,0.0,-1.8614,-1.8774,-1.8667,-1.8572,-1.8583,-1.8583,-1.841,-1.7963,-1.8061,-1.8007,-1.7556,-1.7479,-1.7534,-1.76,-1.7589,-1.7655,-1.7831,-1.7831,-1.7886,-1.7984,-1.7984,-1.7984,-1.7984,-1.8321,-1.8483,-1.8494,-1.8881,-1.8987,-1.8987,-1.8987,-1.8987,-1.8987,-1.8987,-1.8987,-1.8987,-1.8987,-1.8987,-1.8987,0.0,0.0,0.0,0.0,0.0,0.0,0.0,0.0,0.0,0.0,0.0,0.0,-1.682,-1.6723,0.0,0.0,-1.6367,-1.6312,0.0,0.0,-1.6703,0.0,0.0,0.0,0.0,0.0,0.0,0.0,0.0,0.0,0.0,0.0,0.0,0.0,0.0,-1.862,-1.8093,0.0,0.0,-1.7929,-1.8483,-1.8762,-1.8762,-1.8934,-1.8987,-1.8987,-1.8987,-1.8987,-1.8987,-1.8987,-1.8987,-1.8987,-1.8827,-1.8762,-1.8815,0.0,0.0,0.0,-1.9267,0.0,0.0,0.0,0.0,0.0,0.0,0.0,0.0,0.0,0.0,0.0,0.0,0.0,0.0,0.0,0.0,-1.8845,0.0,-1.8691,0.0,0.0,-1.8667,-1.8625,-1.8464,-1.8476,-1.8247,-1.7689,-1.7611,-1.7379,-1.6877,-1.6856,-1.6856,-1.6912,-1.6912,-1.6978,-1.7168,-1.7168,-1.7213,-1.7313,-1.7368,-1.7379,-1.7435,-1.7875,-1.8093,-1.8147,-1.8709,-1.8946,-1.8946,-1.8881,-1.8774,-1.8655,-1.8655,-1.8536,-1.8375,-1.8602,-1.8667,-1.8655,-1.5788,-1.6182,0.0,0.0,0.0,0.0,0.0,0.0,0.0,0.0,0.0,0.0,0.0,0.0,0.0,0.0,0.0,-1.4628,-1.5108,0.0,-1.5461,0.0,0.0,-1.6931,0.0,0.0,0.0,0.0,0.0,0.0,0.0,0.0,0.0,0.0,0.0,-1.8655,-1.8093,-1.8093,-1.7754,-1.7257,-1.7875,-1.8147,-1.8201,0.0,-1.8987,-1.8987,-1.8987,-1.8987,-1.8987,-1.8987,-1.8987,-1.8881,-1.8321,-1.8147,-1.8038,0.0,0.0,0.0,-1.7984,-1.8147,-1.8309,-1.8881,-1.8987,0.0,0.0,0.0,-1.8987,0.0,0.0,0.0,0.0,0.0,0.0,0.0,0.0,0.0,0.0,0.0,0.0,0.0,-1.8893,-1.8744,-1.8614,-1.8614,-1.805,-1.6652,-1.7101,-1.6821,-1.5517,-1.6585,-1.7257,-1.7379,-1.7379,-1.749,-1.7667,-1.7667,-1.7667,-1.7667,-1.7843,-1.7897,-1.7897,-1.805,-1.8093,-1.8147,-1.8614,-1.8798,-1.8798,-1.8679,-1.8278,-1.7722,-1.7722,-1.7368,-1.6856,-1.7667,-1.7843,-1.7722,0.0,0.0,0.0,0.0,0.0,0.0,0.0,-1.6175,0.0,0.0,0.0,0.0,0.0,-1.4674,-1.4628,0.0,0.0,-1.4398,-1.4536,-1.5427,0.0,0.0,0.0,-1.6409,0.0,0.0,0.0,0.0,0.0,0.0,0.0,0.0,0.0,0.0,0.0,-1.805,0.0,0.0,0.0,0.0,0.0,-1.7435,-1.7534,0.0,-1.7809,-1.7809,-1.7809,-1.7809,-1.7809,-1.7809,-1.7809,-1.7754,-1.7589,-1.7479,-1.7479,-1.7257,-1.7202,-1.7257,-1.7479,-1.7202,-1.7146,-1.8147,-1.8093,-1.8038,-1.8827,-1.8987,0.0,0.0,0.0,0.0,0.0,0.0,0.0,0.0,0.0,0.0,0.0,0.0,-1.8667,0.0,0.0,0.0,0.0,-1.817,-1.771,-1.7045,-1.6461,-1.5958,-1.541,-1.541,-1.541,-1.5468,-1.5468,-1.5575,-1.5738,-1.5738,-1.5796,-1.5931,-1.5931,-1.6218,-1.6606,-1.6595,-1.7101,-1.782,-1.7995,-1.8061,-1.8061,-1.7995,-1.76,-1.7034,-1.7034,-1.6866,-1.6585,-1.6978,-1.709,-1.7079,-1.5142,0.0,0.0,0.0,0.0,0.0,0.0,0.0,0.0,0.0,-1.4663,0.0,-1.4391,0.0,-1.4286,0.0,-1.4282,-1.4185,-1.4418,-1.5213,0.0,-1.4521,-1.5832,0.0,0.0,0.0,0.0,0.0,0.0,-1.7059,0.0,0.0,0.0,0.0,0.0,0.0,-1.6673,0.0,-1.6275,0.0,0.0,-1.6549,0.0,0.0,-1.681,-1.7202,-1.7202,-1.7202,-1.7202,-1.7202,-1.7202,-1.7146,-1.6922,-1.6743,-1.6518,-1.6291,-1.6234,-1.6291,-1.6518,-1.6224,-1.611,-1.7113,-1.6869,-1.6634,-1.7665,-1.7895,-1.7884,-1.7895,0.0,0.0,0.0,0.0,0.0,0.0,0.0,0.0,0.0,-1.856,0.0,0.0,0.0,0.0,0.0,-1.7831,-1.7324,-1.6687,-1.5958,-1.54,-1.5069,-1.4902,-1.4793,-1.4793,-1.4793,-1.4843,-1.4942,-1.4942,-1.501,-1.5137,-1.5196,-1.543,-1.5816,-1.5874,-1.6322,-1.7045,-1.7213,-1.7268,-1.7268,-1.7213,-1.681,-1.6244,-1.6244,-1.6026,-1.5806,-1.6177,-1.6404,-1.6574,0.0,0.0,0.0,0.0,-1.5763,0.0,0.0,0.0,-1.434,0.0,-1.3847,-1.3476,-1.444,-1.4093,-1.4165,-1.5029,-1.4247,-1.399,-1.4599,-1.5012,0.0,0.0,-1.5659,-1.6206,-1.5195,0.0,0.0,0.0,0.0,0.0,0.0,0.0,0.0,0.0,-1.7202,0.0,-1.6046,-1.6046,-1.5594,-1.497,-1.5088,-1.5488,-1.5999,-1.5526,-1.6083,-1.709,-1.709,-1.709,-1.709,-1.709,-1.709,-1.7034,-1.6415,-1.5833,-1.5255,-1.4638,-1.441,-1.4579,-1.5138,-1.5119,-1.5158,-1.5773,-1.5341,-1.4974,-1.5753,-1.582,-1.582,-1.5934,-1.6306,0.0,0.0,0.0,0.0,0.0,0.0,0.0,0.0,0.0,-1.8417,-1.8104,0.0,0.0,0.0,-1.7501,-1.6866,-1.5718,-1.5459,-1.5137,0.0,-1.502,-1.5352,-1.5352,-1.5352,-1.5352,-1.5352,-1.5352,-1.5352,-1.5352,-1.5478,-1.5536,-1.5594,-1.5758,-1.5874,-1.5931,-1.6265,-1.6436,-1.6436,-1.6312,-1.5921,-1.5352,-1.5352,-1.502,-1.4565,-1.5284,-1.5843,-1.614,-1.4025,-1.4244,-1.4644,0.0,-1.5478,-1.5482,0.0,0.0,0.0,0.0,-1.3947,-1.3475,-1.3912,-1.3816,-1.3811,-1.4087,-1.3838,0.0,0.0,0.0,0.0,-1.4063,-1.5345,-1.5688,-1.4839,-1.5303,0.0,-1.6151,0.0,0.0,-1.6265,0.0,0.0,0.0,0.0,0.0,-1.5235,-1.5235,-1.4728,-1.4052,-1.4052,-1.4597,-1.5264,-1.5147,-1.5313,-1.5594,-1.5806,-1.5853,-1.5853,-1.5853,-1.5853,-1.5738,-1.5167,-1.4874,-1.4579,-1.3795,-1.3554,-1.3554,-1.3597,-1.3597,-1.3708,-1.4259,-1.4309,-1.43,-1.4984,-1.51,-1.5042,-1.51,-1.5216,-1.5283,-1.5293,-1.6115,-1.688,0.0,0.0,0.0,0.0,0.0,0.0,-1.7576,0.0,0.0,-1.7929,-1.7224,-1.6539,-1.613,-1.5245,-1.4684,-1.4506,-1.4625,-1.4734,-1.4734,-1.4734,-1.4734,-1.4734,-1.4734,-1.4734,-1.4734,-1.4803,-1.502,-1.541,-1.502,-1.5362,-1.6197,-1.5806,-1.569,-1.569,-1.5642,-1.5303,-1.4734,-1.4734,-1.4625,-1.4506,-1.4734,-1.4843,-1.502,-1.3701,0.0,0.0,-1.4347,0.0,0.0,-1.4562,-1.4573,0.0,-1.4072,-1.3483,0.0,-1.3302,-1.3329,-1.3271,-1.3204,-1.3156,0.0,-1.3279,0.0,0.0,-1.3538,-1.4087,-1.4195,-1.3734,-1.3923,0.0,-1.4923,0.0,0.0,-1.5536,0.0,0.0,0.0,0.0,-1.5728,0.0,-1.4423,-1.4025,-1.3631,-1.3692,-1.3992,0.0,-1.4852,-1.497,-1.497,-1.4815,-1.5001,-1.5313,-1.5362,-1.5177,-1.4815,-1.446,-1.3914,-1.3304,-1.281,-1.2696,-1.2634,-1.2565,-1.2512,-1.2565,-1.2907,-1.2716,-1.2655,-1.3348,-1.3408,-1.3348,-1.3468,-1.3647,-1.3716,-1.3417,-1.4604,-1.578,0.0,0.0,0.0,0.0,0.0,0.0,0.0,-1.6856,-1.6986,-1.7718,-1.6402,-1.5603,-1.5911,-1.4991,-1.4478,-1.4515,-1.4734,-1.4793,-1.4506,-1.4515,-1.4515,-1.4515,-1.4515,-1.4515,-1.4515,-1.4515,-1.4684,-1.502,-1.4625,-1.4843,-1.5468,-1.5128,-1.502,-1.502,-1.502,-1.4793,-1.4515,-1.4515,-1.4515,-1.4515,-1.4515,-1.4684,-1.4902,0.0,0.0,0.0,0.0,0.0,0.0,0.0,-1.3841,0.0,-1.3195,0.0,-1.2646,-1.2814,-1.2856,-1.2738,-1.2541,0.0,-1.2573,-1.2765,-1.2573,-1.2573,-1.2765,-1.2573,-1.2512,-1.2512,-1.2696,-1.307,0.0,0.0,0.0,0.0,0.0,0.0,0.0,0.0,0.0,0.0,-1.3563,-1.326,-1.326,-1.3381,-1.3442,-1.3623,-1.4359,-1.4666,-1.4597,-1.4034,-1.435,-1.502,-1.5059,-1.4628,-1.4025,-1.3965,-1.3045,-1.195,-1.1888,-1.1826,-1.1826,-1.1834,-1.171,-1.1648,-1.1648,-1.1108,-1.0807,-1.1469,-1.1538,-1.1421,-1.1593,-1.1958,-1.1965,-1.0933,-1.2671,-1.4587,0.0,0.0,0.0,0.0,0.0,0.0,0.0,0.0,0.0,-1.7174,-1.5624,-1.4885,-1.5575,-1.5012,-1.4619,-1.4616,-1.5128,-1.5128,-1.4506,-1.4387,-1.4387,-1.4515,-1.4387,-1.4387,-1.4515,-1.4515,-1.4515,-1.4515,-1.4515,-1.4515,-1.4515,-1.4515,-1.4515,-1.4515,-1.4515,-1.4515,-1.4515,-1.4515,-1.4446,-1.4387,-1.4446,-1.4784,-1.5059,0.0,0.0,0.0,0.0,0.0,-1.3485,-1.2862,-1.2778,-1.2778,-1.2862,-1.2216,-1.1936,-1.2538,-1.2546,-1.257,-1.2504,-1.2512,0.0,0.0,0.0,0.0,-1.2573,-1.2512,-1.2512,-1.2512,-1.2512,-1.2887,0.0,0.0,0.0,0.0,0.0,0.0,0.0,0.0,0.0,-1.307,-1.222,0.0,-1.1849,-1.1856,-1.2212,-1.2757,-1.2879,-1.294,-1.294,-1.3009,-1.3554,-1.4154,-1.3606,-1.3312,-1.3122,-1.2565,-1.2197,-1.1896,-1.1226,-1.0982,-1.0989,-1.0863,-1.0807,-1.08,-1.08,-1.0681,-1.0624,-1.0807,-1.0807,-1.0744,-1.0807,-1.087,-1.0989,-1.1303,-1.2557,-1.3963,-1.5186,-1.5147,0.0,0.0,0.0,0.0,0.0,0.0,-1.4586,-1.6038,-1.6472,-1.6733,-1.6856,-1.6291,-1.5728,-1.5118,-1.5294,-1.5069,-1.4336,-1.389,-1.3941,-1.4506,-1.395,-1.395,-1.4515,-1.4515,-1.4515,-1.4515,-1.4515,-1.4515,-1.4515,-1.4515,-1.4515,-1.4515,-1.4515,-1.4515,-1.4515,-1.4515,-1.4139,-1.3761,-1.4327,-1.4198,-1.3932,0.0,0.0,0.0,0.0,0.0,0.0,0.0,-1.171,-1.1648,-1.2097,-1.2158,-1.2158,-1.2027,-1.1965,-1.1849,-1.1538,-1.1538,-1.1538,-1.1538,-1.1538,-1.1538,-1.1538,-1.1538,-1.1538,-1.1538,-1.1538,-1.1849,-1.2466,0.0,0.0,0.0,0.0,0.0,0.0,0.0,-1.3812,0.0,0.0,-1.1483,-1.1483,-1.1483,-1.1663,-1.2027,-1.2389,-1.2512,-1.2451,-1.2212,-1.2397,-1.2757,-1.2948,-1.2704,-1.2328,-1.2012,-1.1593,-1.1226,-1.0807,-1.0681,-1.0681,-1.0624,-1.0624,-1.0624,-1.0624,-1.0624,-1.0624,-1.0624,-1.0624,-1.0624,-1.0624,-1.0624,-1.0807,-1.1365,-1.2027,-1.2619,-1.3234,-1.3383,-1.3086,0.0,0.0,0.0,0.0,0.0,0.0,0.0,-1.552,-1.6053,0.0,0.0,-1.5119,-1.3648,-1.4305,-1.4255,-1.3139,-1.2887,-1.2887,-1.3199,-1.3009,-1.3199,-1.389,-1.395,-1.4139,-1.4515,-1.4515,-1.4515,-1.4515,-1.4515,-1.4515,-1.4515,-1.4515,-1.4327,-1.401,-1.401,-1.3571,-1.3009,-1.3321,-1.326,-1.313,0.0,-1.2512,0.0,0.0,-1.1973,-1.1483,-1.1483,-1.0996,-1.0744,-1.124,-1.1911,-1.2097,-1.1358,-1.1303,-1.1115,-1.0624,-1.0624,-1.0624,-1.0624,-1.0624,-1.0624,-1.0624,-1.0624,-1.0624,-1.0624,-1.0624,-1.087,0.0,0.0,-1.2389,-1.2512,0.0,0.0,0.0,0.0,0.0,-1.3017,-1.1981,-1.1421,-1.1303,-1.1303,-1.1303,-1.1365,-1.1903,-1.2081,-1.2027,-1.1483,-1.1303,-1.1421,-1.2212,-1.2089,-1.1531,-1.1531,-1.1108,-1.0624,-1.0624,-1.0624,-1.0624,-1.0624,-1.0624,-1.0624,-1.0624,-1.0624,-1.0624,-1.0624,-1.0624,-1.0624,-1.0624,-1.0561,-1.0681,-1.1163,-1.1044,-1.0963,-1.1103,-1.1191,-1.113,-1.0661,0.0,0.0,0.0,0.0,0.0,-1.2767,-1.4136,-1.4686,-1.4015,-1.4762,-1.4461,-1.248,-1.3571,-1.3631,-1.2427,-1.2189,-1.2189,-1.2427,-1.2197,-1.2389,-1.3078,-1.3199,-1.3511,-1.407,-1.407,-1.407,-1.407,-1.407,-1.407,-1.4079,-1.4198,-1.3881,-1.326,-1.326,-1.2887,-1.2266,-1.2573,-1.2451,-1.2381,0.0,0.0,0.0,0.0,0.0,-1.1483,-1.1483,-1.0996,-1.0624,-1.0688,-1.0744,-1.0744,-1.0688,-1.0681,-1.0681,-1.0624,-1.0624,-1.0624,-1.0624,-1.0624,-1.0624,-1.0624,-1.0624,-1.0624,-1.0624,-1.0624,-1.087,0.0,-1.1545,-1.1911,-1.2512,0.0,0.0,-1.2573,-1.2573,-1.2274,-1.167,-1.1545,-1.1178,-1.0681,-1.0681,-1.0681,-1.0688,-1.0744,-1.0807,-1.0744,-1.0681,-1.0681,-1.0688,-1.0807,-1.0744,-1.0681,-1.0681,-1.0681,-1.0624,-1.0624,-1.0624,-1.0624,-1.0624,-1.0624,-1.0624,-1.0624,-1.0624,-1.0624,-1.0624,-1.0624,-1.0624,-1.0624,-1.0434,-1.0358,-1.0305,-0.9612,-0.926,-0.9846,-0.9029,-0.8552,-0.9246,0.0,-0.8974,-0.9528,0.0,0.0,-1.1057,-1.3001,-1.3908,-1.2942,-1.4334,-1.476,-1.3767,-1.404,-1.404,-1.3733,-1.2793,-1.2801,-1.399,-1.2112,-1.1578,-1.2389,-1.2397,-1.2512,-1.2696,-1.2696,-1.2696,-1.2696,-1.2696,-1.2696,-1.2757,-1.3321,-1.3199,-1.2573,-1.2573,-1.2089,-1.1545,-1.2773,-1.2328,-1.1329,0.0,0.0,-1.1358,-1.1358,-1.1115,-1.0933,-1.0933,-1.0744,-1.0624,-1.0624,-1.0624,-1.0624,-1.0624,-1.0624,-1.0624,-1.0624,-1.0624,-1.0624,-1.0624,-1.0624,-1.0624,-1.0624,-1.0624,-1.0624,-1.0624,-1.0624,-1.0751,-1.0933,-1.1303,-1.1421,-1.1351,-1.2143,-1.2512,-1.2512,-1.2089,-1.1725,-1.1483,-1.1115,-1.0807,-1.0624,-1.0624,-1.0624,-1.0624,-1.0624,-1.0624,-1.0624,-1.0624,-1.0624,-1.0624,-1.0624,-1.0624,-1.0624,-1.0624,-1.0624,-1.0624,-1.0624,-1.0301,-0.9907,-0.9907,-0.9907,-0.9907,-0.9907,-1.0301,-1.0624,-1.0624,-1.0624,-1.0624,-1.0624,-1.0428,-1.0186,-0.9867,-0.9254,-0.8774,-0.8667,-0.7989,-0.7566,-0.7973,0.0,0.0,-0.8419,0.0,0.0,0.0,-1.1258,-1.2228,-1.2077,-1.3862,-1.4468,-1.3391,-1.3011,-1.2846,-1.2785,-1.1392,-1.1149,-1.2174,-1.1337,-1.1031,-1.1399,-1.1888,-1.2197,-1.2389,-1.2389,-1.2451,-1.2512,-1.2389,-1.2389,-1.2389,-1.2512,-1.2197,-1.1578,-1.1578,-1.1156,-1.0548,-1.1101,-1.0912,-1.0471,-1.0428,-1.0434,-1.0364,-1.0168,-1.0104,-1.0104,-1.0104,-1.0104,-1.0231,-1.0498,-1.0498,-1.0561,-1.0561,-1.0624,-1.0624,-1.0624,-1.0624,-1.0624,-1.0624,-1.0624,-1.0624,-1.0624,-1.0624,-1.0498,-1.0301,-1.0491,-1.0491,-1.0301,-1.073,-1.0793,-1.0624,-1.1538,-1.1958,-1.1903,-1.1421,-1.124,-1.124,-1.0807,-1.0624,-1.0624,-1.0624,-1.0624,-1.0624,-1.0624,-1.0624,-1.0624,-1.0624,-1.0624,-1.0624,-1.0624,-1.0428,-1.0301,-1.0561,-1.0624,-1.0561,-1.0364,-0.9907,-0.9454,-0.9262,-0.9198,-0.9262,-0.9454,-0.9907,-1.0364,-1.0555,-1.0624,-1.0561,-1.0301,-0.9844,-0.9286,-0.8792,-0.8265,-0.7752,-0.7353,-0.6741,-0.6486,-0.6982,-0.7015,0.0,-0.7628,-0.8269,-0.8687,-0.8692,-0.9993,-1.0902,-1.1006,-1.2453,-1.3033,-1.2514,-1.2188,-1.1943,-1.1935,-1.0591,-1.0281,-1.1073,-1.0604,-1.0421,-1.0528,-1.1094,-1.1461,-1.1648,-1.1648,-1.1655,-1.1772,-1.1896,-1.1834,-1.1655,-1.1703,-1.1329,-1.0717,-1.0717,-1.0408,-0.9989,-1.0174,-1.0047,-0.9862,-1.0047,-0.9983,-0.9786,-0.9122,-0.8994,-0.8994,-0.8994,-0.8994,-0.9314,-1.0174,-1.0301,-1.0364,-1.0561,-1.0624,-1.0624,-1.0624,-1.0624,-1.0624,-1.0624,-1.0624,-1.0624,-1.0624,-1.0624,-1.0231,-0.9518,-1.0231,-1.0231,-0.9518,-0.9518,-0.9907,-1.0624,-1.0624,-1.0624,-1.0624,-1.0624,-1.0624,-1.0624,-1.0624,-1.0624,-1.0624,-1.0624,-1.0624,-1.0624,-1.0624,-1.0624,-1.0624,-1.0624,-1.0624,-1.0624,-1.0624,-1.0104,-0.9646,-1.0364,-1.0624,-1.0428,-0.9716,-0.9518,-0.9326,-0.8683,-0.849,-0.8683,-0.9326,-0.9518,-0.9709,-1.0428,-1.0624,-1.0371,-0.9466,-0.8359,-0.7322,-0.6572,-0.6083,-0.5772,-0.5829,-0.5117,-0.4956,-0.6253,-0.6312,0.0,-0.7025,-0.8567,-0.9152,-0.8002,-0.9569,-1.0343,-0.9674,-0.9724,-1.0268,-1.1367,-1.1776,-1.1935,-1.172,-1.1128,-1.1073,-1.1658,-1.0212,-0.9612,-0.9804,-0.9804,-0.9926,-1.0047,-1.0047,-1.0047,-1.0047,-1.071,-1.0654,-1.011,-1.071,-1.0591,-0.9983,-0.9983,-0.9926,-0.9868,-1.0555,-1.0238,-0.9612,-0.932,-0.8935,-0.8544,-0.835,-0.8345,-0.8345,-0.8345,-0.8415,-0.8549,-0.8865,-0.9,-0.9069,-0.8941,-0.9518,-0.9843,-0.9722,-0.9722,-0.9652,-0.9512,-0.9512,-0.9512,-0.9512,-0.9058,-0.8737,-0.8479,-0.8737,-0.8737,-0.8479,-0.8549,-0.9005,-0.9843,-0.9843,-1.0104,-1.0624,-1.0624,-1.0624,-1.0624,-1.0624,-1.0624,-1.0624,-1.0624,-1.0624,-1.0624,-1.0624,-1.0624,-1.0624,-1.0624,-1.0301,-0.9843,-0.9843,-0.939,-0.8877,-0.9069,-0.9198,-0.9134,-0.8877,-0.849,-0.8102,-0.7847,-0.7842,-0.7847,-0.8102,-0.8361,-0.8683,-0.8877,-0.8877,-0.8692,-0.8148,-0.7741,-0.7286,-0.6643,-0.608,-0.5669,-0.5493,-0.4934,-0.4791,-0.555,-0.5605,-0.5828,-0.6426,-0.6956,-0.7117,-0.675,-0.7587,-0.8243,-0.8572,-0.9194,-0.9946,-1.0835,-1.01,-1.0082,-1.1162,-0.9933,-0.9818,-1.1073,-1.0471,-0.9989,-0.9612,-1.0047,-1.0117,-0.9862,-0.9989,-0.9983,-0.9983,-1.011,-1.0047,-0.9862,-0.9913,-0.9856,-0.9676,-0.9676,-0.9612,-0.9612,-0.9862,-0.9472,-0.8818,-0.8415,-0.8091,-0.7702,-0.7442,-0.7377,-0.7377,-0.7377,-0.7442,-0.7642,-0.7957,-0.8091,-0.8161,-0.8102,-0.8355,-0.8613,-0.8812,-0.8812,-0.8807,-0.8672,-0.8672,-0.8667,-0.8801,-0.8285,-0.7897,-0.7697,-0.7897,-0.7832,-0.7572,-0.7967,-0.8291,-0.8544,-0.8807,-0.9192,-0.9646,-0.9977,-1.011,-1.011,-1.0428,-1.0428,-1.0168,-1.0168,-1.0168,-1.0168,-1.0168,-1.0168,-1.0168,-1.0168,-0.9716,-0.9134,-0.9134,-0.8683,-0.8102,-0.8102,-0.7907,-0.7777,-0.8037,-0.7847,-0.7461,-0.7134,-0.7064,-0.7064,-0.7321,-0.7582,-0.7752,-0.7989,-0.7713,-0.7331,-0.7054,-0.6707,-0.6344,-0.593,-0.5547,-0.5181,-0.5026,-0.4736,-0.4625,-0.4952,-0.5171,-0.5441,-0.5828,-0.6253,-0.6421,-0.6209,-0.6681,-0.6993,-0.7036,-0.7595,-0.8064,-0.8381,-0.8638,-0.9027,-0.9562,-0.8617,-0.8544,-0.9494,-0.9703,-0.9524,-0.9151,-0.9786,-0.9989,-0.9676,-0.9798,-0.9798,-0.9798,-0.974,-0.9676,-0.9676,-0.9548,-0.9484,-0.9484,-0.9221,-0.9151,-0.9087,-0.8823,-0.8431,-0.8096,-0.7386,-0.7321,-0.706,-0.6465,-0.6334,-0.6334,-0.6334,-0.6334,-0.6662,-0.7447,-0.7577,-0.7642,-0.7832,-0.7246,-0.7055,-0.7767,-0.7897,-0.7967,-0.8037,-0.7967,-0.8027,-0.8361,-0.8027,-0.7572,-0.7116,-0.7572,-0.7507,-0.6793,-0.7507,-0.7507,-0.6924,-0.7572,-0.7962,-0.8027,-0.8877,-0.9204,-0.9268,-1.0104,-1.004,-0.939,-0.939,-0.939,-0.939,-0.939,-0.939,-0.939,-0.939,-0.8941,-0.8361,-0.8361,-0.7972,-0.7391,-0.7391,-0.6937,-0.6482,-0.7199,-0.7391,-0.726,-0.6548,-0.6284,-0.6342,-0.6985,-0.6976,-0.6919,-0.7418,-0.6867,-0.6249,-0.6121,-0.5369,-0.4687,-0.4677,-0.4558,-0.4519,-0.4519,-0.4519,-0.4519,-0.4519,-0.4952,-0.5222,-0.5222,-0.6195,-0.6622,-0.615,-0.6519,-0.6406,-0.5386,-0.5277,-0.5131,-0.4782,-0.7449,-0.8432,-0.7178,-0.7255,-0.7363,-0.7363,-0.8091,-0.8425,-0.8425,-0.9081,-0.9356,-0.9414,-0.9414,-0.9484,-0.9484,-0.9484,-0.9414,-0.9414,-0.935,-0.935,-0.9285,-0.8689,-0.8425,-0.8355,-0.7647,-0.7386,-0.7321,-0.6662,-0.621,-0.5818,-0.5686,-0.562,-0.562,-0.562,-0.5749,-0.5877,-0.6075,-0.621,-0.6276,-0.6203,-0.6009,-0.5943,-0.6013,-0.6601,-0.6929,-0.6859,-0.6789,-0.6789,-0.692,-0.6338,-0.5951,-0.5818,-0.5947,-0.6013,-0.5877,-0.6071,-0.64,-0.6924,-0.7055,-0.7442,-0.8027,-0.8221,-0.8291,-0.835,-0.8544,-0.8544,-0.835,-0.835,-0.835,-0.835,-0.835,-0.835,-0.835,-0.835,-0.7897,-0.7251,-0.7251,-0.6863,-0.6284,-0.6284,-0.6152,-0.6086,-0.6412,-0.6539,-0.6408,-0.6086,-0.602,-0.602,-0.6148,-0.5986,-0.5751,-0.5702,-0.5476,-0.5229,-0.5063,-0.4889,-0.4657,-0.4594,-0.4543,-0.4519,-0.4519,-0.4519,-0.4519,-0.4519,-0.4625,-0.468,-0.468,-0.4952,-0.5058,-0.4901,-0.5007,-0.5167,-0.5277,-0.5277,-0.5242,-0.5175,-0.6006,-0.6438,-0.6293,-0.6425,-0.6709,-0.7273,-0.75,-0.7647,-0.7647,-0.7842,-0.8166,-0.8753,-0.8753,-0.9017,-0.9484,-0.8952,-0.8753,-0.8689,-0.8107,-0.7907,-0.7907,-0.7712,-0.7647,-0.7647,-0.7451,-0.7055,-0.6662,-0.5947,-0.5624,-0.5428,-0.5428,-0.5428,-0.5428,-0.5428,-0.5491,-0.5488,-0.5488,-0.5624,-0.5624,-0.5488,-0.5488,-0.5491,-0.5428,-0.5822,-0.6079,-0.6005,-0.6009,-0.6013,-0.6145,-0.569,-0.5428,-0.5488,-0.5425,-0.5425,-0.5488,-0.5488,-0.5752,-0.621,-0.621,-0.6404,-0.6859,-0.7242,-0.7437,-0.7437,-0.7832,-0.7832,-0.7507,-0.7507,-0.7507,-0.7507,-0.7507,-0.7507,-0.7507,-0.7507,-0.7055,-0.6474,-0.6474,-0.6214,-0.5888,-0.5888,-0.5888,-0.5888,-0.5951,-0.6017,-0.6017,-0.5954,-0.5822,-0.5734,-0.5596,-0.5336,-0.5144,-0.4945,-0.487,-0.4772,-0.4619,-0.4585,-0.4562,-0.4532,-0.4519,-0.4519,-0.4519,-0.4519,-0.4405,-0.4128,-0.4073,-0.3959,-0.3738,-0.3683,-0.3683,-0.3683,-0.3683,-0.379,-0.4064,-0.4116,-0.4116,-0.4116,-0.4475,-0.4934,-0.5395,-0.5258,-0.5523,-0.6142,-0.6637,-0.6989,-0.731,-0.7339,-0.7582,-0.7972,-0.7972,-0.8166,-0.8501,-0.8166,-0.7972,-0.7972,-0.7582,-0.7386,-0.7386,-0.706,-0.6924,-0.6924,-0.6601,-0.6276,-0.5877,-0.5428,-0.5428,-0.5428,-0.5428,-0.5428,-0.5428,-0.5428,-0.5428,-0.5428,-0.5428,-0.5428,-0.5428,-0.5428,-0.5428,-0.5428,-0.5428,-0.5428,-0.5425,-0.555,-0.5491,-0.5557,-0.5826,-0.5561,-0.5425,-0.555,-0.5491,-0.5428,-0.5428,-0.5428,-0.5428,-0.5428,-0.5428,-0.5428,-0.5428,-0.6203,-0.6527,-0.6527,-0.7312,-0.7246,-0.6666,-0.6666,-0.6666,-0.6666,-0.6666,-0.6666,-0.6666,-0.6666,-0.6276,-0.5826,-0.5826,-0.5826,-0.5826,-0.5826,-0.5826,-0.5818,-0.5588,-0.565,-0.5785,-0.5785,-0.5632,-0.5448,-0.5128,-0.4992,-0.485,-0.4721,-0.4674,-0.4619,-0.4543,-0.4519,-0.4519,-0.4519,-0.4519,-0.4519,-0.4519,-0.4463,-0.4239,-0.3624,-0.3627,-0.3403,-0.2679,-0.2681,-0.2736,-0.2681,-0.2681,-0.2681,-0.2681,-0.2681,-0.2681,-0.2681,-0.3181,-0.373,-0.4362,-0.4145,-0.416,-0.461,-0.5534,-0.6224,-0.6715,-0.6953,-0.7117,-0.721,-0.721,-0.7293,-0.7386,-0.7321,-0.7256,-0.7256,-0.7125,-0.7125,-0.706,-0.6465,-0.6268,-0.6141,-0.5488,-0.5226,-0.5156,-0.5428,-0.5428,-0.5428,-0.5428,-0.5428,-0.5428,-0.5428,-0.5428,-0.5428,-0.5428,-0.5428,-0.5428,-0.5428,-0.5428,-0.5428,-0.5428,-0.5428,-0.5428,-0.5428,-0.5425,-0.5428,-0.5495,-0.5428,-0.5428,-0.5425,-0.5425,-0.5428,-0.5428,-0.5428,-0.5428,-0.5428,-0.5428,-0.5428,-0.5428,-0.5557,-0.5624,-0.5624,-0.5752,-0.5752,-0.5624,-0.5624,-0.5624,-0.5624,-0.5624,-0.5624,-0.5624,-0.5624,-0.5557,-0.5495,-0.5495,-0.5495,-0.5495,-0.5495,-0.5495,-0.5467,-0.5267,-0.5229,-0.5229,-0.5229,-0.514,-0.4979,-0.4958,-0.484,-0.4721,-0.4697,-0.4589,-0.4546,-0.4522,-0.4519,-0.4519,-0.4519,-0.4519,-0.4519,-0.4519,-0.4356,-0.4021,-0.3456,-0.3683,-0.3516,-0.2399,-0.2736,-0.2905,-0.2567,-0.2512,-0.2567,-0.2681,-0.2681,-0.2681,-0.2681,-0.2792,-0.291,-0.2981,-0.3543,-0.3711,-0.3383,-0.4507,-0.4887,-0.4513,-0.503,-0.567,-0.6375,-0.6375,-0.6779,-0.7386,-0.6793,-0.6531,-0.6531,-0.5947,-0.569,-0.569,-0.5624,-0.5557,-0.5488,-0.4755,-0.4486,-0.4353,-0.5428,-0.5428,-0.5428,-0.5428,-0.5428,-0.5428,-0.5428,-0.5428,-0.5428,-0.5428,-0.5428,-0.5226,-0.4824,-0.4821,-0.4622,-0.422,-0.422,-0.422,-0.422,-0.4957,-0.5428,-0.5428,-0.5428,-0.5428,-0.5428,-0.5428,-0.5428,-0.5428,-0.5428,-0.5428,-0.5428,-0.5428,-0.5428,-0.5428,-0.5428,-0.5428,-0.5428,-0.5428,-0.5428,-0.5428,-0.5428,-0.5428,-0.5428,-0.5428,-0.5428,-0.5428,-0.5428,-0.5428,-0.5428,-0.5428,-0.5428,-0.5345,-0.4869,-0.4779,-0.4751,-0.4552,-0.4764,-0.5016,-0.5016,-0.4908,-0.4796,-0.4796,-0.468,-0.4568,-0.4568,-0.457,-0.4519,-0.4519,-0.4519,-0.4519,-0.4519,-0.4519,-0.4463,-0.4356,-0.4021,-0.3516,-0.2792,-0.2625,-0.2233,-0.1342,-0.1454,-0.1567,-0.1398,-0.1342,-0.1398,-0.1454,-0.1567,-0.1623,-0.1623,-0.2012,-0.2068,-0.1734,-0.2665,-0.2936,-0.2399,-0.333,-0.3657,-0.3421,-0.3782,-0.4148,-0.451,-0.451,-0.4766,-0.5148,-0.4825,-0.4677,-0.4677,-0.435,-0.422,-0.422,-0.422,-0.422,-0.4154,-0.3818,-0.3685,-0.3618,-0.5428,-0.5428,-0.5428,-0.5428,-0.5428,-0.5428,-0.5428,-0.5428,-0.5362,-0.516,-0.516,-0.4891,-0.4154,-0.4018,-0.3818,-0.3218,-0.3215,-0.3215,-0.3215,-0.4287,-0.4957,-0.516,-0.5296,-0.5428,-0.5428,-0.5428,-0.5428,-0.5428,-0.5428,-0.5428,-0.5428,-0.5428,-0.5428,-0.5428,-0.5428,-0.5428,-0.5428,-0.5428,-0.5428,-0.5428,-0.5428,-0.5428,-0.5428,-0.5428,-0.5292,-0.516,-0.516,-0.5024,-0.4891,-0.4891,-0.4869,-0.4757,-0.4134,-0.3959,-0.3916,-0.3806,-0.4174,-0.464,-0.4797,-0.4755,-0.4636,-0.4636,-0.4548,-0.4519,-0.4519,-0.4519,-0.4519,-0.4519,-0.4519,-0.446,-0.4294,-0.4239,-0.4128,-0.3855,-0.3405,-0.279,-0.2069,-0.1621,-0.1119,-0.0392,-0.0449,-0.0449,-0.0336,-0.0336,-0.0393,-0.0393,-0.0561,-0.0617,-0.0617,-0.1232,-0.1344,-0.0898,-0.1958,-0.2181,-0.1623,-0.2407,-0.2787,-0.2671,-0.2915,-0.3024,-0.3045,-0.3045,-0.3094,-0.3179,-0.3179,-0.3168,-0.3185,-0.3185,-0.3197,-0.3215,-0.3215,-0.3149,-0.3082,-0.2948,-0.2882,-0.2748,-0.5428,-0.5428,-0.5428,-0.5428,-0.5428,-0.5428,-0.5428,-0.5428,-0.516,-0.4486,-0.4353,-0.4087,-0.3351,-0.3282,-0.3282,-0.3215,-0.3215,-0.3215,-0.3215,-0.3282,-0.3685,-0.4353,-0.5024,-0.5428,-0.5428,-0.5428,-0.5428,-0.5428,-0.5428,-0.5428,-0.5428,-0.5428,-0.5428,-0.5428,-0.5428,-0.5428,-0.5428,-0.5428,-0.5428,-0.5428,-0.5428,-0.5428,-0.5428,-0.5428,-0.4957,-0.4353,-0.4353,-0.3951,-0.3351,-0.3351,-0.3357,-0.3347,-0.3275,-0.3216,-0.3129,-0.3032,-0.3342,-0.3848,-0.4551,-0.4596,-0.4536,-0.4536,-0.4525,-0.4519,-0.4519,-0.4519,-0.4519,-0.4519,-0.4519,-0.4349,-0.3793,-0.3511,-0.3231,-0.2734,-0.2347,-0.1902,-0.1285,-0.151,-0.1343,-0.0168,-0.0505,-0.0673,-0.028,-0.0224,-0.028,-0.0393,-0.0393,-0.0449,-0.0449,-0.0673,-0.0841,-0.0898,-0.1512,-0.1567,-0.0953,-0.213,-0.2411,-0.1909,-0.2473,-0.2801,-0.2886,-0.2886,-0.2998,-0.3087,-0.3087,-0.3138,-0.3219,-0.3219,-0.3205,-0.3215,-0.3215,-0.3082,-0.288,-0.2211,-0.1877,-0.161,-0.422,-0.442,-0.4556,-0.4087,-0.4018,-0.4018,-0.4018,-0.4018,-0.3951,-0.3685,-0.3618,-0.3349,-0.2614,-0.2547,-0.2347,-0.1946,-0.1879,-0.1879,-0.1879,-0.2681,-0.3551,-0.4287,-0.5024,-0.5428,-0.5428,-0.5428,-0.5428,-0.5428,-0.5428,-0.5428,-0.5428,-0.5428,-0.5428,-0.5428,-0.5428,-0.5428,-0.5428,-0.5428,-0.5428,-0.5359,-0.4891,-0.4688,-0.4688,-0.422,-0.3885,-0.3618,-0.3618,-0.3418,-0.3207,-0.3218,-0.3174,-0.3126,-0.2584,-0.2416,-0.2378,-0.2244,-0.2876,-0.3635,-0.3966,-0.4281,-0.4519,-0.4519,-0.4519,-0.4405,-0.4015,-0.3959,-0.3849,-0.3461,-0.3292,-0.3178,-0.2956,-0.2732,-0.251,-0.2235,-0.1789,-0.1342,-0.1008,-0.0784,-0.0504,-0.0056,-0.0224,-0.028,-0.0112,-0.0056,-0.0112,-0.0168,-0.0224,-0.028,-0.028,-0.0449,-0.0561,-0.0561,-0.0784,-0.0896,-0.0898,-0.1288,-0.1344,-0.112,-0.1231,-0.1296,-0.1369,-0.1369,-0.1393,-0.1497,-0.1497,-0.1524,-0.1506,-0.1533,-0.1556,-0.1509,-0.1535,-0.1479,-0.1412,-0.1144,-0.1009,-0.0875,-0.3418,-0.3618,-0.3818,-0.3282,-0.3215,-0.3215,-0.3215,-0.3215,-0.3149,-0.2882,-0.2882,-0.2614,-0.1879,-0.1812,-0.1612,-0.1143,-0.1076,-0.1076,-0.1076,-0.2213,-0.3416,-0.4622,-0.4891,-0.5024,-0.5024,-0.5292,-0.5292,-0.5024,-0.5292,-0.5292,-0.509,-0.5292,-0.516,-0.4688,-0.4957,-0.4957,-0.4688,-0.4688,-0.4688,-0.4688,-0.4154,-0.3951,-0.3885,-0.3416,-0.3082,-0.2882,-0.2882,-0.2734,-0.2509,-0.2525,-0.2476,-0.236,-0.1848,-0.1636,-0.1672,-0.1746,-0.2402,-0.307,-0.3292,-0.3627,-0.3959,-0.4184,-0.4073,-0.3849,-0.3403,-0.3292,-0.3123,-0.2736,-0.2512,-0.2345,-0.2178,-0.1953,-0.1786,-0.1455,-0.1063,-0.0728,-0.0617,-0.028,0.0,0.0,0.0,0.0,0.0,0.0,0.0,0.0,-0.0112,-0.0168,-0.0224,-0.028,-0.0336,-0.0393,-0.0393,-0.0505,-0.0729,-0.0673,-0.0617,-0.0617,-0.0449,-0.0393,-0.0393,-0.0393,-0.0398,-0.0464,-0.0464,-0.0473,-0.0488,-0.0498,-0.0505,-0.0511,-0.0526,-0.0466,-0.0466,-0.047,-0.0404,-0.0337,-0.3349,-0.3215,-0.3215,-0.3215,-0.3215,-0.3215,-0.3215,-0.3215,-0.2948,-0.2213,-0.2079,-0.1812,-0.1143,-0.1076,-0.1076,-0.1076,-0.1076,-0.1076,-0.1076,-0.1745,-0.3082,-0.5292,-0.4688,-0.4287,-0.4287,-0.5024,-0.5024,-0.4287,-0.5024,-0.5024,-0.4287,-0.5024,-0.4622,-0.3215,-0.3951,-0.3885,-0.3215,-0.3215,-0.3215,-0.3215,-0.3215,-0.3215,-0.3215,-0.3215,-0.2748,-0.2079,-0.2079,-0.165,-0.0969,-0.0969,-0.0931,-0.0884,-0.0884,-0.0922,-0.1009,-0.1623,-0.179,-0.1902,-0.2514,-0.2681,-0.2847,-0.3458,-0.3125,-0.2681,-0.2681,-0.2567,-0.2512,-0.2512,-0.2343,-0.2009,-0.1397,-0.1174,-0.0895,-0.028,-0.0112,0.0,0.0,0.0,0.0,0.0,0.0,0.0,0.0,0.0,0.0,0.0,0.0,-0.0056,-0.0168,-0.0224,-0.028,-0.0393,-0.0393,-0.0393,-0.0393,-0.0393,-0.0393,-0.0393,-0.0393,-0.0393,-0.0393,-0.0393,-0.0393,-0.0393,-0.0393,-0.0457,-0.0471,-0.0471,-0.048,-0.0495,-0.0511,-0.0387,-0.0324,-0.0267,-0.0202,0.0,-0.1946,-0.208,-0.2281,-0.1812,-0.1745,-0.1745,-0.1745,-0.1745,-0.1679,-0.1411,-0.1411,-0.1277,-0.0943,-0.0876,-0.0808,-0.0674,-0.0674,-0.0875,-0.141,-0.1277,-0.188,-0.3413,-0.3549,-0.3551,-0.3551,-0.3751,-0.3751,-0.3551,-0.3751,-0.3751,-0.3551,-0.3751,-0.3618,-0.3215,-0.3418,-0.3416,-0.3215,-0.3215,-0.3215,-0.3149,-0.2614,-0.2414,-0.2348,-0.1879,-0.1612,-0.1411,-0.1411,-0.1271,-0.106,-0.104,-0.0957,-0.0937,-0.0897,-0.0922,-0.0954,-0.1121,-0.14,-0.1679,-0.19,-0.1845,-0.1899,-0.2623,-0.2679,-0.24,-0.1843,-0.1676,-0.1564,-0.1119,-0.0896,-0.0728,-0.056,-0.0392,-0.028,-0.0112,0.0,0.0,0.0,0.0,0.0,0.0,0.0,0.0,0.0,0.0,0.0,0.0,0.0,0.0,-0.0056,-0.0056,-0.0056,-0.0112,-0.0112,-0.0112,-0.0112,-0.0224,-0.028,-0.028,-0.0168,-0.0112,-0.0112,-0.0112,-0.0112,-0.0112,-0.0112,-0.0113,-0.0171,-0.0175,-0.0178,-0.012,-0.0124,-0.0127,-0.0065,-0.0065,-0.0066,0.0,-0.1344,-0.1411,-0.1545,-0.1076,-0.101,-0.101,-0.101,-0.101,-0.101,-0.101,-0.101,-0.0875,-0.0674,-0.0674,-0.0607,-0.0539,-0.0472,-0.0674,-0.1142,-0.0875,-0.101,-0.1812,-0.2013,-0.2281,-0.2681,-0.2947,-0.2948,-0.2748,-0.3082,-0.3082,-0.2748,-0.3082,-0.2882,-0.2415,-0.2614,-0.2614,-0.2347,-0.2283,-0.2283,-0.2216,-0.1679,-0.1479,-0.1412,-0.1076,-0.0942,-0.0875,-0.1076,-0.1002,-0.0858,-0.0975,-0.1026,-0.1009,-0.0851,-0.083,-0.0815,-0.0747,-0.0915,-0.1139,-0.1124,-0.1064,-0.1063,-0.1509,-0.162,-0.1566,-0.1063,-0.0896,-0.0784,-0.0392,-0.0224,-0.0112,-0.0112,-0.0056,0.0,0.0,0.0,0.0,0.0,0.0,0.0,0.0,0.0,0.0,0.0,0.0,0.0,0.0,0.0,0.0,0.0,0.0,0.0,0.0,0.0,0.0,0.0,-0.0056,-0.0112,-0.0112,-0.0056,0.0,0.0,0.0,0.0,0.0,0.0,0.0,0.0,0.0,0.0116,0.0348,0.0359,0.049,0.0749,0.0767,0.0782,0.0795,-0.121,-0.1076,-0.1009,-0.0876,-0.0809,-0.0809,-0.0809,-0.0809,-0.0742,-0.0742,-0.0742,-0.0674,-0.0472,-0.0472,-0.0472,-0.0472,-0.0472,-0.0472,-0.0472,-0.0472,-0.0472,-0.0472,-0.0472,-0.0875,-0.1744,-0.2345,-0.2414,-0.1946,-0.2616,-0.2614,-0.1946,-0.2616,-0.2281,-0.1076,-0.1679,-0.1612,-0.1008,-0.0876,-0.0742,-0.0742,-0.0607,-0.0472,-0.0539,-0.0674,-0.0674,-0.0539,-0.0942,-0.0795,-0.0519,-0.0778,-0.089,-0.0806,-0.0558,-0.0495,-0.0429,-0.0238,-0.0236,-0.0234,-0.0284,-0.0281,-0.028,-0.0224,-0.0224,-0.028,-0.0336,-0.028,-0.0168,-0.0168,-0.0112,0.0,0.0,0.0,0.0,0.0,0.0,0.0,0.0,0.0,0.0,0.0,0.0,0.0,0.0,0.0,0.0,0.0,0.0056,0.0056,0.0056,0.0112,0.0168,0.0168,0.0168,0.0168,0.0168,0.0168,0.0112,0.0056,0.0056,0.0112,0.0168,0.0168,0.0168,0.0168,0.0168,0.0168,0.0168,0.0168,0.0505,0.0956,0.0983,0.1288,0.1835,0.1938,0.1983,0.2,-0.1143,-0.1076,-0.1076,-0.1076,-0.0876,-0.0809,-0.0809,-0.0674,-0.0539,-0.0539,-0.0539,-0.0539,-0.0337,-0.0337,-0.027,-0.0135,-0.0135,-0.0135,-0.0135,-0.027,-0.027,-0.0135,-0.027,-0.0472,-0.0673,-0.0875,-0.0942,-0.0876,-0.101,-0.101,-0.0876,-0.101,-0.0942,-0.0606,-0.0808,-0.0741,-0.0606,-0.0607,-0.0539,-0.0539,-0.0539,-0.0472,-0.0472,-0.0539,-0.0539,-0.0539,-0.0606,-0.0604,-0.0401,0.0,0.0196,0.0383,0.0955,0.119,0.1166,0.1219,0.1257,0.1114,0.0641,0.0571,0.0505,0.0056,0.028,0.0505,0.0,-0.0056,-0.0056,-0.0056,0.0,0.0,0.0,0.0,0.0,0.0,0.0,0.0,0.0,0.0,0.0,0.0,0.0,0.0,0.0,0.0,0.0,0.0,0.0449,0.0729,0.0729,0.1176,0.1399,0.1399,0.1399,0.1399,0.1399,0.1399,0.1176,0.0729,0.0729,0.0952,0.1399,0.1399,0.1399,0.1399,0.1399,0.1399,0.1399,0.1399,0.1511,0.1624,0.1579,0.1666,0.1824,0.1849,0.1915,0.2,-0.1076,-0.1076,-0.1076,-0.0942,-0.0809,-0.0674,-0.0674,-0.0539,-0.0404,-0.0404,-0.0404,-0.0337,-0.0202,-0.0135,-0.0135,0.0,0.0,0.0,0.0,-0.0067,-0.0135,0.0,-0.0067,-0.0135,-0.0135,-0.0202,-0.0337,-0.0472,-0.0472,-0.0472,-0.0472,-0.0472,-0.0472,-0.0472,-0.0472,-0.0472,-0.0472,-0.0404,-0.0404,-0.0404,-0.027,-0.027,-0.027,-0.0337,-0.0135,0.0269,0.0067,0.0202,0.0538,0.1007,0.113,0.1182,0.164,0.1817,0.179,0.1891,0.1862,0.1836,0.1507,0.141,0.1377,0.1032,0.1133,0.112,0.0224,0.0224,0.0336,0.0056,0.0224,0.0449,0.0449,0.0672,0.084,0.084,0.084,0.084,0.084,0.084,0.084,0.084,0.084,0.084,0.084,0.084,0.084,0.084,0.1176,0.1344,0.1344,0.1623,0.179,0.179,0.179,0.179,0.179,0.179,0.179,0.1734,0.1456,0.1511,0.179,0.179,0.179,0.179,0.179,0.179,0.179,0.179,0.1958,0.2235,0.2235,0.243,0.2646,0.2743,0.2869,0.3027,-0.1076,-0.1076,-0.1009,-0.0809,-0.0607,-0.0472,-0.0472,-0.0337,-0.027,-0.027,-0.027,-0.0202,0.0,0.0135,0.0202,0.0337,0.0337,0.0337,0.0337,0.0337,0.0337,0.0202,0.0269,0.0269,0.0,0.0135,0.0,-0.0404,-0.0404,-0.0404,-0.0404,-0.0404,-0.0404,-0.0404,-0.0404,-0.0404,-0.0404,-0.027,-0.0202,-0.0067,0.0135,0.0269,0.0337,0.0202,0.0605,0.1209,0.0873,0.1141,0.1743,0.2012,0.2011,0.1944,0.2213,0.228,0.2336,0.2413,0.2452,0.2429,0.2307,0.2243,0.2133,0.2015,0.2032,0.1707,0.0627,0.0734,0.0897,0.0392,0.0728,0.1065,0.1065,0.1456,0.179,0.179,0.179,0.179,0.179,0.179,0.179,0.179,0.179,0.179,0.179,0.179,0.179,0.179,0.1902,0.1958,0.1958,0.2069,0.2125,0.2125,0.2125,0.2125,0.2125,0.2125,0.2348,0.285,0.2348,0.2125,0.2125,0.2125,0.2125,0.2125,0.2125,0.2125,0.2125,0.2125,0.2404,0.285,0.285,0.3188,0.3599,0.3826,0.4002,0.4187,-0.0876,-0.0809,-0.0809,-0.0607,-0.0404,-0.0337,-0.0337,-0.0135,-0.0067,-0.0067,-0.0067,0.0,0.0,0.0539,0.121,0.1745,0.1812,0.1812,0.1812,0.1812,0.1544,0.1008,0.1478,0.1276,0.0,0.0605,0.0605,-0.0067,-0.0067,-0.0067,-0.0067,-0.0067,-0.0067,-0.0067,-0.0067,-0.0067,-0.0067,-0.0067,0.0337,0.0941,0.0941,0.1276,0.1812,0.1812,0.1879,0.1946,0.1878,0.1946,0.2146,0.2815,0.3015,0.3082,0.3758,0.3961,0.3959,0.401,0.3936,0.3727,0.3202,0.2943,0.2751,0.2199,0.2436,0.2673,0.1941,0.1746,0.1679,0.1567,0.1623,0.1679,0.1679,0.1734,0.179,0.179,0.179,0.179,0.179,0.179,0.179,0.179,0.179,0.179,0.179,0.179,0.179,0.179,0.2291,0.2569,0.2569,0.3077,0.3357,0.3357,0.3357,0.3357,0.3357,0.3357,0.3416,0.3471,0.3416,0.3357,0.3357,0.3357,0.3357,0.3357,0.3357,0.3357,0.3357,0.3357,0.3416,0.3471,0.3471,0.3527,0.3655,0.4113,0.4358,0.4483,-0.0674,-0.0607,-0.0607,-0.0539,-0.0404,-0.027,-0.027,0.0202,0.0605,0.0605,0.0941,0.1143,0.1143,0.1478,0.1745,0.2079,0.208,0.208,0.208,0.208,0.1946,0.1678,0.1946,0.1812,0.121,0.1478,0.1478,0.1143,0.0404,0.0,0.0,0.0,0.0202,0.0605,0.0605,0.0807,0.1143,0.1143,0.1344,0.1678,0.1678,0.1812,0.208,0.208,0.2347,0.2748,0.3153,0.3355,0.3355,0.3692,0.3825,0.3892,0.4164,0.43,0.43,0.43,0.4262,0.4153,0.3891,0.3744,0.3532,0.3279,0.3361,0.3442,0.3195,0.3009,0.2773,0.2124,0.2243,0.2466,0.2422,0.2701,0.2913,0.2807,0.2798,0.2798,0.2798,0.2798,0.2798,0.2798,0.2798,0.2798,0.2798,0.2798,0.2798,0.2798,0.3077,0.3188,0.3188,0.3471,0.3585,0.3585,0.3802,0.3907,0.3907,0.4187,0.4353,0.4353,0.4353,0.4079,0.3585,0.3855,0.3802,0.3641,0.3855,0.3802,0.3638,0.3855,0.3907,0.3962,0.4242,0.4353,0.4359,0.4591,0.4727,0.482]}]]